[[{"header":{"parameterUnit":"m.s-1","parameterCategory":1,"la1":30.6,"la2":28.766,"lo1":-90.7593,"lo2":-88.6598,"dy":0.0162,"dx":0.0183,"nx":116,"ny":114,"refTime":"2023-04-25T00:00:00:Z","depth":0,"parameterNumber":2,"parameterNumberName":"U-component_of_WINDS"},"data":[0.0,0.0,0.0,0.0,0.0,0.0,0.0,0.0,0.0,0.0,0.0,0.0,0.0,0.0,0.0,0.0,0.0,0.0,0.0,0.0,0.0,0.0,0.0,0.0,0.0,0.0,0.0,0.0,0.0,0.0,0.0,0.0,0.0,0.0,0.0,0.0,0.0,0.0,0.0,0.0,0.0,0.0,0.0,0.0,0.0,0.0,0.0,0.0,0.0,0.0,0.0,0.0,0.0,0.0,0.0,0.0,0.0,0.0,0.0,0.0,0.0,0.0,0.0,0.0,0.0,0.0,0.0,0.0,0.0,0.0,0.0,0.0,0.0,0.0,0.0,0.0,0.0,0.0,0.0,0.0,0.0,0.0,0.0,0.0,0.0,0.0,0.0,0.0,0.0,0.0,0.0,0.0,0.0,0.0,0.0,0.0,0.0,0.0,0.0,0.0,0.0,0.0,0.0,0.0,0.0,0.0,0.0,0.0,0.0,0.0,0.0,0.0,0.0,0.0,0.0,0.0,0.0,0.0,0.0,0.0,0.0,0.0,0.0,0.0,0.0,0.0,0.0,0.0,0.0,0.0,0.0,0.0,0.0,0.0,0.0,0.0,0.0,0.0,0.0,0.0,0.0,0.0,0.0,0.0,0.0,0.0,0.0,0.0,0.0,0.0,0.0,0.0,0.0,0.0,0.0,0.0,0.0,0.0,0.0,0.0,0.0,0.0,0.0,0.0,0.0,0.0,0.0,0.0,0.0,0.0,0.0,0.0,0.0,0.0,0.0,0.0,0.0,0.0,0.0,0.0,0.0,0.0,0.0,0.0,0.0,0.0,0.0,0.0,0.0,0.0,0.0,0.0,0.0,0.0,0.0,0.0,0.0,0.0,0.0,0.0,0.0,0.0,0.0,0.0,0.0,0.0,0.0,0.0,0.0,0.0,0.0,0.0,0.0,0.0,0.0,0.0,0.0,0.0,0.0,0.0,0.0,0.0,0.0,0.0,0.0,0.0,0.0,0.0,0.0,0.0,0.0,0.0,0.0,0.0,0.0,0.0,0.0,0.0,0.0,0.0,0.0,0.0,0.0,0.0,0.0,0.0,0.0,0.0,0.0,0.0,0.0,0.0,0.0,0.0,0.0,0.0,0.0,0.0,0.0,0.0,0.0,0.0,0.0,0.0,0.0,0.0,0.0,0.0,0.0,0.0,0.0,0.0,0.0,0.0,0.0,0.0,0.0,0.0,0.0,0.0,0.0,0.0,0.0,0.0,0.0,0.0,0.0,0.0,0.0,0.0,0.0,0.0,0.0,0.0,0.0,0.0,0.0,0.0,0.0,0.0,0.0,0.0,0.0,0.0,0.0,0.0,0.0,0.0,0.0,0.0,0.0,0.0,0.0,0.0,0.0,0.0,0.0,0.0,0.0,0.0,0.0,0.0,0.0,0.0,0.0,0.0,0.0,0.0,0.0,0.0,0.0,0.0,0.0,0.0,0.0,0.0,0.0,0.0,0.0,0.0,0.0,0.0,0.0,0.0,0.0,0.0,0.0,0.0,0.0,0.0,0.0,0.0,0.0,0.0,0.0,0.0,0.0,0.0,0.0,0.0,0.0,0.0,0.0,0.0,0.0,0.0,0.0,0.0,0.0,0.0,0.0,0.0,0.0,0.0,0.0,0.0,0.0,0.0,0.0,0.0,0.0,0.0,0.0,0.0,0.0,0.0,0.0,0.0,0.0,0.0,0.0,0.0,0.0,0.0,0.0,0.0,0.0,0.0,0.0,0.0,0.0,0.0,0.0,0.0,0.0,0.0,0.0,0.0,0.0,0.0,0.0,0.0,0.0,0.0,0.0,0.0,0.0,0.0,0.0,0.0,0.0,0.0,0.0,0.0,0.0,0.0,0.0,0.0,0.0,0.0,0.0,0.0,0.0,0.0,0.0,0.0,0.0,0.0,0.0,0.0,0.0,0.0,0.0,0.0,0.0,0.0,0.0,0.0,0.0,0.0,0.0,0.0,0.0,0.0,0.0,0.0,0.0,0.0,0.0,0.0,0.0,0.0,0.0,0.0,0.0,0.0,0.0,0.0,0.0,0.0,0.0,0.0,0.0,0.0,0.0,0.0,0.0,0.0,0.0,0.0,0.0,0.0,0.0,0.0,0.0,0.0,0.0,0.0,0.0,0.0,0.0,0.0,0.0,0.0,0.0,0.0,0.0,0.0,0.0,0.0,0.0,0.0,0.0,0.0,0.0,0.0,0.0,0.0,0.0,0.0,0.0,0.0,0.0,0.0,0.0,0.0,0.0,0.0,0.0,0.0,0.0,0.0,0.0,0.0,0.0,0.0,0.0,0.0,0.0,0.0,0.0,0.0,0.0,0.0,0.0,0.0,0.0,0.0,0.0,0.0,0.0,0.0,0.0,0.0,0.0,0.0,0.0,0.0,0.0,0.0,0.0,0.0,0.0,0.0,0.0,0.0,0.0,0.0,0.0,0.0,0.0,0.0,0.0,0.0,0.0,0.0,0.0,0.0,0.0,0.0,0.0,0.0,0.0,0.0,0.0,0.0,0.0,0.0,0.0,0.0,0.0,0.0,0.0,0.0,0.0,0.0,0.0,0.0,0.0,0.0,0.0,0.0,0.0,0.0,0.0,0.0,0.0,0.0,0.0,0.0,0.0,0.0,0.0,0.0,0.0,0.0,0.0,0.0,0.0,0.0,0.0,0.0,0.0,0.0,0.0,0.0,0.0,0.0,0.0,0.0,0.0,0.0,0.0,0.0,0.0,0.0,0.0,0.0,0.0,0.0,0.0,0.0,0.0,0.0,0.0,0.0,0.0,0.0,0.0,0.0,0.0,0.0,0.0,0.0,0.0,0.0,0.0,0.0,0.0,0.0,0.0,0.0,0.0,0.0,0.0,0.0,0.0,0.0,0.0,0.0,0.0,0.0,0.0,0.0,0.0,0.0,0.0,0.0,0.0,0.0,0.0,0.0,0.0,0.0,0.0,0.0,0.0,0.0,0.0,0.0,0.0,0.0,0.0,0.0,0.0,0.0,0.0,0.0,0.0,0.0,0.0,0.0,0.0,0.0,0.0,0.0,0.0,0.0,0.0,0.0,0.0,0.0,0.0,0.0,0.0,0.0,0.0,0.0,0.0,0.0,0.0,0.0,0.0,0.0,0.0,0.0,0.0,0.0,0.0,0.0,0.0,0.0,0.0,0.0,0.0,0.0,0.0,0.0,0.0,0.0,0.0,0.0,0.0,0.0,0.0,0.0,0.0,0.0,0.0,0.0,0.0,0.0,0.0,0.0,0.0,0.0,0.0,0.0,0.0,0.0,0.0,0.0,0.0,0.0,0.0,0.0,0.0,0.0,0.0,0.0,0.0,0.0,0.0,0.0,0.0,0.0,0.0,0.0,0.0,0.0,0.0,0.0,0.0,0.0,0.0,0.0,0.0,0.0,0.0,0.0,0.0,0.0,0.0,0.0,0.0,0.0,0.0,0.0,0.0,0.0,0.0,0.0,0.0,0.0,0.0,0.0,0.0,0.0,0.0,0.0,0.0,0.0,0.0,0.0,0.0,0.0,0.0,0.0,0.0,0.0,0.0,0.0,0.0,0.0,0.0,0.0,0.0,0.0,0.0,0.0,0.0,0.0,0.0,0.0,0.0,0.0,0.0,0.0,0.0,0.0,0.0,0.0,0.0,0.0,0.0,0.0,0.0,0.0,0.0,0.0,0.0,0.0,0.0,0.0,0.0,0.0,0.0,0.0,0.0,0.0,0.0,0.0,0.0,0.0,0.0,0.0,0.0,0.0,0.0,0.0,0.0,0.0,0.0,0.0,0.0,0.0,0.0,0.0,0.0,0.0,0.0,0.0,0.0,0.0,0.0,0.0,0.0,0.0,0.0,0.0,0.0,0.0,0.0,0.0,0.0,0.0,0.0,0.0,0.0,0.0,0.0,0.0,0.0,0.0,0.0,0.0,0.0,0.0,0.0,0.0,0.0,0.0,0.0,0.0,0.0,0.0,0.0,0.0,0.0,0.0,0.0,0.0,0.0,0.0,0.0,0.0,0.0,0.0,0.0,0.0,0.0,0.0,0.0,0.0,0.0,0.0,0.0,0.0,0.0,0.0,0.0,0.0,0.0,0.0,0.0,0.0,0.0,0.0,0.0,0.0,0.0,0.0,0.0,0.0,0.0,0.0,0.0,0.0,0.0,0.0,0.0,0.0,0.0,0.0,0.0,0.0,0.0,0.0,0.0,0.0,0.0,0.0,0.0,0.0,0.0,0.0,0.0,0.0,0.0,0.0,0.0,0.0,0.0,0.0,0.0,0.0,0.0,0.0,0.0,0.0,0.0,0.0,0.0,0.0,0.0,0.0,0.0,0.0,0.0,0.0,0.0,0.0,0.0,0.0,0.0,0.0,0.0,0.0,0.0,0.0,0.0,0.0,0.0,0.0,0.0,0.0,0.0,0.0,0.0,0.0,0.0,0.0,0.0,0.0,0.0,0.0,0.0,0.0,0.0,0.0,0.0,0.0,0.0,0.0,0.0,0.0,0.0,0.0,0.0,0.0,0.0,0.0,0.0,0.0,0.0,0.0,0.0,0.0,0.0,0.0,0.0,0.0,0.0,0.0,0.0,0.0,0.0,0.0,0.0,0.0,0.0,0.0,0.0,0.0,0.0,0.0,0.0,0.0,0.0,0.0,0.0,0.0,0.0,0.0,0.0,0.0,0.0,0.0,0.0,0.0,0.0,0.0,0.0,0.0,0.0,0.0,0.0,0.0,0.0,0.0,0.0,0.0,0.0,0.0,0.0,0.0,0.0,0.0,0.0,0.0,0.0,0.0,0.0,0.0,0.0,0.0,0.0,0.0,0.0,0.0,0.0,0.0,0.0,0.0,0.0,0.0,0.0,0.0,0.0,0.0,0.0,0.0,0.0,0.0,0.0,0.0,0.0,0.0,0.0,0.0,0.0,0.0,0.0,0.0,0.0,0.0,0.0,0.0,0.0,0.0,0.0,0.0,0.0,0.0,0.0,0.0,0.0,0.0,0.0,0.0,0.0,0.0,0.0,0.0,0.0,0.0,0.0,0.0,0.0,0.0,0.0,0.0,0.0,0.0,0.0,0.0,0.0,0.0,0.0,0.0,0.0,0.0,0.0,0.0,0.0,0.0,0.0,0.0,0.0,0.0,0.0,0.0,0.0,0.0,0.0,0.0,0.0,0.0,0.0,0.0,0.0,0.0,0.0,0.0,0.0,0.0,0.0,0.0,0.0,0.0,0.0,0.0,0.0,0.0,0.0,0.0,0.0,0.0,0.0,0.0,0.0,0.0,0.0,0.0,0.0,0.0,0.0,0.0,0.0,0.0,0.0,0.0,0.0,0.0,0.0,0.0,0.0,0.0,0.0,0.0,0.0,0.0,0.0,0.0,0.0,0.0,0.0,0.0,0.0,0.0,0.0,0.0,0.0,0.0,0.0,0.0,0.0,0.0,0.0,0.0,0.0,0.0,0.0,0.0,0.0,0.0,0.0,0.0,0.0,0.0,0.0,0.0,0.0,0.0,0.0,0.0,0.0,0.0,0.0,0.0,0.0,0.0,0.0,0.0,0.0,0.0,0.0,0.0,0.0,0.0,0.0,0.0,0.0,0.0,0.0,0.0,0.0,0.0,0.0,0.0,0.0,0.0,0.0,0.0,0.0,0.0,0.0,0.0,0.0,0.0,0.0,0.0,0.0,0.0,0.0,0.0,0.0,0.0,0.0,0.0,0.0,0.0,0.0,0.0,0.0,0.0,0.0,0.0,0.0,0.0,0.0,0.0,0.0,0.0,0.0,0.0,0.0,0.0,0.0,0.0,0.0,0.0,0.0,0.0,0.0,0.0,0.0,0.0,0.0,0.0,0.0,0.0,0.0,0.0,0.0,0.0,0.0,0.0,0.0,0.0,0.0,0.0,0.0,0.0,0.0,0.0,0.0,0.0,0.0,0.0,0.0,0.0,0.0,0.0,0.0,0.0,0.0,0.0,0.0,0.0,0.0,0.0,0.0,0.0,0.0,0.0,0.0,0.0,0.0,0.0,0.0,0.0,0.0,0.0,0.0,0.0,0.0,0.0,0.0,0.0,-2.8649,-2.6998,0.0,0.0,0.0,0.0,0.0,0.0,0.0,0.0,0.0,0.0,0.0,0.0,0.0,0.0,0.0,0.0,0.0,0.0,0.0,0.0,0.0,0.0,0.0,0.0,0.0,0.0,0.0,0.0,0.0,0.0,0.0,0.0,0.0,0.0,0.0,0.0,0.0,0.0,-1.7988,-1.8623,-1.9248,-2.0266,-1.9671,-1.7676,0.0,0.0,0.0,0.0,0.0,0.0,0.0,0.0,0.0,0.0,0.0,0.0,0.0,0.0,0.0,0.0,0.0,0.0,0.0,0.0,0.0,0.0,0.0,0.0,0.0,0.0,0.0,0.0,0.0,0.0,0.0,0.0,0.0,0.0,0.0,0.0,0.0,0.0,0.0,0.0,0.0,0.0,0.0,0.0,0.0,0.0,0.0,0.0,0.0,0.0,0.0,0.0,0.0,0.0,0.0,0.0,0.0,0.0,0.0,0.0,0.0,0.0,0.0,0.0,0.0,0.0,0.0,0.0,0.0,0.0,-2.8479,-2.8516,0.0,0.0,0.0,0.0,0.0,0.0,0.0,0.0,0.0,0.0,0.0,0.0,0.0,0.0,0.0,0.0,0.0,0.0,0.0,0.0,0.0,0.0,0.0,-1.6108,-1.6349,-1.6349,-1.5658,-1.5199,0.0,0.0,0.0,0.0,0.0,0.0,0.0,-1.751,-1.7542,-1.765,-1.8854,-2.013,-2.1465,-2.291,-2.1937,-1.8887,-1.8738,0.0,0.0,0.0,0.0,0.0,0.0,0.0,0.0,0.0,0.0,0.0,0.0,0.0,0.0,0.0,0.0,0.0,0.0,0.0,0.0,0.0,0.0,0.0,0.0,0.0,0.0,0.0,0.0,0.0,0.0,0.0,0.0,0.0,0.0,0.0,0.0,0.0,0.0,0.0,0.0,0.0,0.0,0.0,0.0,0.0,0.0,0.0,0.0,0.0,0.0,0.0,0.0,0.0,0.0,0.0,0.0,0.0,0.0,0.0,0.0,0.0,0.0,0.0,-2.7592,-2.7667,-2.742,-2.7083,-2.7022,-2.7237,-2.8885,-3.0474,-3.1632,-2.886,0.0,0.0,0.0,0.0,0.0,0.0,0.0,0.0,0.0,0.0,0.0,0.0,0.0,0.0,0.0,0.0,0.0,0.0,0.0,0.0,0.0,-1.4965,-1.5376,-1.5376,-1.5269,-1.5199,-1.5199,0.0,0.0,0.0,0.0,0.0,-1.5552,-1.5552,-1.5793,-1.6275,-1.8714,-2.0754,-2.2353,-2.2955,-2.3018,-2.2559,-2.3371,-2.2996,-2.1671,0.0,0.0,0.0,0.0,0.0,0.0,0.0,0.0,0.0,0.0,0.0,0.0,0.0,0.0,0.0,0.0,0.0,0.0,0.0,0.0,0.0,0.0,0.0,0.0,0.0,0.0,0.0,0.0,0.0,0.0,0.0,0.0,0.0,0.0,0.0,0.0,0.0,0.0,0.0,0.0,0.0,-2.7918,-2.9082,0.0,0.0,0.0,0.0,0.0,0.0,0.0,0.0,0.0,0.0,0.0,0.0,0.0,-2.5232,-2.5126,-2.6834,-2.726,-2.6527,-2.841,-2.8727,-2.7657,-2.8288,-2.9049,-2.9707,-2.8553,0.0,-2.8034,-2.7209,0.0,0.0,0.0,0.0,0.0,0.0,0.0,0.0,0.0,0.0,0.0,0.0,0.0,0.0,0.0,0.0,0.0,0.0,0.0,0.0,0.0,-1.4361,-1.4846,-1.4846,-1.4838,-1.4582,-1.4116,-1.421,0.0,0.0,0.0,-1.4446,-1.4705,-1.5027,-1.5885,-1.7253,-1.9974,-2.2034,-2.3457,-2.5436,-2.6364,-2.637,-2.7227,-2.606,-2.3477,-2.3649,0.0,0.0,0.0,0.0,0.0,0.0,0.0,0.0,0.0,0.0,0.0,0.0,0.0,0.0,0.0,0.0,0.0,0.0,0.0,0.0,0.0,0.0,0.0,0.0,0.0,0.0,0.0,0.0,0.0,0.0,0.0,0.0,0.0,0.0,0.0,0.0,0.0,0.0,0.0,-2.6135,-2.7778,-2.8351,-2.8069,-2.6764,0.0,0.0,0.0,0.0,0.0,0.0,0.0,0.0,0.0,-2.3282,-2.3639,-2.4268,-2.5145,-2.6609,-2.7649,-2.8184,-2.9121,-2.9333,-2.8804,-2.9111,-2.8975,-2.8449,-2.7521,-2.6583,-2.5735,-2.6938,-2.6941,-2.6001,0.0,0.0,0.0,0.0,-2.0393,-2.1065,0.0,0.0,0.0,0.0,0.0,0.0,0.0,0.0,0.0,0.0,0.0,0.0,-1.3157,-1.4012,-1.4554,-1.4554,-1.4551,-1.4208,-1.3487,-1.3453,-1.3372,-1.3048,-1.3186,-1.3349,-1.3561,-1.4529,-1.6094,-1.8353,-2.0763,-2.265,-2.4044,-2.693,-2.8287,-2.8419,-2.9629,-2.8315,-2.5179,-2.5859,-2.4437,-2.1641,0.0,0.0,0.0,0.0,0.0,0.0,0.0,0.0,0.0,0.0,0.0,0.0,0.0,0.0,0.0,0.0,0.0,0.0,0.0,0.0,0.0,0.0,0.0,0.0,0.0,0.0,0.0,0.0,0.0,0.0,0.0,0.0,0.0,0.0,0.0,0.0,0.0,-2.7794,-2.8498,-2.8564,-2.8908,-2.7721,0.0,0.0,0.0,0.0,0.0,0.0,-2.3419,-2.341,-2.3051,-2.2237,-2.3134,-2.428,-2.5512,-2.6425,-2.7517,-2.8652,-2.8652,-2.8596,-2.8502,-2.8605,-2.7948,-2.6614,-2.6505,-2.5694,-2.4562,-2.613,-2.6182,-2.5184,-2.3494,-2.168,-1.9909,-1.8975,-1.9211,-2.0137,0.0,0.0,0.0,0.0,0.0,0.0,0.0,0.0,0.0,0.0,0.0,-1.2813,-1.2813,-1.383,-1.4492,-1.4492,-1.4496,-1.4382,-1.4062,-1.3534,-1.2946,-1.2385,-1.2103,-1.1849,-1.1567,-1.35,-1.5885,-1.8649,-2.0068,-2.1775,-2.3692,-2.5807,-2.6935,-2.7328,-2.982,-2.9634,-2.7327,-2.5994,-2.464,-2.3169,-2.0484,0.0,0.0,0.0,0.0,0.0,0.0,0.0,0.0,0.0,0.0,0.0,0.0,0.0,0.0,0.0,0.0,0.0,0.0,0.0,0.0,0.0,0.0,0.0,0.0,0.0,0.0,0.0,0.0,0.0,0.0,0.0,0.0,0.0,0.0,0.0,0.0,0.0,0.0,-3.0927,-3.2374,0.0,0.0,0.0,0.0,-2.1611,-2.1499,-2.2116,-2.3602,-2.3674,-2.4396,-2.5855,-2.6015,-2.6101,-2.6348,-2.6405,-2.6318,-2.6161,-2.6161,-2.5926,-2.5534,-2.6002,-2.5909,-2.5407,-2.5576,-2.5377,-2.4787,-2.3847,-2.3158,-2.2612,-2.1738,-2.1071,-2.0451,-1.9558,-1.983,-2.0491,0.0,0.0,0.0,0.0,0.0,0.0,0.0,0.0,-1.1597,-1.1697,-1.1753,-1.218,-1.318,-1.3622,-1.422,-1.5252,-1.5885,-1.5615,-1.4049,-1.4224,-1.3555,-1.173,-1.1973,-1.1996,-1.1619,-1.3246,-1.4983,-1.6765,-1.9807,-2.1805,-2.2937,-2.4598,-2.5481,-2.56,-2.6517,-2.7087,-2.738,-2.8751,-2.8093,-2.5994,-2.4437,-2.2195,0.0,0.0,0.0,0.0,0.0,0.0,0.0,0.0,0.0,0.0,0.0,0.0,0.0,0.0,0.0,0.0,0.0,0.0,0.0,0.0,0.0,0.0,0.0,0.0,0.0,0.0,0.0,0.0,0.0,0.0,0.0,0.0,0.0,0.0,0.0,0.0,0.0,-2.7446,-2.8351,0.0,-2.5036,-2.4995,-2.4754,-2.369,-2.4351,-2.4595,-2.4193,-2.4154,-2.3936,-2.3515,-2.3472,-2.4038,-2.5111,-2.4958,-2.5344,-2.6261,-2.6092,-2.591,-2.5786,-2.5918,-2.5371,-2.4223,-2.4059,-2.3301,-2.2125,-2.1314,-2.1759,-2.2855,-2.1626,-2.0895,-2.0362,-1.9215,-1.9529,-2.0558,0.0,0.0,0.0,0.0,0.0,0.0,0.0,0.0,-1.1207,-1.1114,-1.1027,-1.1447,-1.2691,-1.2992,-1.3591,-1.4697,-1.5358,-1.4993,-1.3342,-1.3467,-1.2693,-1.0719,-1.0993,-1.1404,-1.1807,-1.2889,-1.4352,-1.622,-1.8892,-2.0788,-2.1932,-2.3453,-2.4213,-2.4325,-2.473,-2.5562,-2.6848,-2.8486,-2.888,-2.8261,-2.6702,-2.4186,-2.116,0.0,0.0,0.0,0.0,0.0,0.0,0.0,0.0,0.0,0.0,0.0,0.0,0.0,0.0,0.0,0.0,0.0,0.0,0.0,0.0,0.0,0.0,0.0,0.0,0.0,0.0,0.0,0.0,0.0,0.0,0.0,0.0,0.0,0.0,-2.605,-2.7049,-2.5738,-2.6842,-2.6905,-2.4929,-2.5187,-2.5169,-2.4447,-2.5111,-2.5097,-2.4068,-2.4001,-2.3493,-2.2351,-2.2278,-2.275,-2.3738,-2.3537,-2.3885,-2.4779,-2.4618,-2.4456,-2.434,-2.434,-2.3678,-2.2447,-2.2339,-2.1521,-2.0214,-1.992,-2.0642,-2.1831,-2.0879,-2.037,-2.0023,-1.9108,-1.9382,-2.0149,0.0,0.0,0.0,0.0,0.0,0.0,0.0,-0.9799,-0.9796,-0.9503,-1.0108,-1.0736,-1.1244,-1.2049,-1.2595,-1.2825,-1.2841,-1.257,-1.1933,-1.12,-1.0379,-0.9377,-0.9204,-1.0005,-1.1924,-1.2389,-1.4071,-1.7078,-1.7381,-1.8575,-2.0688,-2.2249,-2.3137,-2.3559,-2.4658,-2.5466,-2.5874,-2.4997,-2.6655,-2.9536,-2.6744,-2.4986,-2.3847,0.0,0.0,0.0,0.0,0.0,0.0,0.0,0.0,0.0,0.0,0.0,0.0,0.0,0.0,0.0,0.0,0.0,0.0,0.0,0.0,0.0,0.0,0.0,0.0,0.0,0.0,0.0,0.0,0.0,0.0,0.0,0.0,0.0,-2.3271,-2.5856,-2.7367,-2.6384,-2.845,-2.867,-2.5455,-2.5618,-2.5251,-2.348,-2.334,-2.334,-2.334,-2.3307,-2.3153,-2.2859,-2.2908,-2.2699,-2.2405,-2.2405,-2.2124,-2.1635,-2.1614,-2.139,-2.1109,-2.1109,-2.0802,-2.0274,-2.0568,-2.0207,-1.9446,-1.9706,-1.9646,-1.9392,-1.943,-1.9424,-1.9424,-1.9424,-1.9424,-1.9377,0.0,0.0,0.0,0.0,0.0,0.0,-0.9593,-0.9423,-0.9254,-0.903,-0.9225,-0.9867,-1.1149,-1.1353,-1.1882,-1.3168,-1.3215,-1.2617,-1.1389,-1.1153,-1.0666,-0.9825,-0.9602,-0.994,-1.1017,-1.1875,-1.2946,-1.4208,-1.5463,-1.7135,-1.9112,-1.9537,-2.0472,-2.1783,-2.2117,-2.2981,-2.4224,-2.3978,-2.5144,-2.69,-2.5224,-2.3781,-2.2673,0.0,0.0,0.0,0.0,0.0,0.0,0.0,0.0,0.0,0.0,0.0,0.0,0.0,0.0,0.0,0.0,0.0,0.0,0.0,0.0,0.0,0.0,0.0,0.0,0.0,0.0,0.0,0.0,0.0,0.0,0.0,-2.1015,-2.2305,-2.3929,-2.5523,-2.6309,-2.5808,-2.6344,-2.6294,-2.5235,-2.5256,-2.4898,-2.3765,-2.3647,-2.3647,-2.3647,-2.2826,-2.2412,-2.2539,-2.2338,-2.2184,-2.2104,-2.2104,-2.2024,-2.1864,-2.1436,-2.1189,-2.1109,-2.1109,-2.1022,-2.0875,-2.0955,-2.0848,-2.0601,-2.0254,-2.0067,-1.9953,-1.9533,-1.9424,-1.9424,-1.9424,-1.9424,-1.9232,0.0,0.0,0.0,0.0,0.0,0.0,-0.8948,-0.8533,-0.8125,-0.7808,-0.7992,-0.859,-0.9703,-0.9828,-1.0241,-1.1328,-1.1382,-1.0875,-0.9725,-0.9503,-0.9457,-0.9469,-0.9338,-0.9706,-1.0484,-1.1149,-1.2008,-1.3155,-1.4125,-1.5535,-1.7404,-1.7404,-1.8314,-1.9998,-1.9998,-2.0949,-2.2529,-2.2529,-2.3069,-2.3862,-2.3165,-2.2658,-2.241,-2.2895,-2.2164,-2.09,-2.1354,-2.23,-2.3074,-2.1721,0.0,0.0,0.0,0.0,0.0,0.0,0.0,0.0,0.0,0.0,0.0,0.0,0.0,0.0,0.0,0.0,0.0,0.0,0.0,0.0,0.0,0.0,0.0,0.0,-2.1269,-2.2694,-2.4659,-2.532,-2.5653,-2.5738,-2.5698,-2.5631,-2.5464,-2.5224,-2.487,-2.4356,-2.4202,-2.4082,-2.3955,-2.3293,-2.2819,-2.2612,-2.2565,-2.2425,-2.2171,-2.2291,-2.2291,-2.2164,-2.1697,-2.1416,-2.1289,-2.1162,-2.0975,-2.0755,-2.1002,-2.0902,-2.0548,-2.0327,-2.016,-2.0007,0.0,0.0,0.0,0.0,-1.9424,-1.9232,0.0,0.0,0.0,0.0,0.0,0.0,-0.8127,-0.74,-0.6787,-0.6395,-0.6671,-0.7148,-0.7715,-0.7999,-0.8195,-0.8496,-0.8601,-0.826,-0.7428,-0.723,-0.7573,-0.842,-0.8803,-0.9418,-1.0287,-1.0443,-1.1355,-1.2997,-1.2997,-1.3905,-1.5594,-1.5594,-1.6565,-1.8186,-1.8186,-1.9094,-2.0519,-2.0716,-2.0786,-2.0849,-2.1046,-2.1644,-2.2543,-2.2755,-2.1811,-2.0442,-2.0579,-2.1636,-2.2793,-2.1878,0.0,0.0,0.0,0.0,0.0,0.0,0.0,0.0,0.0,0.0,0.0,0.0,0.0,0.0,0.0,0.0,0.0,0.0,0.0,0.0,0.0,0.0,0.0,0.0,-2.2692,-2.3928,-2.5358,-2.5337,-2.5384,-2.6016,-2.6083,-2.5992,-2.6037,-2.5484,-2.515,-2.5084,-2.4803,-2.4523,-2.4262,-2.4122,0.0,0.0,0.0,-2.2966,-2.2425,-2.2679,-2.2665,-2.2365,-2.2078,-2.1784,-2.1561,-2.1229,-2.0822,-2.0361,-2.0882,-2.0668,-1.996,-2.0154,-2.004,-1.9726,-1.9466,-1.9424,-1.9417,-1.9292,-1.937,-1.9272,0.0,0.0,0.0,0.0,0.0,0.0,-0.8176,-0.6972,-0.6133,-0.6416,-0.6039,-0.6239,-0.7629,-0.7214,-0.7331,-0.8545,-0.8476,-0.7674,-0.594,-0.6986,-0.7437,-0.6971,-0.8574,-0.9785,-1.0436,-1.0599,-1.0819,-1.1174,-1.1174,-1.2088,-1.3774,-1.3774,-1.4749,-1.6431,-1.6431,-1.656,-1.7017,-1.8378,-1.9024,-1.9158,-2.0519,-2.1225,-2.1506,-2.2517,-2.2655,-2.2446,-2.3133,-2.3941,-2.4571,-2.305,-2.4082,-2.5836,-2.5038,-2.5261,0.0,0.0,0.0,0.0,0.0,0.0,0.0,0.0,0.0,0.0,0.0,0.0,0.0,0.0,0.0,0.0,0.0,0.0,0.0,-2.2732,-2.3574,-2.4462,-2.5698,-2.5818,-2.5919,-2.6266,-2.6306,-2.6213,-2.6057,-2.5852,-2.5591,-2.5117,-2.4803,-2.4609,-2.4556,-2.3647,-2.316,-2.3233,-2.2819,-2.2539,-2.2418,-2.2472,-2.2358,-2.2064,-2.1842,0.0,-2.1196,-2.1136,-2.1049,-2.0942,-2.1056,-2.1015,-2.0822,-2.0408,-1.992,-1.9446,-1.945,-1.9424,-1.937,-1.8831,-1.8965,-1.9212,0.0,0.0,0.0,0.0,0.0,0.0,-0.8126,-0.7095,-0.6294,-0.617,-0.6015,-0.6311,-0.7342,-0.7051,-0.7162,-0.8083,-0.7251,-0.6423,-0.5739,-0.585,-0.582,-0.573,-0.6768,-0.792,-0.9201,-0.9338,-0.9779,-1.0721,-1.0721,-1.1178,-1.2022,-1.2022,-1.2935,-1.4619,-1.4619,-1.5074,-1.5978,-1.6824,-1.7211,-1.7275,-1.8122,-1.9024,-1.9979,-2.1416,-2.1983,-2.2086,-2.2652,-2.3642,-2.4485,-2.3634,-2.4687,-2.6243,-2.5613,-2.5565,-2.5252,0.0,0.0,0.0,0.0,0.0,0.0,0.0,0.0,0.0,0.0,0.0,0.0,0.0,0.0,-1.9673,-2.0702,0.0,-2.2472,-2.3961,-2.4569,-2.5164,-2.6046,-2.6172,-2.6226,-2.6373,-2.6386,-2.6333,-2.6186,-2.6046,-2.5772,-2.5331,-2.5024,-2.479,-2.4643,-2.4068,-2.3688,-2.3554,-2.3253,-2.2953,-2.2645,-2.2639,-2.2565,-2.2418,-2.2124,-2.183,-2.1543,-2.1396,-2.1249,-2.1109,-2.1109,-2.1109,-2.1062,-2.0474,-1.9887,-1.9424,-1.9424,-1.9424,-1.939,-1.9038,-1.9118,-1.9259,0.0,0.0,0.0,0.0,0.0,0.0,0.0,-0.7327,-0.6653,-0.5969,-0.6034,-0.6353,-0.7045,-0.6871,-0.6911,-0.7405,-0.6037,-0.5248,-0.5505,-0.4607,-0.4191,-0.4462,-0.4852,-0.5875,-0.7429,-0.7831,-0.8701,-1.018,-1.0518,-1.0721,-1.0721,-1.0721,-1.1439,-1.2804,-1.2804,-1.3582,-1.4879,-1.5265,-1.5399,-1.5399,-1.5784,-1.6754,-1.818,-1.9935,-2.0786,-2.1142,-2.1383,-2.234,-2.3401,-2.3337,-2.4464,-2.5814,-2.5408,-2.5436,-2.4911,-2.1708,-2.2131,0.0,0.0,0.0,0.0,0.0,0.0,0.0,0.0,-1.9058,-1.9232,-2.0194,-2.0535,-2.1109,-2.2579,-2.3093,-2.3721,-2.5037,-2.5444,-2.5785,-2.6313,-2.6386,-2.6413,-2.6466,-2.6426,-2.6386,-2.6386,-2.6179,-2.5919,-2.5618,-2.5331,-2.5037,-2.4736,-2.4669,-2.4422,-2.3955,-2.3828,-2.3534,-2.3115,-2.2988,-2.2901,-2.2772,-2.2532,-2.2238,-2.1891,-2.1728,-2.139,-2.1109,-2.1109,-2.1076,-2.0982,-2.0454,-1.992,-1.9446,-1.945,-1.9424,-1.9424,-1.9424,-1.9424,-1.9325,0.0,0.0,0.0,0.0,0.0,0.0,0.0,0.0,-0.6741,-0.6304,-0.5368,-0.5314,-0.6916,-0.6024,-0.5769,-0.688,-0.5974,-0.4907,-0.3769,-0.397,-0.3789,-0.3004,-0.436,-0.5284,-0.5694,-0.7231,-0.8097,-0.8299,-0.9911,-1.0721,-1.0721,-1.0721,-1.0784,-1.0979,-1.0979,-1.1111,-1.1372,-1.2935,-1.3582,-1.3713,-1.5269,-1.6043,-1.6366,-1.8116,-1.9737,-2.1109,-2.1149,-2.1283,-2.1402,-2.1402,-2.2943,-2.474,-2.4287,-2.5572,-2.6573,-2.3395,-2.2592,-2.2086,-1.8566,-1.7786,-1.8198,-1.939,-1.9846,-2.0307,0.0,-2.1971,-2.2358,-2.2559,-2.3153,-2.3848,-2.4302,-2.4636,-2.5057,-2.5822,-2.5885,-2.6019,-2.6339,-2.6386,-2.6486,-2.674,-2.6547,-2.6386,-2.6386,-2.636,-2.6219,-2.5932,-2.5631,-2.5337,-2.5044,-2.4783,-2.4609,-2.4543,-2.4042,-2.3741,-2.3667,-2.3202,-2.2732,-2.2465,-2.2432,-2.2131,-2.1661,-2.1635,-2.139,-2.1109,-2.1109,-2.0962,-2.0702,-2.0368,-2.004,-1.9726,-1.9466,-1.9424,-1.9424,-1.9424,-1.9424,-1.9325,0.0,0.0,0.0,0.0,0.0,0.0,0.0,0.0,0.0,-0.6785,-0.6226,-0.607,-0.6576,-0.6197,-0.6033,-0.6344,-0.5687,-0.4639,-0.3293,-0.3021,-0.2362,-0.1157,-0.1777,-0.2668,-0.3823,-0.4558,-0.5426,-0.6496,-0.8235,-0.9105,-0.9172,-1.0183,-1.0721,-1.0721,-1.0721,-1.0721,-1.0721,-1.1501,-1.1762,-1.196,-1.3713,-1.5009,-1.6108,-1.7859,-1.9517,-2.0855,-2.0855,-2.0855,0.0,-2.1049,-2.1765,-2.2574,-2.2813,-2.2999,-2.2981,-2.1658,-2.1047,-2.0557,-1.9405,-1.9372,-1.9867,-2.0828,-2.1557,-2.2205,-2.2873,-2.3347,-2.3694,-2.3861,-2.4329,-2.4857,-2.5317,-2.5504,-2.5725,-2.6139,-2.6206,-2.6253,-2.6373,-2.6386,-2.6373,-2.6326,-2.6059,-2.5945,-2.6119,-2.6293,-2.6126,-2.5491,-2.5651,-2.5571,-2.5104,-2.4963,-2.4816,-2.4643,-2.4235,-2.4022,-2.4022,-2.3427,-2.3073,-2.2939,-2.2592,-2.2205,-2.1797,-2.1695,-2.139,-2.1109,-2.1109,-2.0942,-2.0655,-2.0354,-2.006,-1.9773,-1.9479,-1.9424,-1.9424,-1.9424,-1.9424,-1.941,0.0,0.0,0.0,0.0,0.0,0.0,0.0,0.0,0.0,0.0,-0.7039,-0.6714,-0.6263,-0.6288,-0.6281,-0.6108,-0.5397,-0.4471,-0.3179,-0.2335,-0.1329,-0.0064,0.0,-0.0602,-0.1937,-0.2412,-0.3355,-0.4628,-0.6896,-0.803,-0.803,-0.9845,-1.0721,-1.0721,-1.0721,-1.0721,-1.0721,-1.124,-1.1439,-1.1567,-1.3325,-1.4749,-1.6102,-1.7716,-1.8967,-1.9801,-2.0305,-2.0388,-2.0307,-2.0274,-2.0481,-2.0782,-2.0962,-2.0655,-2.0201,-2.004,-1.9579,-1.9292,-2.0034,-2.0488,-2.0969,-2.1877,-2.2786,-2.3547,-2.3921,-2.4302,-2.4649,-2.4943,-2.517,-2.5478,-2.5985,-2.6079,-2.6146,-2.636,-2.6386,-2.6386,-2.6386,-2.6319,-2.6159,-2.5865,-2.5431,-2.5204,-2.542,-2.5838,-2.5952,-2.5478,-2.5685,-2.5651,-2.5224,-2.5044,-2.4857,-2.4643,-2.4356,-2.4162,-2.4082,-2.3581,-2.3287,-2.3193,-2.2752,-2.2345,-2.1977,-2.1603,-2.1309,-2.1109,-2.1109,-2.0989,-2.0775,-2.0474,-2.0187,-1.9887,-1.9599,-1.9497,-1.9424,-1.9424,-1.9424,-1.9424,0.0,0.0,0.0,0.0,0.0,0.0,0.0,0.0,0.0,0.0,0.0,0.0,0.0,-0.6003,-0.6101,-0.6279,-0.5339,-0.4269,-0.3162,-0.219,-0.1156,-0.0062,0.0,0.0,-0.0066,-0.1801,-0.2752,-0.2752,-0.6293,-0.803,-0.803,-0.9845,-1.0721,-1.0721,-1.0721,-1.0721,-1.0784,-1.2475,-1.3193,-1.3386,-1.5139,-1.5848,-1.6087,-1.753,-1.7763,-1.7505,-1.9218,-1.9646,-1.9279,-1.8375,-1.8898,-1.9693,-1.8858,-1.9352,-2.012,-1.9559,-1.8978,-1.8764,-1.992,-2.004,-2.0254,-2.1977,-2.3086,-2.3908,-2.4482,-2.5057,-2.5558,-2.5852,-2.6003,-2.6019,-2.6319,-2.6373,-2.638,-2.6386,-2.6386,-2.6386,-2.6386,-2.6146,-2.5859,-2.5558,-2.477,-2.4135,-2.3868,-2.487,-2.5765,-2.6306,-2.5838,-2.5518,-2.5504,-2.4957,-2.4649,-2.4636,-2.4356,-2.4068,-2.3788,-2.348,-2.318,-2.2879,-2.2859,-2.2545,-2.1964,-2.139,-2.1116,-2.1109,-2.1109,-2.1109,-2.1076,-2.0782,-2.0488,-2.0187,-1.99,-1.9619,-1.9424,-1.9424,-1.9424,-1.9424,0.0,0.0,0.0,0.0,0.0,0.0,0.0,0.0,0.0,0.0,0.0,0.0,0.0,0.0,0.0,0.0,-0.5983,-0.5381,-0.4261,-0.3406,-0.2356,-0.1116,-0.0377,0.0,0.0,-0.0595,-0.1465,-0.2685,-0.5093,-0.6898,-0.803,-0.9845,-1.0721,-1.0721,-1.0721,-1.1372,-1.2479,-1.3062,-1.4112,-1.5468,-1.7017,-1.7762,-1.8046,-1.9113,-1.9152,-1.8603,0.0,-1.803,-1.7903,-1.7555,-1.7716,-1.809,-1.8397,-1.835,-1.794,-1.6571,-1.6655,-1.735,-1.826,-1.8939,-2.0058,-2.2684,-2.3834,-2.4449,-2.4843,-2.5384,-2.5778,-2.5685,-2.5197,-2.4823,-2.4923,-2.4623,-2.4482,-2.4877,-2.5264,-2.5725,-2.6306,-2.5805,-2.5411,-2.5504,-2.4736,-2.4396,-2.4883,-2.493,-2.501,-2.5211,-2.5765,-2.5925,-2.5531,-2.5324,-2.5037,-2.4649,-2.4543,-2.4442,-2.4349,-2.3861,-2.3567,-2.3454,-2.2659,-2.2078,-2.1748,-2.1289,-2.1109,-2.1109,-2.1109,-2.1109,-2.1089,-2.0795,-2.0615,-2.0474,-1.9987,-1.974,-1.9659,-1.9659,-1.9533,-1.9424,0.0,0.0,0.0,0.0,0.0,0.0,0.0,0.0,0.0,0.0,0.0,0.0,0.0,0.0,0.0,0.0,0.0,-0.5817,-0.4784,-0.4231,-0.3404,-0.2169,-0.1449,-0.1084,-0.1094,-0.1235,-0.1881,-0.3117,-0.5008,-0.653,-0.7729,-1.0174,-1.1311,-1.1314,-1.1945,-1.2905,-1.4123,-1.4626,-1.5678,-1.7082,-1.833,-1.8945,-1.9144,-1.9358,-1.9085,0.0,-1.7306,-1.675,-1.6543,-1.6328,-1.6536,-1.6931,-1.7148,-1.7121,-1.6772,-1.5415,-1.6141,-1.7461,-1.7964,-1.9175,-2.0915,-2.3337,-2.4442,-2.497,-2.5064,-2.5618,-2.5999,-2.5598,-2.5064,-2.4543,-2.4122,-2.3741,-2.3574,-2.3848,-2.4295,-2.4957,-2.5939,-2.5411,-2.503,-2.5324,-2.4583,-2.4309,-2.4983,-2.4796,-2.4683,-2.479,-2.5491,-2.5712,-2.5224,-2.5197,-2.5077,-2.4803,-2.4796,-2.4696,-2.4482,-2.4115,-2.3821,-2.3601,-2.2612,-2.1991,-2.1762,-2.1403,-2.0836,-2.0039,-2.0757,-2.0667,-2.0095,-2.0628,-2.0768,-2.0573,-1.9572,-1.9492,-1.988,-1.9165,-1.9135,-1.9519,0.0,0.0,0.0,0.0,0.0,0.0,0.0,0.0,0.0,0.0,0.0,0.0,0.0,0.0,0.0,0.0,0.0,0.0,-0.4867,-0.4703,-0.4216,-0.3247,-0.3183,-0.3199,-0.3202,-0.3419,-0.3701,-0.3991,-0.5875,-0.6971,-0.7258,-1.0605,-1.2216,-1.2346,-1.4,-1.5008,-1.5564,-1.6909,-1.7711,-1.8197,-1.8952,-1.935,-1.9225,-1.8337,-1.7642,-1.7119,-1.6516,-1.5885,-1.5311,-1.477,-1.5364,-1.6199,-1.5331,-1.579,-1.6554,-1.5896,-1.7151,-1.8752,-1.8914,-2.0614,-2.2642,-2.3941,-2.4863,-2.5418,-2.5124,-2.5725,-2.6166,-2.5531,-2.5351,-2.495,-2.3788,-2.3567,-2.35,-2.3293,-2.3561,-2.4195,-2.5351,-2.5037,-2.4783,-2.5044,-2.4349,-2.3961,-2.4262,-2.4543,-2.481,-2.5064,-2.5117,-2.5017,-2.4723,-2.469,-2.4803,-2.507,-2.5064,-2.479,-2.4235,-2.4195,-2.3895,-2.332,-2.2712,-2.2265,-2.1977,-2.1748,-2.0373,-1.8379,-2.0292,-2.0026,-1.8385,-2.0305,-2.0949,-2.0564,-1.8769,-1.8921,-1.985,-1.7859,-1.8111,-1.9556,0.0,0.0,0.0,0.0,0.0,0.0,0.0,0.0,0.0,0.0,0.0,0.0,0.0,0.0,0.0,0.0,0.0,0.0,-0.6663,-0.662,-0.5895,-0.4377,-0.4235,-0.4206,-0.4215,-0.3555,-0.4247,-0.6412,-0.6214,-0.6811,-0.8163,-0.9074,-0.9909,-1.0619,-1.1287,-1.2779,-1.4889,-1.5448,-1.661,-1.8022,-1.8046,-1.831,-1.8617,-1.7722,-1.7333,-1.7092,-1.6233,-1.5705,-1.5404,-1.5471,-1.6273,-1.7034,-1.5698,-1.5654,-1.5658,-1.3504,-1.4572,-1.6705,-1.7599,-1.9709,-2.2094,-2.4017,-2.4863,-2.5117,-2.4816,-2.5264,-2.5384,-2.4142,-2.318,-2.2205,-2.1029,-2.0815,-2.1142,-2.2164,-2.332,-2.4429,-2.5378,-2.5384,-2.5237,-2.5097,-2.4883,-2.4943,-2.5458,-2.5578,-2.5471,-2.5104,-2.5685,-2.5925,-2.5638,-2.5411,-2.5224,-2.5084,-2.4863,-2.4676,-2.4529,-2.4095,-2.3694,-2.332,-2.2712,-2.2265,-2.1977,-2.1748,-2.1111,-2.038,-2.0853,-2.0833,-2.038,-2.0916,-2.1069,-2.078,-1.8842,-1.8339,-1.8398,-1.6572,-1.6009,-1.6095,0.0,0.0,0.0,0.0,0.0,0.0,0.0,0.0,0.0,0.0,0.0,0.0,0.0,0.0,0.0,0.0,0.0,0.0,0.0,-0.7884,-0.7474,-0.6518,-0.6588,-0.6684,-0.6672,-0.6244,-0.6791,-0.8471,-0.8035,-0.8393,-0.9424,-1.0191,-1.0875,-1.1428,-1.2339,-1.3717,-1.5372,-1.5346,-1.6163,0.0,0.0,-1.7094,-1.7448,-1.6814,-1.6573,-1.6506,-1.6005,-1.5972,-1.6168,-1.6011,-1.6209,-1.6355,-1.5315,-1.5596,-1.6026,-1.4209,-1.5939,-1.8556,-1.882,-2.0822,-2.31,-2.4453,-2.505,-2.5057,-2.4249,-2.4416,-2.4289,-2.2686,-2.1824,-2.1002,-1.9826,-2.0027,-2.0688,-2.1643,-2.3046,-2.4322,-2.5197,-2.5211,-2.5164,-2.5257,-2.5157,-2.5358,-2.6079,-2.6146,-2.6012,-2.5678,-2.5872,-2.5879,-2.5585,-2.5418,-2.5304,-2.5271,-2.4983,-2.471,-2.4449,-2.3995,-2.3621,-2.332,-2.2839,-2.2392,-2.1977,-2.1817,-2.1042,-1.985,-2.0737,-2.0578,-1.9787,-1.9903,-1.9941,-1.9661,-1.6999,-1.6435,-1.6934,-1.5052,-1.4673,-1.5077,0.0,0.0,0.0,0.0,0.0,0.0,0.0,0.0,0.0,0.0,0.0,0.0,0.0,0.0,0.0,0.0,0.0,0.0,0.0,0.0,-0.8851,-0.8742,-0.9199,-0.9439,-0.9439,-0.9577,-0.9801,-1.0119,-1.0196,-1.0298,-1.044,-1.1991,-1.2729,-1.2968,-1.449,-1.5418,-1.5839,-1.5571,-1.5798,-1.6253,-1.5698,-1.5738,-1.6019,0.0,-1.5738,-1.5785,-1.5858,-1.6406,-1.7016,-1.6082,-1.5688,-1.5383,-1.4821,-1.5662,-1.6853,-1.6367,-1.8867,-2.1641,-2.0923,-2.2652,-2.4696,-2.4957,-2.5244,-2.509,-2.3701,-2.3554,-2.3193,-2.137,-2.0929,-2.0541,-1.9452,-2.0174,-2.1096,-2.159,-2.2853,-2.4048,-2.485,-2.4877,-2.4957,-2.5351,-2.5244,-2.5471,-2.6306,-2.6319,-2.6306,-2.638,-2.5879,-2.5478,-2.5264,-2.5184,-2.5217,-2.5391,-2.515,-2.4756,-2.4209,-2.3915,-2.3621,-2.3327,-2.3013,-2.2572,-2.2044,-2.2004,-2.0747,-1.868,-2.0387,-2.0121,-1.8514,-1.8773,-1.8698,-1.8186,-1.4944,-1.4428,-1.531,-1.3337,-1.3576,-1.4769,0.0,0.0,0.0,0.0,0.0,0.0,0.0,0.0,0.0,0.0,-1.2444,-1.2916,0.0,0.0,0.0,0.0,0.0,0.0,0.0,0.0,0.0,-0.8518,-0.9572,-1.0218,-1.0218,-0.9648,-0.9806,-1.0646,-0.9888,-0.9487,-0.9527,-0.9838,-1.0399,-1.1226,-1.178,-1.254,-1.3414,-1.3574,-1.382,-1.4119,-1.4019,-1.4299,-1.4843,-1.5044,0.0,0.0,-1.6019,-1.6446,-1.651,-1.4849,-1.5493,-1.6863,-1.6054,-1.6212,-1.6696,-1.6838,-1.8749,-2.0941,-2.087,-2.2724,-2.4649,-2.4696,-2.4937,-2.4897,-2.3921,-2.3547,-2.2832,-2.0802,-2.0,-1.9459,-1.8771,-1.9399,-2.0521,-2.2024,-2.3113,-2.3908,-2.4302,-2.515,-2.5491,-2.4863,-2.5177,-2.5692,-2.6326,-2.5952,-2.5865,-2.6353,-2.6072,-2.5959,-2.6152,-2.5698,-2.5237,-2.4803,-2.4736,-2.4549,-2.4209,-2.3915,-2.3621,-2.3327,-2.3013,-2.2679,-2.2338,-2.2091,-2.1607,-2.099,-2.1042,-2.0923,-2.0578,-2.0613,-1.9807,-1.8314,-1.6242,-1.4749,-1.3513,-1.1732,-1.1181,-1.1361,0.0,0.0,0.0,0.0,0.0,0.0,0.0,-1.3631,-1.3867,-1.3751,-1.4239,-1.4489,-1.4122,-1.3639,-1.3416,0.0,0.0,0.0,0.0,0.0,0.0,0.0,-1.0916,-1.1306,-1.1492,-1.0929,-1.096,-1.1583,0.0,-1.0875,-1.0875,-1.0875,-1.1136,-1.1589,-1.1727,-1.2061,-1.2563,-1.2672,-1.2906,-1.3206,-1.348,-1.3953,-1.4569,0.0,0.0,0.0,-1.6112,-1.646,-1.6488,-1.5077,-1.5527,-1.6529,-1.547,-1.6611,-1.8378,-1.8367,-2.0203,-2.2305,-2.2151,-2.3509,-2.4863,-2.4863,-2.4857,-2.4456,-2.2959,-2.2271,-2.1356,-1.9285,-1.8631,-1.835,-1.807,-1.8871,-2.0047,-2.1503,-2.2752,-2.3748,-2.4342,-2.5044,-2.5398,-2.5124,-2.5337,-2.5625,-2.5905,-2.5678,-2.5631,-2.5912,-2.5665,-2.5692,-2.6139,-2.5605,-2.509,-2.4576,-2.4489,-2.4269,-2.3981,-2.3688,-2.3387,-2.3086,-2.2933,-2.2706,-2.2405,-2.2118,-2.1824,-2.1601,-2.1236,-2.0482,-1.9537,-1.9688,-1.8094,-1.5536,-1.4799,-1.3451,-1.1828,-1.0982,-1.0673,-1.0588,0.0,0.0,0.0,0.0,0.0,0.0,0.0,-1.4268,-1.4775,-1.5156,-1.5733,-1.5787,-1.4913,-1.4848,-1.4841,0.0,0.0,0.0,0.0,0.0,0.0,0.0,0.0,0.0,-1.2844,0.0,0.0,-1.2592,-1.2592,0.0,0.0,0.0,0.0,0.0,-1.2305,-1.2305,-1.2305,-1.2305,-1.2512,0.0,0.0,-1.39,0.0,0.0,0.0,0.0,0.0,-1.638,-1.6373,-1.5576,-1.5843,-1.6333,-1.5245,-1.7047,-1.9696,-1.9939,-2.1747,-2.3554,-2.3447,-2.4182,-2.4997,-2.5064,-2.4857,-2.4128,-2.2178,-2.1236,-2.0201,-1.819,-1.7675,-1.7622,-1.7756,-1.8551,-1.9599,-2.0895,-2.1931,-2.3013,-2.4275,-2.4596,-2.491,-2.5451,-2.5511,-2.5565,-2.5685,-2.5585,-2.5538,-2.5605,-2.5277,-2.5284,-2.5745,-2.5331,-2.4917,-2.4556,-2.4322,-2.4035,-2.3681,-2.3447,-2.3173,-2.2928,-2.2928,-2.2739,-2.2498,-2.2151,-2.1864,-2.1688,-2.1263,-1.9951,-1.8165,-1.8813,-1.6868,-1.3501,-1.3759,-1.2779,-1.1194,-1.0836,-1.07,-1.0653,0.0,0.0,0.0,0.0,0.0,0.0,0.0,-1.4394,-1.4728,-1.6317,-1.6269,-1.6346,-1.7021,-1.6114,-1.5407,0.0,0.0,0.0,0.0,0.0,0.0,0.0,0.0,0.0,0.0,0.0,0.0,-1.3564,-1.3564,0.0,0.0,0.0,0.0,0.0,0.0,-1.2305,-1.2305,-1.2305,0.0,0.0,0.0,0.0,0.0,0.0,0.0,0.0,0.0,-1.6119,-1.5868,-1.5718,-1.6649,-1.7744,-1.7285,-1.7582,-1.8534,-2.0754,-2.2185,-2.3129,-2.3587,-2.4195,-2.4743,-2.501,-2.4857,-2.4235,-2.2692,-2.1683,-2.0561,-1.8771,-1.7969,-1.7756,-1.8303,-1.8497,-1.9125,-2.0835,-2.0555,-2.0995,-2.35,-2.3641,-2.3988,-2.5351,-2.5511,-2.5718,-2.6259,-2.5825,-2.5625,-2.5892,-2.5398,-2.5104,-2.5157,-2.511,-2.4823,-2.4262,-2.4215,-2.3935,-2.3374,-2.334,-2.3173,-2.2928,-2.2928,-2.2846,-2.2806,-2.2238,-2.1971,-2.1911,-2.1356,-1.9951,-1.8226,-2.0097,-1.8653,-1.5307,-1.5554,-1.4503,-1.2701,-1.1253,-1.0633,-1.051,0.0,0.0,0.0,0.0,0.0,0.0,-1.4238,-1.4221,-1.4543,-1.5751,-1.624,-1.6602,-1.6953,-1.6981,-1.6807,-1.6271,0.0,0.0,0.0,0.0,0.0,0.0,0.0,0.0,0.0,0.0,-1.4618,-1.4593,-1.4593,0.0,0.0,0.0,0.0,0.0,0.0,-1.2305,-1.2305,-1.2305,0.0,0.0,0.0,0.0,0.0,0.0,0.0,0.0,0.0,0.0,-1.5789,-1.577,-1.6401,-1.7139,-1.6838,-1.7164,-1.8129,-2.0184,-2.163,-2.2645,-2.2893,-2.4035,-2.511,-2.487,-2.4462,-2.3681,-2.2011,-2.0955,-1.9867,-1.827,-1.7749,-1.7655,-1.7896,-1.7943,-1.829,-1.9359,-1.9386,-2.0013,-2.2138,-2.2639,-2.3394,-2.5057,-2.5411,-2.5605,-2.5838,-2.5491,-2.5157,-2.4917,-2.3539,-2.3312,-2.4469,-2.4556,-2.4442,-2.4209,-2.3681,-2.3287,-2.3046,-2.2699,-2.2545,-2.2592,-2.2418,-2.2425,-2.2572,-2.1991,-2.1789,-2.1704,-2.1289,-1.9243,-1.6485,-1.9762,-1.8143,-1.377,-1.5322,-1.4747,-1.2934,-1.1315,-1.0622,-1.0507,0.0,0.0,0.0,0.0,0.0,-1.3203,-1.4153,-1.4192,-1.4552,-1.583,-1.6161,-1.6502,-1.7019,-1.7389,-1.7408,-1.6941,-1.6658,0.0,0.0,0.0,0.0,0.0,0.0,0.0,0.0,0.0,-1.5523,-1.5614,-1.5614,-1.5119,0.0,0.0,-1.3346,-1.2703,0.0,0.0,0.0,0.0,0.0,0.0,0.0,0.0,0.0,0.0,0.0,0.0,0.0,0.0,0.0,0.0,0.0,-1.656,-1.644,-1.6767,-1.7528,-1.9219,-2.0815,-2.2084,-2.2352,-2.3875,-2.5284,-2.487,-2.4202,-2.322,-2.161,-2.0428,-1.9272,-1.7869,-1.7582,-1.7582,-1.7582,-1.7582,-1.7782,-1.839,-1.8664,-1.9379,-2.1119,-2.165,-2.2532,-2.4222,-2.4609,-2.4903,-2.5344,-2.5277,-2.4963,-2.4376,-2.2951,-2.2692,-2.3996,-2.3995,-2.3941,-2.3941,-2.324,-2.2819,-2.2732,-2.2238,-2.2084,-2.2291,-2.2171,-2.1879,-2.1416,-2.1588,-2.1336,-2.0695,-2.0965,-1.9144,-1.6172,-1.9674,-1.83,-1.419,-1.5429,-1.5031,-1.3552,-1.1435,-1.0527,-1.0385,0.0,0.0,0.0,0.0,0.0,0.0,-1.4608,-1.4414,-1.4884,-1.708,-1.623,-1.6084,-1.7812,-1.7213,-1.6882,-1.7344,-1.6604,0.0,0.0,0.0,0.0,0.0,0.0,0.0,0.0,0.0,-1.7092,-1.6602,-1.6602,-1.6105,-1.5163,-1.4171,-1.3709,-1.3637,0.0,0.0,0.0,0.0,0.0,0.0,0.0,0.0,0.0,0.0,0.0,0.0,0.0,0.0,0.0,0.0,0.0,0.0,0.0,-1.6513,-1.658,-1.807,-1.9746,-2.1309,-2.2184,-2.3721,-2.5084,-2.5077,-2.4195,-2.302,-2.1889,-2.0482,-1.9032,-1.7829,-1.7582,-1.7582,-1.7582,-1.7582,-1.7782,-1.839,-1.8497,-1.9005,-2.0481,-2.0688,-2.1243,-2.278,-2.2954,-2.3467,-2.4943,-2.5344,-2.5264,-2.4676,-2.4362,-2.4075,-2.3788,-2.3494,-2.3333,-2.3333,-2.3026,-2.2719,-2.2425,-2.2131,-2.1984,-2.1991,-2.2278,-2.1219,-1.913,-2.1117,-2.0709,-1.8662,-2.0339,-1.9944,-1.8214,-2.0285,-1.9869,-1.7919,-1.6445,-1.5714,-1.5042,-1.1709,-1.0307,-1.0014,0.0,0.0,0.0,0.0,0.0,0.0,0.0,-1.4016,-1.4465,-1.5478,-1.6016,-1.6492,-1.7048,-1.7389,-1.7549,-1.7393,-1.6855,0.0,0.0,0.0,0.0,0.0,0.0,0.0,0.0,0.0,-1.7736,-1.7579,-1.7579,-1.7079,-1.614,-1.5155,-1.4343,-1.3673,-1.2732,-1.2305,0.0,0.0,0.0,0.0,0.0,0.0,-1.5705,0.0,0.0,0.0,0.0,0.0,0.0,0.0,0.0,0.0,0.0,0.0,0.0,-1.6834,-1.823,-1.9766,-2.0441,-2.177,-2.2873,-2.2465,-2.1937,-2.1263,-2.0281,-1.945,-1.8544,-1.7742,-1.7582,-1.7582,-1.7582,-1.7582,-1.7782,-1.839,-1.849,-1.8931,-2.0194,-2.0895,-2.1889,-2.3307,-2.4369,-2.5084,-2.5351,-2.3836,-2.325,-2.4276,-2.2588,-2.2115,-2.339,-2.3173,-2.3106,-2.332,-2.2639,-2.2218,-2.2124,-2.1637,-2.149,-2.169,-2.1577,-2.049,-1.8713,-2.0559,-2.0239,-1.8334,-2.0255,-1.9951,-1.8287,-2.0292,-1.9931,-1.7925,-1.645,-1.58,-1.5251,-1.1881,-1.046,-1.0229,0.0,0.0,0.0,0.0,0.0,0.0,0.0,-1.3841,-1.4319,-1.4941,-1.5869,-1.6611,-1.6943,-1.7451,-1.7734,-1.7627,-1.7048,0.0,0.0,0.0,0.0,0.0,0.0,0.0,-1.8008,-1.8008,-1.8008,-1.8008,-1.813,-1.7835,-1.7104,-1.5972,-1.5,-1.4207,-1.2879,-1.2365,0.0,0.0,0.0,0.0,0.0,0.0,-1.5784,0.0,0.0,0.0,0.0,0.0,0.0,0.0,0.0,0.0,0.0,0.0,0.0,0.0,-1.7134,-1.829,-1.9219,-2.0621,-2.1704,-2.1229,-2.0728,-2.0174,-1.9578,-1.8738,-1.8043,-1.7662,-1.7762,-1.7856,-1.7622,-1.7769,-1.7976,-1.8123,-1.8531,-1.9038,-1.9653,-1.9963,-2.0648,-2.1746,-2.316,-2.423,-2.4782,-2.3674,-2.3264,-2.3989,-2.2505,-2.2046,-2.3084,-2.2859,-2.2786,-2.2979,-2.2331,-2.1931,-2.1824,-2.1349,-2.1203,-2.1383,-2.1309,-2.0232,-1.8443,-2.0391,-2.0123,-1.8214,-2.0216,-2.0387,0.0,-2.0572,-2.038,-1.9007,-1.6737,-1.5714,-1.5211,-1.1724,-1.0314,-1.012,0.0,0.0,0.0,0.0,0.0,0.0,0.0,-1.3841,-1.4387,-1.5215,-1.5811,-1.6457,-1.7246,-1.7393,-1.7568,-1.7939,0.0,0.0,0.0,0.0,0.0,0.0,0.0,0.0,-1.8008,-1.8008,-1.8008,-1.8008,-1.8364,-1.8354,-1.7983,-1.6518,-1.5621,-1.5128,-1.3237,-1.2553,0.0,0.0,0.0,0.0,0.0,0.0,0.0,0.0,0.0,0.0,0.0,0.0,0.0,0.0,0.0,0.0,0.0,0.0,0.0,0.0,0.0,0.0,0.0,-1.9993,-2.1266,-2.0929,-2.0241,-1.9573,-1.9299,-1.8377,0.0,-1.7635,-1.8096,-1.8317,-1.7643,-1.8089,-1.8295,-1.747,-1.8437,-1.9099,-1.8669,-1.8325,-1.8204,-1.8619,-2.0054,-2.17,-2.3456,-2.4449,-2.4669,-2.3834,-2.3754,-2.348,-2.2961,-2.2579,-2.2405,-2.2392,-2.2104,-2.1824,-2.1621,-2.1256,-2.1032,-2.0886,-2.1376,-2.0284,-1.7994,-2.0469,-2.0277,-1.8214,-2.0216,-2.1109,-2.1109,-2.1109,-2.1032,-2.053,-1.7058,-1.5511,-1.4863,-1.1351,-0.9906,-0.9836,0.0,0.0,0.0,0.0,0.0,0.0,0.0,0.0,0.0,0.0,-1.5654,-1.6629,-1.6833,-1.7471,-1.7773,0.0,0.0,0.0,0.0,0.0,0.0,0.0,0.0,0.0,-1.8008,-1.8008,-1.8008,-1.8008,-1.8105,-1.8105,-1.7974,-1.6919,-1.5982,-1.5163,-1.3918,-1.3262,0.0,0.0,0.0,0.0,0.0,0.0,0.0,0.0,0.0,0.0,-1.5784,-1.5784,0.0,0.0,0.0,0.0,0.0,0.0,0.0,0.0,-1.648,-1.678,-1.7128,0.0,-1.8497,-1.843,-1.8257,-1.8083,0.0,-1.7782,-1.7716,-1.8183,-1.839,-1.8098,-1.6815,-1.7999,-1.8262,-1.5417,-1.6493,-1.7326,-1.6192,-1.8249,-1.9449,-1.8347,-2.1722,-2.3516,-2.2128,-2.3483,-2.4229,-2.3801,-2.3561,-2.3267,-2.2954,-2.2579,-2.2318,-2.2091,-2.1804,-2.1688,-2.1614,-2.1256,-2.0409,-1.8979,-2.048,-1.9343,-1.6,-1.9594,-2.0084,-1.8214,-2.0216,-2.1109,-2.1109,-2.1109,-2.0263,-1.871,-1.655,-1.4818,-1.3269,-1.1051,-1.0127,-0.9933,0.0,0.0,0.0,0.0,0.0,0.0,0.0,0.0,0.0,0.0,0.0,-1.6775,-1.7012,-1.7617,0.0,0.0,0.0,0.0,0.0,0.0,0.0,0.0,0.0,-1.8008,-1.8008,-1.8008,-1.8008,-1.8008,-1.8169,-1.8159,-1.7983,-1.6901,-1.6067,-1.5347,-1.417,-1.3563,0.0,0.0,0.0,0.0,-1.5008,0.0,0.0,0.0,0.0,0.0,-1.5785,-1.5784,0.0,-1.5784,-1.5784,-1.5811,0.0,0.0,0.0,0.0,-1.648,-1.6734,-1.6874,-1.7241,-1.7649,-1.7929,-1.7789,-1.7655,-1.7936,-1.7782,-1.7756,-1.8364,-1.849,-1.8027,-1.6584,-1.7275,-1.7422,-1.5456,-1.5583,-1.5867,-1.5551,-1.7212,-1.8268,-1.7783,-2.0,-2.1535,-2.1438,-2.3062,-2.4082,-2.3794,-2.3494,-2.3133,-2.2686,-2.2378,-2.2084,-2.1797,-2.1503,-2.1349,-2.1349,-2.1189,-2.0181,-1.8307,-2.0187,-1.9506,-1.6725,-1.9732,-2.0482,-1.9499,-1.9668,-2.0207,-2.0826,-1.9921,-1.9353,-1.8939,-1.638,-1.4777,-1.3562,-1.1017,-1.0015,-0.9883,0.0,0.0,0.0,0.0,0.0,0.0,0.0,0.0,0.0,0.0,0.0,0.0,0.0,0.0,0.0,0.0,0.0,0.0,0.0,0.0,0.0,0.0,-1.8008,-1.8008,-1.8008,-1.8008,-1.7978,-1.791,-1.8295,-1.8286,-1.7896,-1.6816,-1.6013,-1.5399,-1.4132,-1.3626,0.0,0.0,-1.4489,-1.5075,-1.5075,0.0,0.0,0.0,0.0,0.0,0.0,0.0,0.0,-1.5784,-1.5784,-1.5791,-1.5879,0.0,0.0,0.0,0.0,0.0,-1.7112,-1.7414,-1.7729,-1.8337,-1.8036,-1.7682,-1.8062,-1.7706,-1.7456,-1.8131,-1.8299,-1.7832,-1.6407,-1.6702,-1.6854,-1.5858,-1.5141,-1.507,-1.5958,-1.6462,-1.6927,-1.7232,-1.8047,-1.9343,-2.1165,-2.3062,-2.4035,-2.3788,-2.3454,-2.3013,-2.2445,-2.2144,-2.185,-2.1628,-2.1263,-2.1109,-2.1109,-2.1109,-2.0181,-1.8307,-2.0187,-2.0111,-1.8375,-2.0263,-2.1109,-2.1012,-1.9274,-1.9315,-2.0566,-1.8726,-1.8566,-1.9085,-1.6161,-1.4664,-1.3826,-1.0891,-0.9822,-0.9822,0.0,0.0,0.0,0.0,0.0,0.0,0.0,0.0,0.0,0.0,0.0,0.0,0.0,0.0,0.0,0.0,0.0,0.0,0.0,0.0,0.0,-1.8008,-1.8008,-1.8008,-1.8008,-1.8008,-1.7832,-1.748,-1.79,-1.7891,-1.749,-1.7087,-1.6108,-1.4742,-1.3957,-1.374,-1.4041,-1.4329,-1.479,-1.5331,-1.5331,0.0,0.0,0.0,0.0,0.0,0.0,0.0,0.0,-1.5784,-1.5784,-1.5872,-1.6126,0.0,0.0,0.0,0.0,0.0,-1.7052,-1.7414,-1.7729,-1.8337,-1.8036,-1.741,-1.6802,-1.6066,-1.5933,-1.7144,-1.7325,-1.6835,-1.5596,-1.8111,-1.8717,-1.3668,-1.432,-1.5841,-1.6691,-1.8586,-1.9249,-1.7783,-2.1084,-2.2813,-2.1113,-2.2737,-2.3814,-2.3774,-2.3253,-2.2786,-2.2438,-2.2144,-2.185,-2.1628,-2.1263,-2.1109,-2.1109,-2.1109,-2.0181,-1.8307,-2.0187,-2.0111,-1.8375,-2.0263,-2.1109,-2.1089,-2.0562,-2.0442,-2.0648,-2.0057,-1.8198,-1.5769,-1.5186,-1.3182,-1.0511,-1.0008,-0.9822,-0.9822,0.0,0.0,0.0,0.0,0.0,0.0,0.0,0.0,0.0,0.0,0.0,0.0,0.0,0.0,0.0,0.0,0.0,0.0,0.0,0.0,-1.8217,-1.8018,-1.8223,-1.8208,-1.8018,-1.7793,-1.7686,-1.7715,-1.7144,-1.7258,-1.8042,-1.7222,-1.6252,-1.5149,-1.4427,-1.4153,-1.4342,-1.4636,-1.501,-1.5398,0.0,0.0,0.0,0.0,0.0,0.0,0.0,0.0,0.0,0.0,-1.5784,-1.5852,-1.5985,0.0,0.0,0.0,0.0,0.0,-1.7038,-1.73,-1.7661,-1.8691,-1.851,-1.8139,-1.8384,-1.701,-1.5998,-1.7155,-1.6216,-1.4844,-1.4104,-1.6124,-1.7224,-1.5246,-1.6623,-1.8106,-1.8564,-1.7697,-1.7576,-1.9017,-2.0244,-2.0957,-2.0882,-2.2659,-2.3634,-2.3307,-2.2873,-2.2425,-2.1977,-2.1824,-2.1617,-2.1323,-2.1182,-2.1109,-2.1109,-2.1109,-2.0181,-1.8307,-2.0039,-1.9886,-1.8173,-2.0037,-2.0875,-2.0786,-1.9578,-1.9103,-1.9068,-1.7643,-1.617,-1.4691,-1.3848,-1.2531,-1.102,-1.0119,-0.9822,-0.9822,0.0,0.0,0.0,0.0,0.0,0.0,0.0,0.0,0.0,0.0,0.0,0.0,0.0,0.0,0.0,0.0,0.0,0.0,0.0,0.0,-1.8412,-1.8027,-1.8383,-1.8403,-1.8018,-1.7485,-1.7317,-1.7494,-1.6383,-1.6667,-1.8274,-1.7308,-1.6492,-1.5781,-1.4919,-1.4556,-1.4643,-1.4937,-1.5237,-1.5498,0.0,0.0,0.0,0.0,0.0,0.0,0.0,0.0,0.0,0.0,0.0,0.0,0.0,0.0,0.0,-1.6186,-1.6226,-1.6299,-1.6938,-1.7099,-1.7296,-1.8289,-1.8147,-1.8205,-1.9479,-1.7337,-1.5421,-1.6937,-1.5186,-1.3294,-1.3067,-1.3925,-1.518,-1.6669,-1.8099,-1.918,-1.9439,-1.6833,-1.6145,-1.9545,-1.9211,-1.9294,-2.0731,-2.26,-2.344,-2.2968,-2.2585,-2.2164,-2.1648,-2.1614,-2.148,-2.1122,-2.1109,-2.1109,-2.1109,-2.1109,-2.0409,-1.8973,-2.0129,-1.9924,-1.8582,-1.9989,-2.0575,-2.048,-1.8851,-1.8016,-1.7651,-1.5757,-1.4619,-1.3944,-1.2693,-1.1976,-1.1499,-1.024,-0.9822,-0.9822,0.0,0.0,0.0,0.0,0.0,0.0,0.0,0.0,0.0,0.0,0.0,0.0,0.0,0.0,0.0,0.0,0.0,0.0,0.0,0.0,-1.8412,-1.8027,-1.8383,-1.8403,-1.8018,-1.7111,-1.6462,-1.605,-1.5759,-1.6246,-1.7379,-1.7317,-1.6908,-1.6229,-1.5009,-1.4669,-1.4995,-1.5244,-1.5531,-1.5751,-1.5751,0.0,0.0,0.0,0.0,0.0,0.0,0.0,0.0,0.0,0.0,0.0,0.0,0.0,-1.5885,-1.6186,-1.6079,-1.5992,-1.658,-1.674,-1.6583,-1.6043,-1.5916,-1.6357,-1.8196,-1.5069,-1.266,-1.559,-1.4468,-1.2989,-1.3206,-1.3255,-1.3906,-1.5838,-1.6537,-1.7054,-1.7739,-1.7703,-1.7772,-1.8249,-1.9837,-2.0921,-2.091,-2.2351,-2.322,-2.2886,-2.2585,-2.2164,-2.1648,-2.1614,-2.148,-2.1122,-2.1109,-2.1109,-2.1109,-2.1109,-2.1032,-2.0879,-2.0739,-2.06,-2.0504,-2.032,-2.0267,-2.0187,-1.9814,-1.8828,-1.7415,-1.6997,-1.5053,-1.2333,-1.2273,-1.1318,-0.994,-0.9822,-0.9822,-0.9822,0.0,0.0,0.0,0.0,0.0,0.0,0.0,0.0,0.0,0.0,0.0,0.0,0.0,0.0,0.0,0.0,0.0,0.0,0.0,-1.6661,-1.6697,-1.628,-1.6625,-1.6688,-1.6271,-1.6572,-1.6568,-1.6291,-1.7428,-1.7743,-1.7302,-1.7614,-1.7458,-1.684,-1.5233,-1.4583,-1.4716,-1.5197,-1.5464,-1.5578,-1.5711,-1.5784,0.0,0.0,0.0,0.0,0.0,0.0,0.0,0.0,-1.5784,-1.5784,-1.5784,-1.5784,-1.5655,-1.4973,-1.4737,-1.4527,-1.425,-1.4196,-1.4356,-1.4767,-1.3907,-1.3623,-1.6097,-1.4282,-1.2489,-1.4157,-1.279,-1.1691,-1.3071,-1.3651,-1.4562,-1.6654,-1.6267,-1.6257,-1.7857,-1.5892,-1.525,-1.7945,-1.7772,-1.7804,-1.8808,-1.9357,-1.9467,-1.8988,-1.9808,-2.0098,-1.972,-2.0682,-2.1223,-2.1109,-2.1109,-2.1109,-2.1109,-2.1109,-2.1109,-2.1109,-2.0815,-2.0581,-2.0394,-2.0287,-1.957,-1.8468,-1.8369,-1.6803,-1.4416,-1.4141,-1.2689,-1.0721,-1.0721,-1.0361,-0.9822,-0.9822,-0.9822,-0.9822,0.0,0.0,0.0,0.0,0.0,0.0,0.0,0.0,0.0,0.0,0.0,0.0,0.0,0.0,0.0,0.0,0.0,0.0,-1.5685,-1.5746,-1.5607,-1.5215,-1.5574,-1.5503,-1.4913,-1.5807,-1.616,-1.5905,-1.7946,-1.8458,-1.7516,-1.7846,-1.7622,-1.6899,-1.5219,-1.4522,-1.4563,-1.515,-1.5398,-1.5424,-1.5712,-1.5784,0.0,0.0,0.0,0.0,0.0,0.0,0.0,0.0,-1.5784,-1.5784,-1.5784,-1.5534,-1.5045,-1.4166,-1.3642,-1.3237,-1.2663,-1.2555,-1.2795,-1.3199,-1.2206,-1.1658,-1.3466,-1.274,-1.2127,-1.3478,-1.2096,-1.1054,-1.2286,-1.2956,-1.3782,-1.5215,-1.4544,-1.4431,-1.5994,-1.3777,-1.303,-1.5869,-1.5453,-1.5413,-1.6573,-1.7062,-1.7128,-1.6616,-1.7575,-1.8055,-1.7678,-1.8832,-1.9483,-1.9483,-1.9483,-1.9737,-2.0259,-2.0175,-2.0452,-2.0969,-2.0675,-2.0428,-2.0167,-2.004,-1.8986,-1.7286,-1.7286,-1.5479,-1.2451,-1.2268,-1.1257,-0.9822,-0.9822,-0.9822,-0.9822,-0.9822,-0.9822,-0.9822,0.0,0.0,0.0,0.0,0.0,0.0,0.0,0.0,0.0,0.0,0.0,0.0,0.0,0.0,0.0,0.0,0.0,0.0,-1.6567,-1.6062,-1.5607,-1.518,-1.5574,-1.5258,-1.4201,-1.4771,-1.4909,-1.4584,-1.687,-1.7971,-1.7971,-1.7971,-1.7367,-1.6259,-1.5059,-1.4522,-1.4556,-1.5144,-1.5398,-1.5418,-1.5705,-1.5778,-1.5784,0.0,0.0,0.0,0.0,0.0,0.0,0.0,-1.5784,-1.5784,-1.5784,-1.4949,-1.3878,-1.3884,-1.3079,-1.2169,-1.2174,-1.2283,-1.2143,-1.1116,-1.0887,-1.0783,-1.0377,-1.028,-1.1066,-1.3615,-1.2698,-1.1297,-1.0934,-1.0884,-1.0884,-1.088,-1.1199,-1.1447,-1.1599,-1.1742,-1.1779,-1.164,-1.3393,-1.4567,-1.4378,-1.5928,-1.6818,-1.6601,-1.644,-1.6217,-1.5864,-1.5913,-1.5913,-1.5913,-1.5913,-1.6754,-1.8442,-1.8191,-1.895,-2.0668,-2.0306,-2.0167,-2.0147,-1.9633,-1.8525,-1.6968,-1.6968,-1.5123,-1.2157,-1.2157,-1.1257,-0.9822,-0.9822,-0.9822,-0.9822,-0.9822,-0.9822,-0.9822,0.0,0.0,0.0,0.0,0.0,0.0,0.0,0.0,0.0,0.0,0.0,0.0,0.0,0.0,0.0,0.0,0.0,0.0,-1.3658,-1.3426,-1.3294,-1.3164,-1.3502,-1.3523,-1.3234,-1.3972,-1.4565,-1.4861,-1.6579,-1.7154,-1.6649,-1.6769,-1.6477,-1.5902,-1.6159,-1.5482,-1.4347,-1.6069,-1.6168,-1.5117,-1.5404,-1.5645,-1.5784,0.0,0.0,0.0,0.0,0.0,0.0,0.0,0.0,0.0,-1.5784,-1.4986,-1.3889,-1.3063,-1.1887,-1.0654,-1.0069,-0.9765,-0.9705,-0.9841,-0.9867,-0.9885,-0.9907,-1.0124,-1.0654,-1.1841,-1.1555,-1.1019,-1.0822,-1.1046,-1.1192,-1.0914,-1.1287,-1.1603,-1.1748,-1.1718,-1.1704,-1.1762,-1.2218,-1.2474,-1.231,-1.2696,-1.2799,-1.2632,-1.3577,-1.4164,-1.4106,-1.5204,-1.5913,-1.5913,-1.5913,-1.6095,-1.6509,-1.644,-1.6642,-1.7044,-1.6669,-1.7164,-1.8251,-1.9259,-1.7446,-1.3701,-1.4837,-1.3467,-1.0539,-1.0539,-1.024,-0.9822,-0.9822,-0.9822,-0.9822,-0.9822,-0.9822,-0.9822,0.0,0.0,0.0,0.0,0.0,0.0,0.0,0.0,0.0,0.0,0.0,0.0,0.0,0.0,0.0,0.0,0.0,0.0,0.0,-1.3375,-1.2991,-1.3266,-1.2972,-1.2898,-1.31,-1.3748,-1.4202,-1.4436,-1.5872,-1.6309,-1.5801,-1.5876,-1.5597,-1.5075,-1.5618,-1.5276,-1.4338,-1.5687,-1.5688,-1.4823,-1.5231,-1.5504,-1.5671,0.0,0.0,0.0,0.0,0.0,0.0,0.0,0.0,0.0,-1.5045,-1.4375,-1.3323,-1.1948,-1.1071,-1.0337,-0.9299,-0.8889,-0.8975,-0.9642,-0.9686,-0.9635,-0.9934,-1.0287,-1.0714,-1.1307,-1.1314,-1.1168,-1.1016,-1.1158,-1.1263,-1.1145,-1.1352,-1.1579,-1.1728,-1.1674,-1.163,-1.1653,-1.1633,-1.1535,-1.1321,-1.1216,-1.1104,-1.089,-1.1725,-1.2285,-1.2285,-1.3259,-1.3844,-1.3844,-1.3765,-1.4373,-1.5585,-1.478,-1.5008,-1.623,-1.5266,-1.5037,-1.5392,-1.7024,-1.5682,-1.2217,-1.2573,-1.1615,-0.9822,-0.9822,-0.9822,-0.9822,-0.9822,-0.9822,-0.9822,-0.9822,-0.9822,-0.9822,0.0,0.0,0.0,0.0,0.0,0.0,0.0,0.0,0.0,0.0,0.0,0.0,0.0,0.0,0.0,0.0,0.0,0.0,0.0,0.0,-1.4096,-1.4727,-1.3544,-1.3146,-1.3666,-1.3961,-1.3968,-1.368,-1.4925,-1.5416,-1.5137,-1.5137,-1.4775,-1.4128,-1.4318,-1.4424,-1.4522,-1.4646,-1.4603,-1.4563,-1.507,-1.5311,-1.5384,-1.5651,0.0,0.0,0.0,0.0,0.0,0.0,0.0,0.0,-1.3728,-1.3177,-1.223,-1.0687,-1.0547,-1.065,-0.9532,-0.921,-0.9402,-1.0212,-1.0144,-0.9958,-1.0321,-1.0697,-1.1052,-1.166,-1.1667,-1.1541,-1.1413,-1.1267,-1.1212,-1.1365,-1.1392,-1.1443,-1.1599,-1.1606,-1.1548,-1.1406,-1.1501,-1.1463,-1.1172,-1.1141,-1.1084,-1.087,-1.0799,-1.0721,-1.0721,-1.0721,-1.0714,-1.07,-1.0565,-1.1948,-1.4959,-1.3159,-1.369,-1.6669,-1.4963,-1.3374,-1.1987,-1.3811,-1.3706,-1.2093,-1.0482,-0.9822,-0.9819,-0.9805,-0.9802,-0.9798,-0.9785,-0.9781,-0.9781,-0.9781,-0.9788,-0.9802,0.0,0.0,0.0,0.0,0.0,0.0,0.0,0.0,0.0,0.0,0.0,0.0,0.0,0.0,0.0,0.0,0.0,0.0,0.0,0.0,-1.4711,-1.4366,-1.3734,-1.3686,-1.4272,-1.4168,-1.4168,-1.4329,-1.4409,-1.4296,-1.396,-1.396,-1.4123,-1.4479,-1.5807,-1.5691,-1.4559,-1.5598,-1.5476,-1.4466,-1.4409,-1.4643,-1.5109,-1.5169,-1.515,0.0,0.0,0.0,0.0,0.0,0.0,0.0,-1.2334,-1.1628,-1.07,-1.0454,-0.9817,-0.9229,-0.9332,-0.9161,-0.914,-0.9802,-1.0073,-1.0385,-1.1155,-1.1219,-1.1155,-1.128,-1.1284,-1.1287,-1.1375,-1.1267,-1.1212,-1.1365,-1.1392,-1.1443,-1.1599,-1.1514,-1.1426,-1.1396,-1.1314,-1.1189,-1.1012,-1.0927,-1.0931,-1.0778,-1.0741,-1.0721,-1.0721,-1.0721,-1.0666,-1.0544,-1.051,-1.0696,-1.1198,-1.0758,-1.0778,-1.1296,-1.0848,-1.0414,-1.012,-1.3209,-1.3706,-1.2093,-1.0482,-0.9822,-0.9812,-0.97,-0.9656,-0.9642,-0.952,-0.9476,-0.9476,-0.9476,-0.9551,-0.9656,0.0,0.0,0.0,0.0,0.0,0.0,0.0,0.0,0.0,0.0,0.0,0.0,0.0,0.0,0.0,0.0,0.0,0.0,0.0,0.0,-1.5438,-1.4448,-1.4053,-1.4001,-1.4309,-1.4162,-1.4095,-1.4059,-1.3948,-1.3753,-1.36,-1.346,-1.3748,-1.4365,-1.5226,-1.5119,-1.4345,-1.4888,-1.4622,-1.3908,-1.4035,-1.4269,-1.462,-1.4901,-1.5008,-1.5048,-1.5291,0.0,0.0,0.0,0.0,0.0,0.0,0.0,-1.0264,-0.9474,-0.9514,-0.9742,-0.9307,-0.9215,-0.9418,-1.0086,-1.048,-1.0809,-1.1206,-1.1229,-1.1231,-1.1231,-1.1219,-1.1274,-1.128,-1.1162,-1.1107,-1.1257,-1.1223,-1.1257,-1.1477,-1.1443,-1.1338,-1.1196,-1.1233,-1.1158,-1.0867,-1.084,-1.0816,-1.0731,-1.0721,-1.0687,-1.0616,-1.0612,-1.0541,-1.0395,-1.0317,-1.058,-1.1155,-1.0271,-1.0116,-1.0713,-0.988,-0.9496,-0.9555,-1.1355,-1.1778,-1.102,-1.0179,-0.9822,-0.9812,-0.9666,-0.9608,-0.9595,-0.9442,-0.9381,-0.9381,-0.9381,-0.9432,-0.95,0.0,0.0,0.0,0.0,0.0,0.0,0.0,0.0,0.0,0.0,0.0,0.0,0.0,0.0,0.0,0.0,0.0,0.0,0.0,0.0,0.0,-1.4656,-1.4233,-1.4055,-1.4162,-1.4115,-1.3988,-1.3753,-1.3653,-1.383,-1.4261,-1.3946,-1.4131,-1.4763,-1.4598,-1.4375,-1.4062,-1.3661,-1.334,-1.3247,-1.3681,-1.3915,-1.4062,-1.4549,-1.4807,-1.4894,-1.5144,-1.4812,-1.4179,-1.3637,0.0,0.0,0.0,0.0,-0.9805,-0.8368,-0.9214,-1.0359,-0.9142,-0.9225,-0.9795,-1.0568,-1.0904,-1.105,-1.1063,-1.1114,-1.1237,-1.1196,-1.128,-1.1304,-1.1155,-1.1029,-1.0995,-1.1138,-1.1043,-1.1053,-1.1348,-1.1369,-1.125,-1.0914,-1.1165,-1.1158,-1.0758,-1.0766,-1.0789,-1.0727,-1.0721,-1.0653,-1.05,-1.049,-1.0415,-1.0246,-1.0117,-1.0638,-1.1918,-1.0385,-1.0222,-1.1487,-1.0001,-0.9384,-0.9534,-0.9557,-0.9663,-0.9819,-0.9768,-0.9758,-0.9771,-0.9602,-0.953,-0.9517,-0.9364,-0.9306,-0.9306,-0.9306,-0.932,-0.9344,0.0,0.0,0.0,0.0,0.0,0.0,0.0,0.0,0.0,0.0,0.0,0.0,0.0,0.0,0.0,0.0,0.0,0.0,0.0,0.0,0.0,-1.4632,-1.3992,-1.39,-1.4449,-1.4215,-1.4188,-1.4359,-1.3853,-1.4783,-1.704,-1.6365,-1.6583,-1.7515,-1.659,-1.5389,-1.4035,-1.3253,-1.3038,-1.3193,-1.3038,-1.3233,-1.3666,-1.3746,-1.3981,-1.4242,-1.4529,-1.3214,-1.1389,-1.1558,-1.0041,0.0,0.0,0.0,-0.7988,-0.7859,-0.8222,-0.8667,-0.8555,-0.9066,-0.9822,-1.0631,-1.0748,-1.0748,-1.1385,-1.1341,-1.1199,-1.1335,-1.127,-1.1151,-1.1002,-1.0894,-1.0995,-1.1138,-1.1043,-1.1053,-1.1348,-1.1277,-1.1131,-1.09,-1.0917,-1.0931,-1.0741,-1.0741,-1.0744,-1.0721,-1.0721,-1.0653,-1.05,-1.049,-1.0365,-1.0027,-0.9997,-0.9988,-0.9965,-0.9748,-0.959,-0.9546,-0.9178,-0.9072,-0.9275,-0.9351,-0.9561,-0.9805,-0.9551,-0.9513,-0.9615,-0.933,-0.9272,-0.9258,-0.9055,-0.8942,-0.8942,-0.8942,-0.9076,-0.9241,0.0,0.0,0.0,0.0,0.0,0.0,0.0,0.0,0.0,0.0,0.0,0.0,0.0,0.0,0.0,0.0,0.0,0.0,0.0,0.0,0.0,-1.5503,-1.4297,-1.3646,-1.3788,-1.378,-1.386,-1.3986,-1.3567,-1.5495,-1.9619,-1.9089,-1.8489,-1.785,-1.8481,-1.6835,-1.3628,-1.4339,-1.3906,-1.2705,-1.277,-1.2945,-1.316,0.0,0.0,-1.3874,-1.4175,-1.3077,-1.1516,-1.1347,-0.9831,-0.8002,-0.7615,0.0,0.0,0.0,-0.7777,-0.8157,-0.8808,-0.9167,-0.9612,-1.0614,-1.066,-1.0548,-1.1212,-1.1131,-1.0958,-1.1111,-1.1151,-1.1141,-1.108,-1.1002,-1.0995,-1.1138,-1.1043,-1.0927,-1.1124,-1.1084,-1.0989,-1.0839,-1.083,-1.0823,-1.0734,-1.0721,-1.0721,-1.0721,-1.0721,-1.0619,-1.0385,-1.0375,-1.0232,-0.9869,-0.9842,-0.9741,-0.9612,-0.9439,-0.9245,-0.9032,-0.8967,-0.9015,-0.921,-0.914,-0.9293,-0.9574,-0.953,-0.95,-0.9462,-0.9303,-0.921,-0.9193,-0.8994,-0.8885,-0.8885,-0.8885,-0.8977,-0.9032,0.0,0.0,0.0,0.0,0.0,0.0,0.0,0.0,0.0,0.0,0.0,0.0,0.0,0.0,0.0,0.0,0.0,0.0,0.0,0.0,0.0,-1.5434,-1.4141,-1.3313,-1.3213,-1.3387,-1.3493,-1.3493,-1.3353,-1.5701,-2.0298,-2.0674,-2.0065,-1.865,-1.9953,-1.8483,-1.5003,-1.5669,-1.4934,-1.331,-1.3348,-1.3112,-1.2811,-1.3006,-1.3273,0.0,0.0,-1.287,-1.1485,-1.1079,-0.9599,-0.7862,-0.7399,-0.7149,0.0,0.0,0.0,-0.7906,-0.8842,-0.9098,-0.9252,-1.0382,-1.0409,-1.0321,-1.0914,-1.088,-1.0765,-1.085,-1.1063,-1.1231,-1.1231,-1.1046,-1.0995,-1.1138,-1.1009,-1.0836,-1.0877,-1.088,-1.0826,-1.0738,-1.0789,-1.0823,-1.0734,-1.0721,-1.0721,-1.0721,-1.0721,-1.0592,-1.0297,-1.028,-1.0141,-0.9832,-0.9683,-0.9591,-0.9551,-0.9252,-0.9045,-0.8885,-0.8844,-0.8937,-0.9094,-0.8971,-0.9039,-0.9218,-0.9374,-0.9395,-0.931,-0.9161,-0.91,-0.9089,-0.8981,-0.8885,-0.8885,-0.8885,-0.8885,-0.8885,0.0,0.0,0.0,0.0,0.0,0.0,0.0,0.0,0.0,0.0,0.0,0.0,-1.8008,-1.874,-1.9228,-1.9248,0.0,0.0,0.0,0.0,0.0,-1.3391,-1.3017,0.0,-1.32,-1.3227,-1.3233,-1.3233,-1.3453,-1.5043,-1.7863,-2.0113,-2.1224,-2.1398,-2.0921,-2.0351,-1.9566,-1.6749,-1.5738,-1.6021,-1.5208,-1.4055,-1.2784,-1.2804,-1.3005,-1.3233,-1.3253,-1.1846,-0.9999,-0.9994,-0.8559,-0.6785,-0.6729,-0.6827,-0.6923,0.0,0.0,0.0,-0.8207,-0.8421,-0.8737,-0.9652,-0.9863,-1.0002,-1.0605,-1.0731,-1.0765,-1.085,-1.1063,-1.1231,-1.1231,-1.1046,-1.0995,-1.1138,-1.0921,-1.0782,-1.086,-1.088,-1.0826,-1.0738,-1.0789,-1.0823,-1.0734,-1.0721,-1.0721,-1.0721,-1.0721,-1.0592,-1.0297,-1.028,-1.0141,-0.9832,-0.9683,-0.954,-0.9395,-0.91,-0.8892,-0.8881,-0.8791,-0.8726,-0.874,-0.8821,-0.8814,-0.8754,-0.8851,-0.9045,-0.921,-0.9011,-0.8895,-0.8895,-0.8888,-0.8885,-0.8885,-0.8885,-0.8885,-0.8885,0.0,0.0,0.0,0.0,0.0,0.0,0.0,0.0,0.0,0.0,0.0,0.0,0.0,-1.7732,-1.7688,-1.7923,-1.7903,0.0,0.0,0.0,0.0,-1.3968,-1.3374,-1.2913,-1.2632,-1.3013,-1.3113,-1.2951,-1.3052,-1.4568,-1.7349,-1.871,-2.0009,-2.1318,-2.3681,-2.2298,-1.8286,-1.9126,-1.7366,-1.4212,-1.6016,-1.5033,-1.2611,-1.378,-1.4404,-1.4518,-1.3352,-1.2305,-1.1352,-1.0258,-0.8368,-0.6491,-0.6641,-0.6671,-0.6685,-0.6889,-0.7177,-0.7528,-0.7987,-0.816,-0.8391,-0.9191,-0.9391,-0.9523,-1.0029,-1.0365,-1.0534,-1.0334,-1.0721,-1.0965,-1.0768,-1.085,-1.0897,-1.1016,-1.0938,-1.0853,-1.0809,-1.0802,-1.0782,-1.0727,-1.0768,-1.0778,-1.0724,-1.0721,-1.0721,-1.0721,-1.0388,-1.0287,-1.028,-1.0005,-0.9798,-0.969,-0.954,-0.9344,-0.91,-0.8935,-0.8834,-0.8791,-0.8737,-0.8659,-0.857,-0.8723,-0.8764,-0.872,-0.8817,-0.8967,-0.9011,-0.8905,-0.8885,-0.8885,-0.8885,-0.8885,-0.8885,-0.8885,-0.8885,-0.8885,0.0,0.0,0.0,0.0,0.0,0.0,0.0,0.0,0.0,-1.7535,0.0,0.0,0.0,0.0,-1.6492,-1.6887,-1.6284,-1.5847,-1.5847,-1.46,-1.3863,-1.3863,-1.3365,-1.2866,-1.2496,-1.2953,-1.306,-1.2784,-1.2891,-1.4051,-1.6196,-1.727,-1.8648,-2.0278,-2.3229,-2.2625,-1.9542,-2.1194,-1.9696,-1.6329,-1.7466,-1.6501,-1.439,-1.5033,-1.5263,-1.5268,-1.4847,-1.3877,-1.2705,-1.2192,-1.0107,-0.7745,-0.7902,-0.7303,-0.6562,-0.6776,-0.7027,-0.7288,-0.754,-0.7729,-0.8048,-0.875,-0.8948,-0.9115,-0.9557,-1.0019,-1.0304,-1.0158,-1.0499,-1.082,-1.0683,-1.0768,-1.0823,-1.0873,-1.0836,-1.0769,-1.0734,-1.0721,-1.0721,-1.0721,-1.0721,-1.0721,-1.0721,-1.0721,-1.0721,-1.0721,-1.0395,-1.0222,-1.0276,-0.9947,-0.969,-0.9537,-0.9384,-0.9188,-0.8885,-0.8885,-0.8807,-0.871,-0.8659,-0.8557,-0.8414,-0.8516,-0.8587,-0.8695,-0.9276,-0.9592,-0.9588,-0.9099,-0.921,-0.9588,-0.9103,-0.8885,-0.8885,-0.8885,-0.8885,-0.8885,0.0,0.0,0.0,0.0,0.0,0.0,0.0,0.0,-1.662,-1.662,0.0,0.0,0.0,0.0,0.0,-1.6254,-1.5342,-1.4741,-1.4726,-1.3495,-1.2808,-1.2808,0.0,0.0,-1.2784,-1.3053,-1.306,-1.2784,-1.3053,-1.3487,-1.4097,-1.5883,-1.7282,-1.8375,-1.9241,-2.1121,-2.3641,-2.2609,-2.2364,-2.2463,-1.9669,-1.8438,-1.8078,-1.6452,-1.5504,-1.5304,-1.7556,-1.6322,-1.3863,-1.5625,-1.3669,-1.0503,-1.0413,-0.8586,-0.6542,0.0,0.0,-0.6879,0.0,0.0,0.0,-0.8126,-0.835,-0.8618,-0.9218,-0.9696,-1.0,-1.0229,-1.0612,-1.0857,-1.086,-1.0749,-1.0768,-1.085,-1.0749,-1.0721,-1.0721,-1.0721,-1.0721,-1.0721,-1.0721,-1.0721,-1.0721,-1.0721,-1.0721,-1.0721,-1.0565,-1.0415,-1.0287,-1.012,-0.9829,-0.9388,-0.9282,-0.9079,-0.8885,-0.8878,-0.8855,-0.8703,-0.855,-0.8401,-0.8313,-0.832,-0.8347,-0.8587,-1.0216,-1.0981,-1.1046,-0.9644,-0.986,-1.0996,-0.9588,-0.8992,-0.8992,-0.8992,-0.8937,-0.8885,0.0,0.0,0.0,0.0,0.0,0.0,-1.849,-1.7631,-1.7018,0.0,0.0,0.0,-1.5478,-1.498,-1.4419,-1.3865,-1.3498,-1.3262,-1.3002,-1.2652,-1.2425,-1.2425,-1.2846,-1.3018,-1.279,-1.3053,-1.306,-1.2784,-1.2871,-1.2998,-1.3166,-1.4076,-1.4664,-1.5063,-1.6919,-1.8021,-1.8653,-2.058,-1.9401,-1.6548,-2.0657,-1.9115,-1.4715,-1.8278,-1.767,-1.5242,-1.7185,-1.6831,-1.5521,-1.6029,-1.3729,-1.0295,-0.8256,-0.7089,0.0,0.0,0.0,0.0,-0.6763,0.0,0.0,0.0,0.0,0.0,-0.8618,-0.8998,-0.9293,-0.972,-1.0063,-1.0267,-1.0446,-1.0605,-1.0734,-1.0775,-1.0748,-1.0721,-1.0721,-1.0721,-1.0721,-1.0721,-1.0721,-1.0721,-1.0721,-1.0721,-1.0721,-1.0721,-1.0276,-1.0086,-1.027,-0.9825,-0.9459,-0.9279,-0.9072,-0.8981,-0.8885,-0.8828,-0.8696,-0.8543,-0.8397,-0.8252,-0.8106,-0.8218,-0.8344,-0.8446,-1.0164,-1.1487,-1.2447,-1.218,-1.2295,-1.2674,-1.224,-1.1433,-1.0511,-1.0511,-0.9805,-0.8885,0.0,0.0,0.0,0.0,0.0,-1.9404,-1.8975,-1.7679,-1.6746,0.0,0.0,0.0,-1.4585,-1.4112,-1.3551,-1.3017,-1.2978,-1.2851,-1.2549,-1.2605,-1.2565,-1.2311,-1.3006,-1.3253,-1.2985,-1.336,-1.3367,-1.2978,-1.2978,-1.2978,-1.2985,-1.3039,-1.3247,-1.3647,-1.4623,-1.5051,-1.5277,-1.759,-1.7937,-1.7249,-2.0516,-2.0144,-1.7929,-2.0612,-1.9942,-1.7801,-1.978,-1.9412,-1.8086,-1.8826,-1.6084,-1.2093,-1.0437,-0.8311,-0.6637,-0.7816,0.0,0.0,0.0,0.0,0.0,-0.7248,0.0,0.0,-0.8167,-0.853,-0.8876,-0.9327,-0.9754,-1.0014,-1.0168,-1.0324,-1.046,-1.0527,-1.0538,-1.0578,-1.0704,-1.0721,-1.0721,-1.0721,-1.0721,-1.0721,-1.0721,-1.0721,-1.0721,-1.0721,-1.028,-1.0008,-1.0002,-0.9608,-0.931,-0.9214,-0.8954,-0.8845,-0.8845,-0.8693,-0.854,-0.8391,-0.8361,-0.8187,-0.7992,-0.8133,-0.8211,-0.8432,-1.0608,-1.2035,-1.2956,-1.4359,-1.4571,-1.3939,-1.3498,-1.267,-1.1747,-1.1293,-1.0566,-0.9754,0.0,0.0,-2.0498,-2.0117,-1.9935,-1.9733,-1.9366,-1.7526,-1.6168,0.0,-1.4506,-1.332,-1.3353,-1.33,-1.326,-1.326,-1.326,-1.3113,-1.2804,-1.3006,-1.2899,-1.2325,-1.3094,-1.342,-1.3166,-1.3734,-1.3768,-1.3213,-1.3173,-1.316,-1.3146,-1.2572,-1.2746,-1.3467,-1.2705,0.0,-1.3232,-1.4285,-1.7163,-2.0852,-1.9748,-2.112,-2.3758,-2.2971,-2.1931,-2.1163,-2.3505,-2.2653,-2.0716,-2.2159,-1.9307,-1.5078,-1.4427,-1.0814,-0.7188,-0.9389,-0.8347,0.0,0.0,0.0,0.0,-0.7339,-0.7187,0.0,-0.7732,-0.8133,-0.8452,-0.9006,-0.9466,-0.9792,-0.9872,-0.9886,-1.0002,-1.0154,-1.0195,-1.0314,-1.0626,-1.07,-1.0707,-1.0673,-1.07,-1.0721,-1.0721,-1.0721,-1.0714,-1.0697,-1.0422,-1.0059,-0.9608,-0.9456,-0.9303,-0.919,-0.8859,-0.871,-0.871,-0.8543,-0.8394,-0.8323,-0.8252,-0.8174,-0.7988,-0.8137,-0.8213,-0.8449,-1.1367,-1.2586,-1.2833,-1.5876,-1.6381,-1.5169,-1.4142,-1.3395,-1.2692,-1.1733,-1.1147,-1.0647,0.0,0.0,-2.0654,-2.0928,-2.0141,-1.9483,-1.941,-1.7333,-1.5845,-1.5944,-1.4789,-1.4008,-1.4242,-1.38,-1.352,-1.352,-1.352,-1.3327,-1.2817,-1.2844,-1.2717,-1.2318,-1.2939,-1.3153,-1.2878,-1.342,-1.352,-1.3213,-1.2998,-1.2878,-1.2864,-1.2472,-1.2518,-1.2951,-1.2777,-1.2764,-1.2878,-1.3133,-1.443,-1.6581,-1.9859,-2.0908,-2.0748,-2.3503,-2.2416,-1.979,-2.284,-2.264,-2.0866,-2.0114,-1.9058,-1.7325,-1.2873,-1.0665,-0.9345,-0.7622,-0.6741,-0.6347,-0.6378,-0.647,-0.6586,-0.6702,-0.6719,0.0,-0.7183,-0.7227,-0.7461,-0.8275,-0.8438,-0.8615,-0.9218,-0.933,-0.9378,-0.953,-0.9659,-0.9886,-1.0307,-1.0571,-1.0633,-1.0395,-1.0575,-1.0721,-1.0721,-1.0721,-1.067,-1.0548,-1.0263,-0.99,-0.9449,-0.9398,-0.9259,-0.8988,-0.8804,-0.871,-0.871,-0.8445,-0.835,-0.832,-0.8143,-0.8019,-0.8038,-0.9118,-0.9038,-0.8285,-1.2237,-1.3342,-1.2661,-1.5595,-1.6775,-1.6749,-1.6767,-1.5206,-1.2951,-1.2915,-1.1279,-0.9147,0.0,-2.1074,-2.1289,-2.1523,-2.0522,-1.9698,-1.9698,-1.7683,-1.6156,-1.624,-1.5243,-1.4522,-1.4522,-1.4213,-1.3979,-1.3874,-1.3868,-1.3614,-1.3058,-1.3113,-1.2926,-1.2325,-1.2886,-1.314,-1.2979,-1.3373,-1.3533,-1.3387,-1.3126,-1.2938,-1.2784,-1.263,-1.2643,-1.279,-1.2945,-1.2931,-1.2784,-1.2784,-1.38,-1.5645,-1.8982,-2.0448,-2.0935,-2.4154,-2.4002,-2.2215,-2.3618,-2.3223,-2.1842,-2.0275,-1.954,-1.8819,-1.6331,-1.3359,-1.056,-0.9463,-0.7788,-0.6317,-0.6385,-0.6308,-0.6285,-0.6474,-0.6359,0.0,0.0,-0.6759,-0.6983,-0.7584,-0.7824,-0.8062,-0.8516,-0.8598,-0.8696,-0.8998,-0.911,-0.9266,-0.9568,-1.0124,-1.05,-1.05,-1.0629,-1.0721,-1.0721,-1.0653,-1.0514,-1.0287,-1.0068,-0.9852,-0.9405,-0.9381,-0.9208,-0.8838,-0.8676,-0.8564,-0.8492,-0.8922,-0.9149,-0.9149,-0.9698,-0.9948,-0.9948,-1.0632,-1.0583,-1.0096,-1.2883,-1.3725,-1.3308,-1.556,-1.658,-1.679,-1.7034,-1.6126,-1.4542,-1.3451,-1.2075,-1.0695,-2.0793,-2.112,-2.1396,-2.1265,-2.0235,-1.9436,-1.9557,-1.7727,-1.6389,-1.6389,-1.5559,-1.5024,-1.5004,-1.466,-1.4448,-1.4514,-1.4536,-1.4158,-1.3333,-1.3764,-1.3552,-1.2425,-1.2919,-1.316,-1.3039,-1.334,-1.352,-1.352,-1.3267,-1.3026,-1.2871,-1.2757,-1.2764,-1.2878,-1.3033,-1.3119,-1.3038,-1.2985,-1.3919,-1.565,-1.7886,-1.973,-2.1471,-2.3973,-2.4804,-2.4541,-2.4419,-2.3822,-2.2834,-2.1089,-2.0195,-1.9826,-1.982,-1.6061,-1.1677,-1.1813,-0.937,-0.6603,-0.6555,-0.6318,-0.6173,-0.6453,-0.6179,-0.5956,0.0,0.0,0.0,-0.6913,-0.7299,-0.7607,-0.7746,-0.7776,-0.7914,-0.8384,-0.8499,-0.8611,-0.8821,-0.9551,-1.0161,-1.0432,-1.0514,-1.0558,-1.0588,-1.0453,-1.0276,-1.0004,-0.996,-0.9822,-0.9405,-0.9381,-0.9174,-0.8723,-0.8821,-0.8823,-0.867,-0.9797,-1.0386,-1.0391,-1.1414,-1.1896,-1.1901,-1.2188,-1.2139,-1.1994,-1.359,-1.4118,-1.4034,-1.559,-1.6186,-1.6219,-1.6573,-1.6378,-1.5688,-1.3909,-1.3011,-1.2643,-1.9341,-1.9466,-1.9508,-1.8914,-1.7969,-1.7477,-1.7888,-1.66,-1.5521,-1.5521,-1.5208,-1.548,-1.6757,-1.5229,-1.4676,-1.5937,-1.6044,-1.5358,-1.3668,-1.4866,-1.4768,-1.2847,-1.3026,-1.2959,-1.2418,-1.2966,-1.326,-1.326,-1.2991,-1.2958,-1.3146,-1.2605,-1.2639,-1.3146,-1.2945,-1.3259,-1.3915,-1.3654,-1.3964,-1.4829,-1.7131,-1.8559,-1.9505,-2.1442,-2.236,-2.2851,-2.4011,-2.3822,-2.2882,-2.137,-2.08,-2.04,-1.831,-1.5772,-1.3297,-1.1819,-0.9697,-0.7625,-0.6876,-0.6552,-0.647,-0.6504,-0.6378,-0.6255,-0.6289,0.0,-0.6395,-0.6555,0.0,-0.6712,-0.6957,0.0,0.0,-0.7472,-0.7743,-0.8058,-0.8476,-0.9019,-0.9402,-0.9513,-0.9764,-0.9975,-1.0051,-0.9985,-0.9937,-0.998,-0.9862,-0.971,-0.9398,-0.9381,-0.9174,-0.8723,-0.9655,-1.0098,-0.9965,-1.1121,-1.1702,-1.1707,-1.1848,-1.1896,-1.1945,-1.3151,-1.3006,-1.2042,-1.4513,-1.4949,-1.4022,-1.5328,-1.5879,-1.5884,-1.6493,-1.5812,-1.4572,-1.4687,-1.3844,-1.2642,-1.9201,-1.9287,0.0,-1.8879,-1.8049,-1.7474,-1.7669,-1.6509,-1.5651,-1.5651,-1.5538,-1.6116,-1.7753,-1.7156,-1.7116,-1.8282,-1.8406,-1.789,-1.6699,-1.6163,-1.555,-1.4739,-1.3744,-1.3093,-1.2839,-1.308,-1.3213,-1.3213,-1.2938,-1.2851,-1.2971,-1.2717,-1.2792,-1.3213,-1.3253,-1.3667,-1.4329,-1.4166,-1.4396,-1.4912,-1.5993,-1.6536,-1.704,-2.0435,-2.1999,-2.2334,-2.1662,-2.2178,-2.2689,-1.9973,-2.0261,-2.1248,-1.8447,-1.6312,-1.4739,-1.4261,-1.1248,-0.8144,-0.8823,-0.8914,-0.884,-0.884,-0.8645,-0.8448,-0.8448,-0.7341,-0.6289,-0.622,0.0,0.0,0.0,0.0,0.0,0.0,-0.7343,-0.755,-0.7919,-0.8204,-0.8625,-0.93,-0.9568,-0.9724,-0.9788,-0.9656,-0.9591,-0.9656,-0.9683,-0.953,-0.9147,-0.9286,-0.9469,-0.9693,-1.0172,-1.0655,-1.1194,-1.2424,-1.3054,-1.3054,-1.3836,-1.4178,-1.4178,-1.4758,-1.4704,-1.4226,-1.5343,-1.5486,-1.5045,-1.5588,-1.5784,-1.5804,-1.6099,-1.5872,-1.543,-1.5104,-1.455,-1.4032,-1.8547,0.0,0.0,-1.8024,-1.7537,-1.7178,-1.7178,-1.6904,-1.6676,-1.6676,-1.6607,-1.718,-1.8923,-1.8165,-1.8148,-1.9724,-1.9852,-1.9583,-1.8996,-1.7683,-1.6867,-1.6668,-1.4586,-1.3567,-1.3831,-1.3357,-1.3126,-1.3213,-1.2938,-1.2831,-1.2911,-1.2911,-1.3033,-1.334,-1.3507,-1.3973,-1.4643,-1.4723,-1.5023,-1.5471,-1.5758,-1.5798,-1.6069,-1.9465,-2.0998,-2.1195,-2.0054,-2.0712,-2.166,-1.8583,-1.9083,-2.0617,-1.8442,-1.6604,-1.5406,-1.6417,-1.3409,-1.0029,-1.1131,-1.1543,-1.1433,-1.0354,-1.0103,-0.9922,-0.917,-0.76,-0.6279,-0.6166,-0.6322,0.0,0.0,0.0,-0.6641,-0.6923,0.0,-0.7129,-0.7438,-0.7634,-0.8065,-0.8913,-0.9256,-0.9425,-0.9425,-0.9361,-0.9317,-0.9317,-0.9764,-0.972,-0.8957,-0.9907,-1.0516,-1.054,-1.1187,-1.1858,-1.2525,-1.3817,-1.4411,-1.4411,-1.5343,-1.5784,-1.5784,-1.5784,-1.5784,-1.5784,-1.5784,-1.5784,-1.5784,-1.5784,-1.5784,-1.5791,-1.5919,-1.6132,-1.6341,-1.5674,-1.5457,-1.55,-1.6704,-1.6675,0.0,-1.5322,-1.5544,-1.5872,-1.5872,-1.7541,-1.8814,-1.8871,-1.8591,-1.8978,-2.056,-1.7366,-1.633,-1.943,-1.9724,-1.9611,-1.9323,-1.9465,-1.9129,-1.8163,-1.554,-1.449,-1.5403,-1.3702,-1.2945,-1.3213,-1.2938,-1.2938,-1.32,-1.32,-1.3313,-1.3586,-1.36,-1.4128,-1.5015,-1.5251,-1.5865,-1.6673,-1.7025,-1.7306,-1.7565,-1.8167,-1.8491,-1.8788,-2.0103,-2.0168,-1.9385,-1.7771,-1.7289,-1.7432,-1.7765,-1.6361,-1.4977,-1.7251,-1.627,-1.4236,-1.345,-1.398,-1.3818,-0.9916,-0.9717,-0.9776,-0.7045,-0.6377,-0.6337,-0.647,-0.6504,-0.6559,-0.6664,-0.6695,-0.6698,0.0,-0.6841,0.0,0.0,-0.7417,-0.7726,-0.7995,-0.8548,-0.8905,-0.8905,-0.9083,-0.9217,-0.9217,-1.0442,-1.0536,-0.9002,-1.1731,-1.2586,-1.0933,-1.3173,-1.4317,-1.4199,-1.5226,-1.573,-1.573,-1.5784,-1.5784,-1.5784,-1.5784,-1.5784,-1.5784,-1.5784,-1.5784,-1.5784,-1.5784,-1.5784,-1.5811,-1.6146,-1.6433,-1.6693,-1.6663,-1.667,-1.675,0.0,0.0,-1.5624,-1.5087,-1.5444,-1.5784,-1.5784,-1.6416,-1.7361,-1.8799,-1.89,-1.9691,-2.1941,-2.1921,-2.1627,-2.1346,-2.3041,-2.3457,-2.1861,-2.1748,-2.1486,-2.0882,-1.9505,-1.793,-1.6084,-1.5804,-1.4981,-1.3453,-1.32,-1.3106,-1.3213,-1.3213,-1.3267,-1.3333,-1.3761,-1.4322,-1.5055,-1.5685,-1.6422,-1.7038,-1.6894,-1.6914,-1.7038,-1.7436,-1.8103,-1.8825,-1.8913,-1.9312,-1.948,-1.7588,-1.7326,-1.7736,-1.7319,-1.6758,-1.6803,-1.9401,-1.8097,-1.6011,-1.6932,-1.7417,-1.7447,-1.6389,-1.517,-1.4089,-1.3444,-1.0915,-0.8675,-0.8611,-0.8846,-0.9051,-0.9032,-0.9023,0.0,0.0,0.0,-0.8938,0.0,-0.849,-0.7851,-0.7453,-0.7837,-0.8231,-0.8282,-0.8479,-0.8623,-0.8623,-0.913,-0.9125,-0.8357,-1.0514,-1.1732,-1.1546,-1.3449,-1.4748,-1.5287,-1.5634,-1.5784,-1.5784,-1.5784,-1.5784,-1.5784,-1.5784,-1.5784,-1.5784,-1.5784,-1.5784,-1.5784,-1.5784,-1.5784,-1.5791,-1.5939,-1.6039,-1.6199,-1.6787,-1.7121,-1.7315,-1.572,-1.5424,-1.5458,-1.517,-1.5511,-1.5851,-1.6112,-1.6745,-1.7817,-1.952,-1.9674,-2.0279,-2.2127,-2.29,-2.2996,-2.222,-2.3672,-2.4477,-2.4245,-2.2238,-2.1693,-2.3149,-2.1048,-1.9322,-1.8154,-1.7462,-1.6378,-1.488,-1.396,-1.3627,-1.3828,-1.3514,-1.3327,-1.334,-1.3328,-1.39,-1.4863,-1.5306,-1.6101,-1.6974,-1.678,-1.6827,-1.7014,-1.6994,-1.7557,-1.8282,-1.7767,-1.8019,-1.8415,-1.6923,-1.6821,-1.7184,-1.6605,-1.6859,-1.7789,-2.0002,-1.9465,-1.8405,-1.9632,-2.021,-2.0237,-1.9126,-1.7983,-1.6994,-1.6454,-1.3985,-1.1834,-1.1811,-1.217,-1.2165,-1.1175,-1.1205,-1.114,0.0,0.0,0.0,0.0,-0.8995,-0.8102,-0.7599,-0.7688,-0.7848,-0.7897,-0.815,-0.8275,-0.8116,-0.8693,-0.8711,-0.7967,-1.0723,-1.2279,-1.2082,-1.418,-1.5513,-1.5992,-1.5879,-1.5784,-1.5784,-1.5784,-1.5784,-1.5784,-1.5784,-1.5784,-1.5784,-1.5784,-1.5784,-1.5784,-1.5784,-1.5784,-1.5784,-1.5784,-1.5911,-1.6206,-1.678,-1.7293,-1.7582,-1.63,-1.5865,-1.5738,-1.5511,-1.5678,-1.6046,-1.6633,-1.8432,-2.0039,-2.092,-2.0871,-2.088,-2.1203,-2.0529,-2.0597,-2.2012,-2.1711,-2.2842,-2.599,-2.1171,-2.0279,-2.4944,-2.0462,-1.9011,-2.1517,-1.8725,-1.7264,-1.7274,-1.5208,-1.4436,-1.4918,-1.4039,-1.3572,-1.3395,-1.2401,-1.2856,-1.4375,-1.4188,-1.5138,-1.6707,-1.6693,-1.7027,-1.7475,-1.6921,-1.6901,-1.7186,-1.6834,-1.6553,-1.6266,-1.5952,-1.5804,-1.5798,-1.5832,-1.6662,-1.7917,-1.9085,-2.0305,-2.1293,-2.1293,-2.2173,-2.2205,-1.8398,-1.8204,-1.8388,-1.608,-1.5517,-1.5497,-1.5683,-1.6027,-1.5571,-1.3155,-1.3218,-1.2881,0.0,0.0,0.0,-0.9625,-0.8919,-0.8425,-0.8399,-0.8013,-0.7773,-0.7787,-0.8062,-0.8116,-0.7824,-0.9084,-0.9272,-0.7942,-1.2253,-1.4037,-1.2503,-1.5065,-1.6401,-1.6301,-1.5891,-1.5704,-1.5784,-1.5784,-1.5784,-1.5784,-1.5784,-1.5784,-1.5784,-1.5784,-1.5784,-1.5784,-1.5784,-1.5784,-1.5784,-1.5798,-1.6206,-1.6727,-1.674,-1.7101,-1.7582,-1.662,-1.6333,-1.646,-1.638,-1.6253,-1.6359,-1.6998,-1.785,-1.8949,-2.0337,-2.0983,-2.1418,-2.1508,-2.2683,-2.2352,-1.9728,-2.1471,-2.2835,-2.3035,-2.2833,-2.352,-2.546,-2.4892,-2.3858,-2.2324,-2.1239,-1.9893,-1.8315,-1.6118,-1.4715,-1.405,-1.3987,-1.2912,-1.1138,-1.2132,-1.2659,-1.2942,-1.3962,-1.5313,-1.6687,-1.6473,-1.66,-1.6914,-1.6767,-1.7021,-1.7435,-1.7192,-1.7038,-1.6898,-1.6333,-1.6159,-1.6119,-1.5899,-1.6662,-1.7777,-1.8048,-1.967,-2.1293,-2.1293,-2.2173,-2.2935,-2.2232,-2.1055,-1.9951,-1.9651,-1.849,-1.7469,-1.7524,-1.7771,-1.7802,-1.7138,-1.6065,-1.5083,-1.4482,0.0,-1.169,-1.0616,-0.9761,-0.9022,-0.8451,-0.7665,-0.7241,-0.7461,-0.7658,-0.774,-0.7658,-0.7919,-0.8359,-0.9031,-1.0494,-1.194,-1.3328,-1.3108,-1.395,-1.5891,-1.467,-1.4638,-1.5784,-1.5784,-1.5784,-1.5784,-1.5784,-1.5784,-1.5784,-1.5784,-1.5784,-1.5784,-1.5784,-1.5784,-1.5804,-1.6072,-1.652,-1.7112,-1.7275,-1.7455,-1.7582,-1.6941,-1.6593,-1.6747,-1.6874,-1.7088,-1.7407,-1.7742,-1.813,-1.8835,-2.0096,-2.0601,-2.0843,-2.0978,-2.2642,-2.2747,-2.0231,-2.1173,-2.2437,-2.3678,-2.2527,-2.3205,-2.6433,-2.585,-2.4648,-2.2933,-2.2062,-2.0754,-1.9032,-1.6068,-1.454,-1.4232,-1.3052,-1.1635,-1.0109,-1.0725,-1.1201,-1.1684,-1.3741,-1.5199,-1.6049,-1.6374,-1.6714,0.0,-1.6807,-1.7068,-1.7562,-1.7454,-1.7306,-1.7112,-1.6522,-1.6321,-1.6219,-1.5925,-1.6662,-1.7692,-1.7692,-1.9405,-2.1293,-2.1293,-2.2173,-2.3149,-2.3447,-2.2539,-2.1721,-2.218,-2.1429,-2.0675,-2.0675,-2.0896,-2.0774,-1.9599,-1.8153,-1.6591,-1.4812,-1.3646,-1.2685,-1.1803,-1.1134,-1.0352,-0.9302,-0.8592,-0.7985,-0.7554,-0.7428,-0.7455,-0.759,-0.7458,-0.7692,-0.8424,-1.0152,-1.1301,-1.1692,-1.2565,-1.3324,-1.3807,-1.2968,-1.3302,-1.4735,-1.4735,-1.5097,-1.5784,-1.5784,-1.5784,-1.5784,-1.5784,-1.5784,-1.5784,-1.5784,-1.5784,-1.5824,-1.6293,-1.679,-1.7253,-1.7629,-1.7782,-1.7762,-1.7225,-1.6794,-1.6927,-1.732,-1.803,-1.8544,-1.8698,-1.8965,-1.9399,-2.0087,-2.0054,-2.004,-2.0153,-2.1491,-2.2134,-2.1766,-2.0818,-2.1773,-2.552,-2.1541,-2.166,-2.7454,-2.5289,-2.3885,-2.3788,-2.2223,-2.0897,-1.9874,-1.5817,-1.4117,-1.4681,-1.1791,-1.0126,-0.9555,-0.8983,-0.9539,-1.1037,-1.3596,-1.4996,-1.5555,-1.6405,-1.7068,-1.7475,-1.7001,-1.7134,-1.7582,-1.7582,-1.7474,-1.7172,-1.6623,-1.6409,-1.6279,-1.5979,-1.6602,-1.7451,-1.7451,-1.9177,-2.1069,-2.1069,-2.2076,-2.3091,-2.3091,-2.3091,-2.3198,-2.3623,-2.3711,-2.3711,-2.3711,-2.3994,-2.3509,-2.1187,-1.9595,-1.7431,-1.3705,-1.3143,-1.3086,-1.2777,-1.2512,-1.1801,-1.0354,-0.9894,0.0,-0.7776,-0.7366,-0.7274,-0.7607,-0.7489,-0.7423,-0.7395,-1.0274,-1.1158,-0.9424,-1.2416,-1.329,-1.1682,-1.1514,-1.2222,-1.3771,-1.3525,-1.4222,-1.5784,-1.5784,-1.5784,-1.5784,-1.5784,-1.5784,-1.5784,-1.5784,-1.5872,-1.5951,-1.6547,-1.6947,-1.732,-1.7796,-1.7982,-1.8009,-1.7298,-1.7313,-1.7602,-1.8163,-1.8384,-1.8811,-1.978,-2.018,-2.0247,-1.992,-2.0461,-2.0715,-2.0281,-2.0909,-2.1005,-2.0269,-2.0003,-2.1031,-2.3682,-2.2691,-2.3687,-2.7522,-2.6868,-2.6367,-2.6357,-2.3774,-2.2482,-2.2519,-1.7039,-1.4065,-1.3451,-1.1466,-0.9581,-0.7875,-0.8682,-1.0232,-1.2322,-1.3548,-1.5115,-1.6884,-1.7036,-1.7186,-1.7293,-1.7375,-1.7488,-1.7582,-1.7582,-1.7549,-1.7455,-1.7166,-1.6884,-1.658,-1.6286,-1.6169,-1.6109,-1.6109,-1.7894,-1.9807,-1.9807,-2.14,-2.3091,-2.3091,-2.3091,-2.311,-2.3188,-2.3208,-2.3208,-2.3208,-2.3266,-2.3183,-2.2698,-2.0039,-1.7178,-1.4956,-1.3821,-1.3013,-1.2458,-1.2597,-1.2042,-1.0253,-0.9654,-0.8957,-0.7849,-0.7617,-0.759,-0.7763,-0.7641,-0.7948,-0.8857,-0.8637,-0.9215,-1.0864,-1.0399,-1.1222,-1.3584,-1.1935,-1.2688,-1.5785,-1.4167,-1.4222,-1.5784,-1.5784,-1.5784,-1.5784,-1.5784,-1.5784,-1.5784,-1.5784,-1.6112,-1.6587,-1.6934,-1.73,-1.7522,-1.7622,-1.7983,-1.837,-1.6989,-1.67,-1.6533,-1.6857,-1.8017,-1.9138,-1.97,-2.0555,-2.0922,-2.0334,-2.0621,-2.0775,-2.0494,-2.0848,-2.0875,-2.0307,-1.9973,-2.0644,-2.258,-2.2175,-2.3015,-2.5595,-2.5236,-2.4606,-2.3755,-2.2189,-2.1163,-2.0751,-1.5827,-1.3369,-1.3201,-1.0292,-0.8319,-0.7194,-0.8775,-1.0171,-1.1529,-1.3797,-1.5342,-1.6232,-1.722,-1.7522,-1.744,-1.7528,-1.7582,-1.7582,-1.7582,-1.7582,-1.7542,-1.73,-1.7005,-1.668,-1.654,-1.6186,-1.5811,-1.6012,-1.7254,-1.868,-1.9314,-2.0809,-2.2306,-2.295,-2.3091,-2.3091,-2.3091,-2.3091,-2.3091,-2.3091,-2.3091,-2.2814,-2.1878,-1.9771,-1.7565,-1.5773,-1.4313,-1.3293,-1.3039,-1.3104,-1.2711,-1.1356,-1.1201,-1.0605,-0.8977,-0.8823,-0.8538,-0.7859,-0.7746,-0.7819,-0.8036,-0.8552,-0.9271,-1.0225,-1.0466,-1.1278,-1.2824,-1.1807,-1.2456,-1.4763,-1.3848,-1.4222,-1.5784,-1.5784,-1.5784,-1.5784,-1.5784,-1.5784,-1.5784,-1.5784,-1.6179,-1.672,-1.6867,-1.7188,-1.7622,-1.7936,-1.8143,-1.8237,-1.7454,-1.6855,-1.6369,-1.6478,-1.8205,-1.9593,-1.972,-2.0723,-2.1286,-2.0822,-2.0822,-2.0835,-2.0775,-2.0969,-2.0969,-2.0615,-2.0214,-2.0506,-2.1704,-2.1503,-2.2012,-2.3651,-2.3461,-2.2723,-2.141,-2.0642,-1.9866,-1.9064,-1.5035,-1.3082,-1.3132,-0.9654,-0.7867,-0.7614,-0.9566,-1.0702,-1.1385,-1.4352,-1.5671,-1.5943,-1.7421,-1.7849,-1.7675,-1.7609,-1.7582,-1.7582,-1.7582,-1.7582,-1.7549,-1.7373,-1.7001,-1.6707,-1.6707,-1.6306,-1.5872,-1.6112,-1.6906,-1.7917,-1.8864,-1.9988,-2.1212,-2.2403,-2.2721,-2.2775,-2.3047,-2.3091,-2.3091,-2.3091,-2.3091,-2.266,-2.1235,-1.9889,-1.8405,-1.6682,-1.5088,-1.394,-1.3474,-1.3626,-1.3397,-1.2324,-1.2491,-1.1851,-0.9923,-0.9635,-0.904,-0.7825,-0.7794,-0.7688,-0.7483,-0.8744,-0.9414,-0.9253,-1.0659,-1.1517,-1.1723,-1.1527,-1.2312,-1.4007,-1.3607,-1.4222,-1.5784,-1.5784,-1.5784,-1.5784,-1.5784,-1.5784,-1.5832,-1.5899,-1.6233,-1.6714,-1.6774,-1.7121,-1.7649,-1.8196,-1.825,-1.8009,-1.9806,-1.9582,-1.9575,-2.0105,-2.0133,-2.0334,-2.0869,-2.0842,-2.0835,-2.1042,-2.1303,-2.137,-2.1102,-2.1089,-2.0882,-2.0327,-2.0468,-2.0775,-2.1145,-2.1618,-2.2348,-2.3368,-2.3615,-2.3645,-2.35,-2.1643,-2.0719,-2.0881,-1.6988,-1.435,-1.2788,-1.0967,-0.9908,-0.9634,-1.1636,-1.3212,-1.4404,-1.524,-1.6429,-1.7747,-1.7915,-1.7975,-1.7916,-1.7689,-1.7582,-1.7582,-1.7582,-1.7582,-1.7582,-1.7549,-1.7168,-1.6707,-1.6707,-1.6306,-1.5832,-1.5865,-1.6737,-1.7738,-1.7824,-1.8726,-1.9943,-2.1159,-2.148,-2.1756,-2.2862,-2.3091,-2.3091,-2.3091,-2.3091,-2.3071,-2.2897,-2.1399,-1.9724,-1.8229,-1.6692,-1.5021,-1.3133,-1.3761,-1.3808,-1.2117,-1.1635,-1.0961,-0.9634,-0.8589,-0.7914,-0.7631,-0.774,-0.8244,-0.9179,-0.8368,-0.8203,-0.9113,-0.9522,-1.0408,-1.1848,-1.15,-1.2917,-1.5994,-1.4244,-1.4222,-1.5784,-1.5784,-1.5784,-1.5784,-1.5784,-1.5784,-1.5804,-1.6119,-1.642,-1.6734,-1.7052,-1.7353,-1.7622,-1.7963,-1.8015,-1.8069,-1.9707,-1.9181,-1.878,-1.8836,-1.9778,-2.0514,-2.0575,-2.1082,-2.1443,-2.1383,-2.1323,-2.1243,-2.1122,-2.1109,-2.1015,-2.0782,-2.0869,-2.0821,-2.0559,-2.0785,-2.1024,-2.1212,-2.1189,-2.1247,-2.138,-2.0074,-1.9486,-1.9787,-1.5696,-1.3502,-1.3064,-1.1098,-1.063,-1.158,-1.3333,-1.4435,-1.513,-1.6477,-1.7334,-1.7782,-1.7916,-1.7882,-1.7756,-1.7629,-1.7582,-1.7582,-1.7582,-1.7582,-1.7582,-1.7582,-1.7308,-1.7025,-1.7025,-1.6573,-1.6092,-1.6092,-1.63,-1.6716,-1.7505,-1.8048,-1.8726,-1.9898,-2.0215,-2.035,-2.0809,-2.1489,-2.2031,-2.2031,-2.2589,-2.3091,-2.3091,-2.1901,-2.04,-1.8718,-1.7907,-1.6841,-1.4944,-1.5692,-1.6312,-1.5955,-1.4352,-1.353,-1.4241,-1.1109,-0.9288,-1.0053,-0.8766,-0.7994,-0.8249,-0.8552,-0.9469,-1.1027,-1.0655,-1.1803,-1.4765,-1.3281,-1.3701,-1.6005,-1.5215,-1.517,-1.5784,-1.5784,-1.5784,-1.5784,-1.5784,-1.5784,-1.5852,-1.6152,-1.644,-1.6734,-1.7085,-1.738,-1.7622,-1.7876,-1.8109,-1.8323,-2.0435,-1.9853,-1.928,-1.9019,-2.0339,-2.0969,-1.9895,-2.1093,-2.1753,-2.0726,-2.0948,-2.1236,-2.1236,-2.1162,-2.1042,-2.0869,-2.1009,-2.0788,-2.0027,-2.0221,-2.0194,-1.982,-1.9606,-1.9593,-1.98,-1.9025,-1.8677,-1.8798,-1.5807,-1.4143,-1.3767,-1.2188,-1.211,-1.3335,-1.499,-1.5778,-1.5875,-1.7355,-1.7869,-1.7609,-1.7869,-1.7862,-1.7582,-1.7582,-1.7582,-1.7582,-1.7582,-1.7582,-1.7582,-1.7582,-1.744,-1.7186,-1.7099,-1.6734,-1.6366,-1.6192,-1.6052,-1.613,-1.6925,-1.7131,-1.7451,-1.868,-1.8948,-1.9039,-1.9405,-2.0169,-2.0755,-2.0755,-2.1712,-2.2448,-2.2094,-2.1623,-2.0625,-1.8532,-1.8135,-1.7466,-1.5718,-1.6544,-1.7208,-1.6919,-1.5224,-1.4656,-1.6109,-1.2285,-1.0276,-1.1594,-0.9704,-0.8386,-0.8042,-0.8582,-0.9676,-1.1395,-1.0386,-1.151,-1.5125,-1.3588,-1.3808,-1.5784,-1.5784,-1.5784,-1.5784,-1.5784,-1.5784,-1.5832,-1.5919,-1.5959,-1.5985,-1.6279,-1.6573,-1.6854,-1.7119,-1.738,-1.7622,-1.7876,-1.8129,-1.835,-2.2786,-2.2599,-2.2324,-2.2318,-2.2639,-2.1862,-1.8963,-2.0726,-2.1358,-1.8494,-2.0169,-2.1614,-2.1614,-2.1289,-2.0875,-2.0233,-2.0775,-2.0615,-1.9452,-2.0187,-2.0408,-1.9826,-1.98,-1.98,-1.98,-1.9219,-1.8778,-1.8497,-1.847,-1.7259,-1.4969,-1.4957,-1.4901,-1.4868,-1.6723,-1.7415,-1.7188,-1.7789,-1.7869,-1.7609,-1.7869,-1.7862,-1.7582,-1.7582,-1.7582,-1.7582,-1.7582,-1.7582,-1.7582,-1.7582,-1.744,-1.7146,-1.6807,-1.6707,-1.6587,-1.5957,-1.6039,-1.6254,-1.5912,-1.5825,-1.6109,-1.7404,-1.7738,-1.8048,-1.9222,-1.9488,-1.9542,-1.9542,-2.0486,-2.098,-1.9761,-2.0531,-2.0391,-1.765,-1.6973,-1.6265,-1.4723,-1.5555,-1.5476,-1.3148,-1.2887,-1.3053,-1.3318,-1.1008,-1.0011,-1.1293,-1.0379,-0.9677,-0.9482,-0.8176,-0.793,-0.9117,-0.7735,-0.8452,-1.1507,-1.1431,-1.2848,-1.5784,-1.5784,-1.5784,-1.5784,-1.5784,-1.5784,-1.5798,-1.6139,-1.6266,-1.6293,-1.658,-1.6874,-1.7199,-1.7199,-1.738,-1.7622,-1.7876,-1.7995,-1.8082,-1.8191,-2.0478,-2.213,-2.0206,-2.1351,-2.2198,-2.1065,-2.178,-2.1978,-2.0922,-2.1404,-2.177,-2.1641,-2.1289,-2.1029,-2.0848,-1.9747,-1.9432,-2.0207,-1.9213,-1.9035,-2.0033,-1.8746,-1.7972,-1.7902,-1.7364,-1.7043,-1.6838,-1.6838,-1.6343,-1.5398,-1.534,-1.5811,-1.6723,-1.7338,-1.7528,-1.7455,-1.7649,-1.7669,-1.7589,-1.7689,-1.7669,-1.7582,-1.7582,-1.7582,-1.7582,-1.7582,-1.7582,-1.7582,-1.7582,-1.7522,-1.7395,-1.7152,-1.6734,-1.6373,-1.6186,-1.6052,-1.5952,-1.5804,-1.5784,-1.592,-1.6292,-1.6386,-1.6527,-1.6882,-1.763,-1.8503,-1.9314,-1.9807,-1.9943,-1.9579,-1.9807,-1.9372,-1.727,-1.7872,-1.8045,-1.6301,-1.7283,-1.7942,-1.7178,-1.5494,-1.5164,-1.7048,-1.3447,-1.1583,-1.2911,-1.1091,-0.9873,-0.9729,-1.0084,-1.1031,-1.2585,-1.178,-1.2427,-1.4765,-1.3435,-1.3756,-1.5784,-1.5784,-1.5784,-1.5784,-1.5784,-1.5939,-1.6139,-1.6233,-1.6386,-1.6593,-1.6887,-1.7112,-1.7219,-1.742,-1.7502,-1.7622,-1.7876,-1.8122,-1.8377,-1.8569,-2.0774,-2.2362,-2.0583,-2.1547,-2.2203,-2.1161,-2.1911,-2.2157,-2.0999,-2.151,-2.1877,-2.1648,-2.1289,-2.1109,-2.1109,-1.9944,-1.9692,-2.0759,-1.9613,-1.943,-2.0493,-1.9139,-1.8277,-1.8219,-1.7721,-1.7335,-1.7129,-1.7023,-1.6836,-1.6508,-1.6448,-1.6819,-1.7582,-1.7582,-1.7582,-1.7582,-1.7582,-1.7582,-1.7582,-1.7582,-1.7582,-1.7582,-1.7582,-1.7582,-1.7582,-1.7582,-1.7582,-1.7582,-1.7582,-1.7508,-1.746,-1.7387,-1.6958,-1.6433,-1.6433,-1.6299,-1.6139,-1.6025,-1.5912,-1.5784,-1.5784,-1.5784,-1.5784,-1.5784,-1.6433,-1.7217,-1.794,-1.8495,-1.868,-1.8211,-1.8488,-1.8348,-1.6832,-1.7475,-1.7742,-1.6733,-1.7643,-1.8053,-1.7191,-1.5897,-1.5812,-1.7588,-1.4522,-1.3016,-1.4343,-1.2036,-1.0767,-1.1233,-1.1009,-1.1566,-1.3104,-1.2711,-1.3425,-1.5303,-1.4056,-1.421,-1.5784,-1.5945,-1.5939,-1.5784,-1.5945,-1.6092,-1.6328,-1.6386,-1.66,-1.6894,-1.7239,-1.7367,-1.738,-1.7508,-1.7582,-1.7622,-1.7876,-1.8237,-1.8504,-2.2422,-2.2677,-2.2832,-2.2657,-2.2792,-2.2159,-1.9932,-2.1494,-2.1967,-1.9481,-2.0779,-2.1864,-2.1621,-2.1276,-2.1109,-2.1109,-2.0943,-2.0936,-2.1102,-2.0943,-2.0929,-2.1082,-2.0391,-1.9999,-1.9959,-1.9488,-1.9148,-1.8951,-1.8664,-1.837,-1.8022,-1.8002,-1.7883,-1.7582,-1.7582,-1.7582,-1.7582,-1.7582,-1.7582,-1.7582,-1.7582,-1.7582,-1.7582,-1.7582,-1.7582,-1.7582,-1.7582,-1.7582,-1.7582,-1.7582,-1.7454,-1.728,-1.7495,-1.7208,-1.6767,-1.674,-1.672,-1.664,-1.6353,-1.6072,-1.5804,-1.5832,-1.5784,-1.5784,-1.5784,-1.5784,-1.5784,-1.5784,-1.6756,-1.7225,-1.6015,-1.6777,-1.7301,-1.6393,-1.6025,-1.5891,-1.6082,-1.6689,-1.6239,-1.395,-1.4527,-1.5214,-1.5492,-1.448,-1.4272,-1.5351,-1.3084,-1.2265,-1.372,-1.1273,-1.037,-1.1568,-1.1433,-1.2126,-1.3812,-1.3658,-1.4352,-1.5865,-1.6139,-1.6139,-1.5851,-1.6179,-1.6362,-1.6402,-1.662,-1.6907,-1.7253,-1.7521,-1.7582,-1.7589,-1.7609,-1.7615,-1.7655,-1.7935,-1.8283,-1.8564,-1.7601,-2.0291,-2.2229,-2.0059,-2.1501,-2.2644,-2.1797,-2.2375,-2.2531,-2.1398,-2.1694,-2.179,-2.1269,-2.1149,-2.1109,-2.1109,-1.9687,-1.9492,-2.1012,-1.9674,-1.9404,-2.0768,-1.9155,-1.8054,-1.7759,-1.7496,-1.7969,-1.9265,-1.8965,-1.8671,-1.8384,-1.8102,-1.7883,-1.7582,-1.7582,-1.7582,-1.7582,-1.7582,-1.7582,-1.7582,-1.7582,-1.7582,-1.7582,-1.7582,-1.7582,-1.7582,-1.7582,-1.7582,-1.7582,-1.7582,-1.7535,-1.7548,-1.7562,-1.7488,-1.7328,-1.7159,-1.6881,-1.664,-1.6353,-1.6219,-1.6112,-1.5838,-1.5784,-1.5784,-1.5784,-1.5784,-1.5784,-1.5784,-1.6062,-1.6157,-1.5879,-1.6252,-1.645,-1.6006,-1.6066,-1.5737,-1.4508,-1.5186,-1.5199,-1.3513,-1.4532,-1.5343,-1.541,-1.5344,-1.508,-1.4624,-1.3825,-1.3698,-1.4503,-1.3679,-1.3674,-1.4718,-1.4689,-1.4892,-1.5293,-1.5269,-1.5561,-1.6166,-1.6239,-1.6353,-1.65,-1.6573,-1.6727,-1.6998,-1.7065,-1.7259,-1.7482,-1.7555,-1.7582,-1.7609,-1.7842,-1.7936,-1.7949,-1.8468,-1.8758,-1.8865,-1.9133,-2.1034,-2.2356,-2.0694,-2.1647,-2.2605,-2.2445,-2.2552,-2.2545,-2.2225,-2.2071,-2.1817,-2.1363,-2.1189,-2.1109,-2.1109,-2.0114,-1.9938,-2.1026,-2.0108,-1.988,-2.0869,-1.9685,-1.8813,-1.8444,-1.8246,-1.8551,-1.9424,-1.9205,-1.8978,-1.8684,-1.839,-1.809,-1.7789,-1.7649,-1.7582,-1.7582,-1.7582,-1.7582,-1.7582,-1.7582,-1.7582,-1.7582,-1.7582,-1.7582,-1.7582,-1.7582,-1.7582,-1.7582,-1.7582,-1.7582,-1.7582,-1.7582,-1.7582,-1.7549,-1.7447,-1.7192,-1.684,-1.6553,-1.6373,-1.6206,-1.5905,-1.5784,-1.5784,-1.5784,-1.5784,-1.5784,-1.5784,-1.5784,-1.5784,-1.5784,-1.6072,-1.6219,-1.6059,-1.5612,-1.498,-1.4016,-1.4189,-1.416,-1.3493,-1.4595,-1.5444,-1.5578,-1.5684,-1.5551,-1.5013,-1.4352,-1.4449,-1.5413,-1.4788,-1.49,-1.5984,-1.6032,-1.5965,-1.5784,-1.5965,-1.6112,-1.6279,-1.6596,-1.6737,-1.6707,-1.6847,-1.7052,-1.7199,-1.7199,-1.7395,-1.7782,-1.7642,-1.7742,-1.8003,-1.7982,-1.8075,-1.8303,-1.8758,-1.8925,-1.8965,-2.2928,-2.2928,-2.2752,-2.2412,-2.2392,-2.2392,-2.2298,-2.2325,-2.2338,-2.2291,-2.2071,-2.181,-2.1516,-2.1263,-2.1109,-2.1109,-2.1109,-2.1109,-2.1109,-2.1109,-2.1109,-2.1109,-2.0828,-2.0561,-2.0307,-1.9967,-1.9659,-1.9424,-1.9424,-1.9219,-1.8918,-1.8631,-1.833,-1.7975,-1.7722,-1.7582,-1.7582,-1.7582,-1.7582,-1.7582,-1.7582,-1.7582,-1.7582,-1.7582,-1.7582,-1.7582,-1.7582,-1.7582,-1.7582,-1.7582,-1.7582,-1.7582,-1.7582,-1.7582,-1.7582,-1.7582,-1.746,-1.7192,-1.68,-1.646,-1.6146,-1.5892,-1.5784,-1.5784,-1.5784,-1.5784,-1.5784,-1.5784,-1.5784,-1.5798,-1.5885,-1.6106,-1.6224,-1.6022,-1.4939,-1.4022,-1.3789,-1.3455,-1.3399,-1.3677,-1.4722,-1.5558,-1.5758,-1.5872,-1.5912,-1.5911,-1.5034,-1.5075,-1.6404,-1.5469,-1.5394,-1.6406,-1.6409,-1.6213,-1.5917,-1.6213,-1.6409,-1.6462,-1.6965,-1.7092,-1.6847,-1.7152,-1.7266,-1.7266,-1.7313,-1.7575,-1.7975,-1.7809,-1.8023,-1.847,-1.8209,-1.8337,-1.8591,-1.8885,-1.8991,-1.9025,-2.2928,-2.2928,-2.2692,-2.2151,-2.2258,-2.2251,-2.1764,-2.1897,-2.1964,-2.1717,-2.1715,-2.1574,-2.1209,-2.1136,-2.1109,-2.1109,-2.1109,-2.1109,-2.1109,-2.1109,-2.1109,-2.1109,-2.0828,-2.0655,-2.0608,-2.008,-1.9659,-1.9424,-1.9424,-1.9219,-1.8918,-1.8631,-1.833,-1.7975,-1.7722,-1.7582,-1.7582,-1.7582,-1.7582,-1.7582,-1.7582,-1.7582,-1.7582,-1.7582,-1.7582,-1.7582,-1.7582,-1.7582,-1.7582,-1.7582,-1.7582,-1.7582,-1.7582,-1.7582,-1.7582,-1.7582,-1.7549,-1.7395,-1.6854,-1.6313,-1.5885,-1.5791,-1.5784,-1.5784,-1.5784,-1.5784,-1.5784,-1.5784,-1.5784,-1.5905,-1.6159,-1.6246,-1.5918,-1.4808,-1.4297,-1.3622,-1.2257,-1.2976,-1.3653,-1.3695,-1.4895,-1.5731,-1.5778,-1.6052,-1.6306,-1.6553,-1.6418,-1.6599,-1.7348,-1.6987,-1.6854,-1.7065,-1.6774,-1.6613,-1.6573,-1.6613,-1.676,-1.7065,-1.7159,-1.7306,-1.7448,-1.7495,-1.7515,-1.7528,-1.7796,-1.7909,-1.8009,-1.827,-1.841,-1.851,-1.8711,-1.8811,-1.8891,-1.9192,-1.9299,-1.9305,-2.2652,-2.2619,-2.2438,-2.185,-2.1864,-2.1864,-2.1655,-2.1735,-2.1769,-2.1635,-2.1614,-2.1436,-2.1142,-2.1109,-2.1109,-2.1109,-2.1109,-2.1109,-2.1109,-2.1109,-2.1109,-2.1109,-2.0982,-2.0762,-2.0441,-2.002,-1.9659,-1.9424,-1.9424,-1.9299,-1.9158,-1.8858,-1.8571,-1.827,-1.7969,-1.7742,-1.7582,-1.7582,-1.7582,-1.7582,-1.7582,-1.7582,-1.7582,-1.7582,-1.7582,-1.7582,-1.7582,-1.7582,-1.7582,-1.7582,-1.7582,-1.7582,-1.7582,-1.7582,-1.7582,-1.7582,-1.7361,-1.7054,-1.678,-1.6279,-1.5784,-1.5784,-1.5784,-1.5784,-1.5784,-1.5784,-1.5784,-1.5784,-1.5784,-1.5919,-1.6219,-1.6321,-1.6117,-1.5662,-1.4741,-1.3849,-1.3101,-1.3402,-1.3701,-1.3701,-1.4933,-1.5892,-1.6052,-1.6046,-1.6219,-1.6673,-1.6707,-1.6894,-1.738,-1.742,-1.7434,-1.7434,-1.6941,-1.6707,-1.6707,-1.6867,-1.7065,-1.7206,-1.736,-1.7507,-1.7582,-1.7582,-1.7675,-1.7842,-1.7935,-1.8169,-1.8573,-1.9346,-1.9854,-2.0265,-2.1011,-2.094,-2.0388,-2.0537,-2.009,-1.9424,-2.2452,-2.2365,-2.2158,-2.1708,-2.1614,-2.1594,-2.1527,-2.145,-2.145,-2.145,-2.145,-2.1363,-2.1136,-2.1109,-2.1109,-2.1109,-2.1109,-2.1109,-2.1109,-2.1109,-2.1109,-2.1109,-2.1042,-2.0735,-2.0147,-1.9913,-1.9659,-1.9424,-1.9424,-1.9424,-1.9417,-1.9065,-1.8771,-1.8477,-1.825,-1.7936,-1.7589,-1.7662,-1.7649,-1.7582,-1.7582,-1.7582,-1.7582,-1.7582,-1.7582,-1.7582,-1.7582,-1.7582,-1.7582,-1.7582,-1.7582,-1.7582,-1.7582,-1.7582,-1.7582,-1.7582,-1.7215,-1.6794,-1.6727,-1.638,-1.5964,-1.5952,-1.5985,-1.5964,-1.5945,-1.5932,-1.5932,-1.5932,-1.5932,-1.6046,-1.6462,-1.6469,-1.6348,-1.6253,-1.5016,-1.4082,-1.4082,-1.3862,-1.3842,-1.4251,-1.5263,-1.6052,-1.6346,-1.6233,-1.6326,-1.6774,-1.6867,-1.7007,-1.7293,-1.7514,-1.7582,-1.7582,-1.7141,-1.6907,-1.6907,-1.7134,-1.73,-1.7306,-1.7475,-1.7622,-1.7689,-1.7689,-1.7856,-1.8102,-1.8169,-1.8663,-1.9449,-2.0154,-2.0859,-2.1669,-2.2633,-2.2418,-2.1643,-2.1975,-2.1202,-1.9924,-2.2372,-2.2205,-2.1924,-2.1675,-2.1614,-2.1527,-2.1182,-2.1142,-2.1142,-2.1142,-2.1142,-2.1136,-2.1109,-2.1109,-2.1109,-2.1109,-2.1109,-2.1109,-2.1109,-2.1109,-2.1109,-2.1109,-2.0855,-2.0434,-1.9846,-1.9813,-1.9659,-1.9424,-1.9424,-1.9424,-1.9417,-1.9065,-1.8771,-1.849,-1.847,-1.813,-1.7602,-1.7889,-1.7849,-1.7582,-1.7582,-1.7582,-1.7582,-1.7582,-1.7582,-1.7582,-1.7582,-1.7582,-1.7582,-1.7582,-1.7582,-1.7582,-1.7582,-1.7582,-1.7582,-1.7582,-1.7414,-1.7112,-1.678,-1.6673,-1.6573,-1.6306,-1.644,-1.6573,-1.6299,-1.6239,-1.6239,-1.6239,-1.6239,-1.6462,-1.7032,-1.686,-1.6267,-1.5154,-1.4471,-1.4082,-1.3926,-1.3809,-1.4311,-1.5897,-1.6177,-1.6353,-1.6647,-1.6951,-1.7119,-1.7166,-1.7361,-1.7528,-1.7549,-1.7569,-1.7582,-1.7582,-1.7542,-1.7515,-1.7515,-1.7542,-1.7549,-1.7549,-1.7569,-1.7736,-1.7955,-1.7955,-1.8176,-1.847,-1.8744,-1.964,-2.0836,-1.9917,-2.0329,-2.1635,-2.1726,-2.1677,-2.1749,-2.3151,-2.2702,-2.1415,-2.1931,-2.1937,-2.1837,-2.1356,-2.1276,-2.1236,-2.1129,-2.1109,-2.1109,-2.1109,-2.1109,-2.1109,-2.1109,-2.1109,-2.1109,-2.1109,-2.1109,-2.1109,-2.1109,-2.1109,-2.1109,-2.1109,-2.1002,-2.0668,-2.008,-2.0067,-1.984,-1.9424,-1.9424,-1.9424,-1.9424,-1.9252,-1.9038,-1.8751,-1.8571,-1.8263,-1.7862,-1.7789,-1.7689,-1.7582,-1.7582,-1.7582,-1.7582,-1.7582,-1.7582,-1.7582,-1.7582,-1.7582,-1.7582,-1.7582,-1.7582,-1.7582,-1.7582,-1.7582,-1.7582,-1.7582,-1.7554,-1.7407,-1.7112,-1.6847,-1.668,-1.6567,-1.662,-1.6673,-1.6567,-1.654,-1.654,-1.654,-1.654,-1.6667,-1.7125,-1.6907,-1.6669,-1.6555,-1.6086,-1.5778,-1.5902,-1.574,-1.579,-1.6464,-1.654,-1.666,-1.7005,-1.6914,-1.7027,-1.744,-1.7407,-1.744,-1.7569,-1.7582,-1.7669,-1.7862,-1.7869,-1.7776,-1.7589,-1.7776,-1.7869,-1.7869,-1.8056,-1.8673,-1.9686,-1.9686,-1.9859,-2.0106,-2.0228,-2.0715,-2.1463,-2.193,-2.3039,-2.448,-2.538,-2.5206,-2.448,-2.5041,-2.4267,-2.3015,-2.1681,-2.1637,-2.1583,-2.1176,-2.1109,-2.1109,-2.1109,-2.1109,-2.1109,-2.1109,-2.1109,-2.1109,-2.1109,-2.1109,-2.1109,-2.1109,-2.1109,-2.1109,-2.1109,-2.1109,-2.1029,-2.0842,-2.0835,-2.0561,-1.9973,-1.996,-1.9766,-1.9424,-1.9424,-1.9424,-1.9424,-1.9424,-1.9205,-1.8918,-1.8811,-1.8551,-1.8115,-1.7956,-1.7816,-1.7716,-1.7622,-1.7582,-1.7582,-1.7582,-1.7582,-1.7582,-1.7582,-1.7582,-1.7582,-1.7582,-1.7582,-1.7582,-1.7582,-1.7582,-1.7582,-1.7582,-1.7582,-1.7542,-1.7393,-1.7134,-1.6961,-1.6867,-1.6914,-1.6961,-1.6867,-1.6847,-1.6847,-1.6847,-1.6847,-1.6934,-1.7286,-1.7121,-1.7081,-1.7395,-1.7108,-1.6881,-1.7045,-1.6834,-1.674,-1.6834,-1.6847,-1.6961,-1.7306,-1.7101,-1.7148,-1.7555,-1.7454,-1.7427,-1.7569,-1.7675,-1.7822,-1.7982,-1.8082,-1.8083,-1.7869,-1.8083,-1.8394,-1.8869,-1.8604,-1.9553,-2.1511,-2.1029,-2.1258,-2.1959,-2.1959,-2.237,-2.3031,-2.3599,-2.471,-2.6209,-2.7222,-2.6997,-2.6164,-2.6737,-2.6015,-2.4782,-2.1561,-2.1309,-2.1109,-2.1109,-2.1109,-2.1109,-2.1109,-2.1109,-2.1109,-2.1109,-2.1109,-2.1109,-2.1109,-2.1109,-2.1109,-2.1109,-2.1109,-2.1109,-2.1109,-2.1109,-2.0848,-2.0261,-2.0173,-1.9967,-1.9444,-1.943,-1.943,-1.9424,-1.9424,-1.9424,-1.9424,-1.9424,-1.9205,-1.8938,-1.9232,-1.9038,-1.8497,-1.849,-1.8317,-1.7962,-1.7709,-1.7582,-1.7582,-1.7582,-1.7582,-1.7582,-1.7582,-1.7582,-1.7582,-1.7582,-1.7582,-1.7582,-1.7582,-1.7582,-1.7582,-1.7582,-1.7582,-1.7582,-1.7582,-1.7582,-1.7515,-1.728,-1.742,-1.7508,-1.7266,-1.7206,-1.7206,-1.7206,-1.7206,-1.7293,-1.7528,-1.7582,-1.7488,-1.7253,-1.7206,-1.7099,-1.6754,-1.6714,-1.682,-1.7166,-1.7206,-1.732,-1.7555,-1.7582,-1.7582,-1.7582,-1.7589,-1.7589,-1.7589,-1.7883,-1.7995,-1.8002,-1.8337,-1.8497,-1.8497,-1.8497,-1.9236,-2.0661,-1.9243,-2.0266,-2.3348,-2.1805,-2.2101,-2.3822,-2.3822,-2.471,-2.5991,-2.4433,-2.471,-2.61,-2.61,-2.61,-2.6373,-2.8195,-2.7963,-2.6778,-2.1263,-2.1336,-2.1356,-2.1149,-2.1109,-2.1109,-2.1109,-2.1109,-2.1109,-2.1109,-2.1109,-2.1109,-2.1109,-2.1109,-2.1109,-2.1109,-2.1109,-2.1109,-2.1109,-2.1109,-2.0848,-2.0261,-2.0434,-2.0368,-1.9987,-1.9773,-1.9573,-1.9424,-1.9424,-1.9424,-1.9424,-1.9424,-1.9377,-1.9232,-1.9112,-1.8958,-1.8764,-1.8357,-1.8075,-1.7962,-1.7709,-1.7582,-1.7582,-1.7582,-1.7582,-1.7582,-1.7582,-1.7582,-1.7582,-1.7582,-1.7582,-1.7582,-1.7582,-1.7582,-1.7582,-1.7582,-1.7582,-1.7582,-1.7582,-1.7582,-1.7562,-1.7475,-1.7515,-1.7562,-1.7475,-1.7507,-1.7507,-1.7507,-1.7507,-1.7534,-1.7569,-1.7582,-1.7555,-1.7468,-1.7507,-1.7474,-1.7335,-1.7321,-1.7355,-1.7494,-1.7507,-1.7488,-1.7575,-1.7582,-1.7582,-1.7582,-1.7782,-1.7856,-1.7856,-1.819,-1.845,-1.8657,-1.8751,-1.8891,-1.9105,-1.8898,-1.9009,-1.9444,-2.0259,-2.1739,-2.372,-2.4319,-2.4873,-2.5434,-2.5434,-2.5654,-2.6045,-2.5599,-2.6273,-2.7647,-2.7933,-2.8048,-2.816,-2.9043,-2.9087,-2.8801,-2.1149,-2.1256,-2.1323,-2.1142,-2.1109,-2.1109,-2.1109,-2.1109,-2.1109,-2.1109,-2.1109,-2.1109,-2.1109,-2.1109,-2.1109,-2.1109,-2.1109,-2.1109,-2.1109,-2.1109,-2.0895,-2.0428,-2.0468,-2.0307,-1.99,-1.972,-1.9546,-1.9424,-1.9424,-1.9424,-1.9424,-1.9424,-1.9424,-1.9417,-1.9178,-1.9098,-1.9072,-1.8597,-1.8275,-1.8196,-1.7883,-1.7682,-1.7582,-1.7582,-1.7582,-1.7582,-1.7582,-1.7582,-1.7582,-1.7582,-1.7582,-1.7582,-1.7582,-1.7582,-1.7582,-1.7582,-1.7582,-1.7582,-1.7582,-1.7582,-1.7582,-1.7582,-1.7582,-1.7582,-1.7582,-1.7675,-1.7762,-1.7762,-1.7862,-1.7943,-1.7943,-1.7849,-1.7762,-1.7762,-1.7662,-1.7582,-1.7582,-1.7582,-1.7582,-1.7582,-1.7582,-1.7582,-1.7582,-1.7582,-1.7629,-1.7756,-1.805,-1.8223,-1.8223,-1.8504,-1.8744,-1.8918,-1.9038,-1.9185,-1.9424,-1.9192,-1.9706,-2.0867,-2.1383,-2.2983,-2.5608,-2.5936,-2.6436,-2.6997,-2.6997,-2.6997,-2.6997,-2.6997,-2.7596,-2.8564,-2.8818,-2.9023,-2.9228,-2.9658,-2.9824,-2.9883,-2.1109,-2.1109,-2.1109,-2.1109,-2.1109,-2.1109,-2.1109,-2.1109,-2.1109,-2.1109,-2.1109,-2.1109,-2.1109,-2.1109,-2.1109,-2.1109,-2.1109,-2.1109,-2.1109,-2.1109,-2.0982,-2.0688,-2.0394,-1.9973,-1.9477,-1.9379,-1.9424,-1.9424,-1.9424,-1.9424,-1.9424,-1.9424,-1.9424,-1.9424,-1.9424,-1.9424,-1.941,-1.9052,-1.8758,-1.8464,-1.8143,-1.7842,-1.7582,-1.7582,-1.7582,-1.7582,-1.7582,-1.7582,-1.7582,-1.7582,-1.7582,-1.7582,-1.7582,-1.7582,-1.7582,-1.7582,-1.7582,-1.7582,-1.7582,-1.7602,-1.7622,-1.7622,-1.7642,-1.7655,-1.7629,-1.7842,-1.8002,-1.8029,-1.8303,-1.849,-1.849,-1.827,-1.8035,-1.8035,-1.7822,-1.7635,-1.7662,-1.7615,-1.7595,-1.7622,-1.7622,-1.7622,-1.7622,-1.7649,-1.7782,-1.8015,-1.8364,-1.8531,-1.8531,-1.8804,-1.8965,-1.8965,-1.9225,-1.9424,-1.9424,-1.9424,-2.0816,-2.3599,-2.2258,-2.3869,-2.8067,-2.6717,-2.6879,-2.8291,-2.833,-2.835,-2.835,-2.8389,-2.8633,-2.8984,-2.9014,-2.9277,-2.9678,-3.0098,-3.0264,-3.0322,-2.1109,-2.1109,-2.1109,-2.1109,-2.1109,-2.1109,-2.1109,-2.1109,-2.1109,-2.1109,-2.1109,-2.1109,-2.1109,-2.1109,-2.1109,-2.1109,-2.1109,-2.1109,-2.1109,-2.1109,-2.0982,-2.0688,-2.0394,-2.0067,-1.9713,-1.9486,-1.9424,-1.9424,-1.9424,-1.9424,-1.9424,-1.9424,-1.9424,-1.9424,-1.9424,-1.9424,-1.941,-1.9052,-1.8758,-1.8464,-1.8109,-1.7856,-1.7582,-1.7582,-1.7582,-1.7582,-1.7582,-1.7582,-1.7582,-1.7582,-1.7582,-1.7582,-1.7582,-1.7582,-1.7582,-1.7582,-1.7582,-1.7582,-1.7582,-1.7762,-1.7896,-1.7896,-1.8123,-1.823,-1.7942,-1.7942,-1.8055,-1.8343,-1.8444,-1.849,-1.849,-1.8437,-1.8397,-1.8397,-1.8143,-1.7975,-1.8263,-1.7883,-1.7669,-1.7862,-1.7896,-1.7889,-1.7923,-1.815,-1.8323,-1.839,-1.8664,-1.8831,-1.8831,-1.9112,-1.9272,-1.9272,-1.9332,-1.9424,-1.9424,-1.9424,-2.0314,-2.2089,-2.1749,-2.3367,-2.6554,-2.6264,-2.6879,-2.831,-2.8643,-2.8779,-2.8809,-2.915,-2.9346,-2.9463,-2.9795,-2.998,-3.0117,-3.0576,-3.0742,-3.0752,-2.1109,-2.1109,-2.1109,-2.1109,-2.1109,-2.1109,-2.1109,-2.1109,-2.1109,-2.1109,-2.1109,-2.1109,-2.1109,-2.1109,-2.1109,-2.1109,-2.1109,-2.1109,-2.1109,-2.1109,-2.0982,-2.0688,-2.0394,-2.0094,-1.9806,-1.9512,-1.9424,-1.9424,-1.9424,-1.9424,-1.9424,-1.9424,-1.9424,-1.9424,-1.9424,-1.9424,-1.941,-1.9052,-1.8758,-1.8464,-1.8109,-1.7862,-1.7582,-1.7582,-1.7582,-1.7582,-1.7582,-1.7582,-1.7582,-1.7582,-1.7582,-1.7582,-1.7582,-1.7582,-1.7582,-1.7582,-1.7689,-1.7802,-1.7789,-1.8016,-1.8257,-1.8257,-1.8377,-1.845,-1.8297,-1.8364,-1.8455,-1.8664,-1.8811,-1.8905,-1.8905,-1.8677,-1.8537,-1.8677,-1.8275,-1.8095,-1.845,-1.809,-1.7916,-1.8223,-1.8075,-1.8042,-1.823,-1.8517,-1.8698,-1.8698,-1.8971,-1.9132,-1.9132,-1.9419,-1.9573,-1.9573,-1.9706,-1.9713,-1.9579,-1.9713,-2.0444,-2.181,-2.1653,-2.2901,-2.5254,-2.5072,-2.5977,-2.7705,-2.7834,-2.8353,-2.9248,-2.9473,-2.9687,-2.9893,-3.0107,-3.0332,-3.0557,-3.0801,-3.0889,-3.0889,-2.1109,-2.1109,-2.1109,-2.1109,-2.1109,-2.1109,-2.1109,-2.1109,-2.1109,-2.1109,-2.1109,-2.1109,-2.1109,-2.1109,-2.1109,-2.1109,-2.1109,-2.1109,-2.1109,-2.1109,-2.1002,-2.0762,-2.0414,-2.012,-1.988,-1.9539,-1.9424,-1.9424,-1.9424,-1.9424,-1.9424,-1.9424,-1.9339,-1.9292,-1.9292,-1.9265,-1.9205,-1.8958,-1.8684,-1.8397,-1.8089,-1.7862,-1.7582,-1.7582,-1.7582,-1.7582,-1.7582,-1.7417,-1.7199,-1.7199,-1.7199,-1.7199,-1.7199,-1.7417,-1.7595,-1.7649,-1.7842,-1.8002,-1.809,-1.8323,-1.8564,-1.8564,-1.8604,-1.8637,-1.8637,-1.8784,-1.8938,-1.8991,-1.9199,-1.9424,-1.9424,-1.8971,-1.8718,-1.8958,-1.8495,-1.8249,-1.8597,-1.8343,-1.823,-1.8531,-1.8295,-1.8317,-1.8611,-1.8858,-1.8998,-1.8998,-1.9272,-1.9446,-1.9446,-1.972,-1.9873,-1.9873,-2.0107,-2.0114,-1.9873,-2.0114,-2.0688,-2.1693,-2.1488,-2.241,-2.4343,-2.3812,-2.474,-2.6703,-2.6852,-2.779,-2.9331,-2.97,-3.0,-3.0322,-3.0322,-3.0547,-3.0889,-3.0889,-3.0889,-3.0889,-2.1109,-2.1109,-2.1109,-2.1109,-2.1109,-2.1109,-2.1109,-2.1109,-2.1109,-2.1109,-2.1109,-2.1109,-2.1109,-2.1109,-2.1109,-2.1109,-2.1109,-2.1109,-2.1109,-2.1109,-2.1089,-2.1049,-2.0528,-2.0153,-2.0174,-1.9646,-1.9424,-1.9424,-1.9424,-1.9424,-1.9424,-1.9424,-1.9232,-1.8985,-1.8985,-1.8844,-1.8611,-1.8564,-1.8377,-1.8049,-1.8009,-1.7862,-1.7582,-1.7582,-1.7582,-1.7582,-1.7582,-1.677,-1.5689,-1.5689,-1.5689,-1.5689,-1.5689,-1.6552,-1.7635,-1.7903,-1.7962,-1.8049,-1.8357,-1.8644,-1.8865,-1.8865,-1.9058,-1.931,-1.931,-1.9078,-1.8998,-1.9252,-1.9397,-1.9424,-1.9424,-1.9299,-1.9259,-1.9299,-1.9025,-1.8911,-1.9205,-1.8778,-1.8544,-1.8831,-1.8831,-1.8918,-1.9219,-1.9285,-1.9305,-1.9305,-1.9579,-1.974,-1.974,-2.0013,-2.0174,-2.0174,-2.0153,-2.0153,-2.0174,-2.0153,-2.0268,-2.0462,-2.0422,-2.1882,-2.4596,-2.3293,-2.3552,-2.5094,-2.6906,-2.783,-2.8202,-3.0007,-3.0752,-3.0801,-3.0801,-3.083,-3.0889,-3.0889,-3.0889,-3.0889,-2.1109,-2.1109,-2.0779,-1.9807,-1.9674,-1.9349,-1.8314,-1.9024,-1.9674,-1.9674,-2.0519,-2.1109,-2.1109,-2.1109,-2.1109,-2.1109,-2.1109,-2.1109,-2.1109,-2.1109,-2.1036,-2.0875,-1.9636,-1.922,-1.9934,-1.873,-1.8525,-1.9424,-1.9424,-1.9424,-1.9424,-1.9424,-1.9205,-1.8925,-1.8925,-1.8764,-1.8477,-1.831,-1.8163,-1.7975,-1.7856,-1.7702,-1.7582,-1.7582,-1.7582,-1.7582,-1.7582,-1.6658,-1.5524,-1.6333,-1.6062,-1.5524,-1.6393,-1.7094,-1.7642,-1.7902,-1.8109,-1.8357,-1.8651,-1.8951,-1.9172,-1.9172,-1.9272,-1.9424,-1.9424,-1.9265,-1.9205,-1.9339,-1.9424,-1.9424,-1.9424,-1.9232,-1.9172,-1.9339,-1.9118,-1.9025,-1.9325,-1.8998,-1.8778,-1.8911,-1.9072,-1.9225,-1.9417,-1.9424,-1.9432,-1.9599,-1.9726,-1.9873,-2.0034,-2.0321,-2.0481,-2.0481,-2.0641,-2.0641,-2.0481,-2.0641,-2.0641,-2.0481,-2.0648,-2.1293,-2.2427,-2.1612,-2.2255,-2.4209,-2.583,-2.6643,-2.7029,-2.9768,-3.0333,-2.9589,-3.0518,-3.0889,-3.0889,-3.0889,-3.0889,-3.0889]},{"header":{"parameterUnit":"m.s-1","parameterCategory":1,"la1":30.6,"la2":28.766,"lo1":-90.7593,"lo2":-88.6598,"dy":0.0162,"dx":0.0183,"nx":116,"ny":114,"refTime":"2023-04-25T00:00:00:Z","depth":0,"parameterNumber":3,"parameterNumberName":"V-component_of_WINDS"},"data":[0.0,0.0,0.0,0.0,0.0,0.0,0.0,0.0,0.0,0.0,0.0,0.0,0.0,0.0,0.0,0.0,0.0,0.0,0.0,0.0,0.0,0.0,0.0,0.0,0.0,0.0,0.0,0.0,0.0,0.0,0.0,0.0,0.0,0.0,0.0,0.0,0.0,0.0,0.0,0.0,0.0,0.0,0.0,0.0,0.0,0.0,0.0,0.0,0.0,0.0,0.0,0.0,0.0,0.0,0.0,0.0,0.0,0.0,0.0,0.0,0.0,0.0,0.0,0.0,0.0,0.0,0.0,0.0,0.0,0.0,0.0,0.0,0.0,0.0,0.0,0.0,0.0,0.0,0.0,0.0,0.0,0.0,0.0,0.0,0.0,0.0,0.0,0.0,0.0,0.0,0.0,0.0,0.0,0.0,0.0,0.0,0.0,0.0,0.0,0.0,0.0,0.0,0.0,0.0,0.0,0.0,0.0,0.0,0.0,0.0,0.0,0.0,0.0,0.0,0.0,0.0,0.0,0.0,0.0,0.0,0.0,0.0,0.0,0.0,0.0,0.0,0.0,0.0,0.0,0.0,0.0,0.0,0.0,0.0,0.0,0.0,0.0,0.0,0.0,0.0,0.0,0.0,0.0,0.0,0.0,0.0,0.0,0.0,0.0,0.0,0.0,0.0,0.0,0.0,0.0,0.0,0.0,0.0,0.0,0.0,0.0,0.0,0.0,0.0,0.0,0.0,0.0,0.0,0.0,0.0,0.0,0.0,0.0,0.0,0.0,0.0,0.0,0.0,0.0,0.0,0.0,0.0,0.0,0.0,0.0,0.0,0.0,0.0,0.0,0.0,0.0,0.0,0.0,0.0,0.0,0.0,0.0,0.0,0.0,0.0,0.0,0.0,0.0,0.0,0.0,0.0,0.0,0.0,0.0,0.0,0.0,0.0,0.0,0.0,0.0,0.0,0.0,0.0,0.0,0.0,0.0,0.0,0.0,0.0,0.0,0.0,0.0,0.0,0.0,0.0,0.0,0.0,0.0,0.0,0.0,0.0,0.0,0.0,0.0,0.0,0.0,0.0,0.0,0.0,0.0,0.0,0.0,0.0,0.0,0.0,0.0,0.0,0.0,0.0,0.0,0.0,0.0,0.0,0.0,0.0,0.0,0.0,0.0,0.0,0.0,0.0,0.0,0.0,0.0,0.0,0.0,0.0,0.0,0.0,0.0,0.0,0.0,0.0,0.0,0.0,0.0,0.0,0.0,0.0,0.0,0.0,0.0,0.0,0.0,0.0,0.0,0.0,0.0,0.0,0.0,0.0,0.0,0.0,0.0,0.0,0.0,0.0,0.0,0.0,0.0,0.0,0.0,0.0,0.0,0.0,0.0,0.0,0.0,0.0,0.0,0.0,0.0,0.0,0.0,0.0,0.0,0.0,0.0,0.0,0.0,0.0,0.0,0.0,0.0,0.0,0.0,0.0,0.0,0.0,0.0,0.0,0.0,0.0,0.0,0.0,0.0,0.0,0.0,0.0,0.0,0.0,0.0,0.0,0.0,0.0,0.0,0.0,0.0,0.0,0.0,0.0,0.0,0.0,0.0,0.0,0.0,0.0,0.0,0.0,0.0,0.0,0.0,0.0,0.0,0.0,0.0,0.0,0.0,0.0,0.0,0.0,0.0,0.0,0.0,0.0,0.0,0.0,0.0,0.0,0.0,0.0,0.0,0.0,0.0,0.0,0.0,0.0,0.0,0.0,0.0,0.0,0.0,0.0,0.0,0.0,0.0,0.0,0.0,0.0,0.0,0.0,0.0,0.0,0.0,0.0,0.0,0.0,0.0,0.0,0.0,0.0,0.0,0.0,0.0,0.0,0.0,0.0,0.0,0.0,0.0,0.0,0.0,0.0,0.0,0.0,0.0,0.0,0.0,0.0,0.0,0.0,0.0,0.0,0.0,0.0,0.0,0.0,0.0,0.0,0.0,0.0,0.0,0.0,0.0,0.0,0.0,0.0,0.0,0.0,0.0,0.0,0.0,0.0,0.0,0.0,0.0,0.0,0.0,0.0,0.0,0.0,0.0,0.0,0.0,0.0,0.0,0.0,0.0,0.0,0.0,0.0,0.0,0.0,0.0,0.0,0.0,0.0,0.0,0.0,0.0,0.0,0.0,0.0,0.0,0.0,0.0,0.0,0.0,0.0,0.0,0.0,0.0,0.0,0.0,0.0,0.0,0.0,0.0,0.0,0.0,0.0,0.0,0.0,0.0,0.0,0.0,0.0,0.0,0.0,0.0,0.0,0.0,0.0,0.0,0.0,0.0,0.0,0.0,0.0,0.0,0.0,0.0,0.0,0.0,0.0,0.0,0.0,0.0,0.0,0.0,0.0,0.0,0.0,0.0,0.0,0.0,0.0,0.0,0.0,0.0,0.0,0.0,0.0,0.0,0.0,0.0,0.0,0.0,0.0,0.0,0.0,0.0,0.0,0.0,0.0,0.0,0.0,0.0,0.0,0.0,0.0,0.0,0.0,0.0,0.0,0.0,0.0,0.0,0.0,0.0,0.0,0.0,0.0,0.0,0.0,0.0,0.0,0.0,0.0,0.0,0.0,0.0,0.0,0.0,0.0,0.0,0.0,0.0,0.0,0.0,0.0,0.0,0.0,0.0,0.0,0.0,0.0,0.0,0.0,0.0,0.0,0.0,0.0,0.0,0.0,0.0,0.0,0.0,0.0,0.0,0.0,0.0,0.0,0.0,0.0,0.0,0.0,0.0,0.0,0.0,0.0,0.0,0.0,0.0,0.0,0.0,0.0,0.0,0.0,0.0,0.0,0.0,0.0,0.0,0.0,0.0,0.0,0.0,0.0,0.0,0.0,0.0,0.0,0.0,0.0,0.0,0.0,0.0,0.0,0.0,0.0,0.0,0.0,0.0,0.0,0.0,0.0,0.0,0.0,0.0,0.0,0.0,0.0,0.0,0.0,0.0,0.0,0.0,0.0,0.0,0.0,0.0,0.0,0.0,0.0,0.0,0.0,0.0,0.0,0.0,0.0,0.0,0.0,0.0,0.0,0.0,0.0,0.0,0.0,0.0,0.0,0.0,0.0,0.0,0.0,0.0,0.0,0.0,0.0,0.0,0.0,0.0,0.0,0.0,0.0,0.0,0.0,0.0,0.0,0.0,0.0,0.0,0.0,0.0,0.0,0.0,0.0,0.0,0.0,0.0,0.0,0.0,0.0,0.0,0.0,0.0,0.0,0.0,0.0,0.0,0.0,0.0,0.0,0.0,0.0,0.0,0.0,0.0,0.0,0.0,0.0,0.0,0.0,0.0,0.0,0.0,0.0,0.0,0.0,0.0,0.0,0.0,0.0,0.0,0.0,0.0,0.0,0.0,0.0,0.0,0.0,0.0,0.0,0.0,0.0,0.0,0.0,0.0,0.0,0.0,0.0,0.0,0.0,0.0,0.0,0.0,0.0,0.0,0.0,0.0,0.0,0.0,0.0,0.0,0.0,0.0,0.0,0.0,0.0,0.0,0.0,0.0,0.0,0.0,0.0,0.0,0.0,0.0,0.0,0.0,0.0,0.0,0.0,0.0,0.0,0.0,0.0,0.0,0.0,0.0,0.0,0.0,0.0,0.0,0.0,0.0,0.0,0.0,0.0,0.0,0.0,0.0,0.0,0.0,0.0,0.0,0.0,0.0,0.0,0.0,0.0,0.0,0.0,0.0,0.0,0.0,0.0,0.0,0.0,0.0,0.0,0.0,0.0,0.0,0.0,0.0,0.0,0.0,0.0,0.0,0.0,0.0,0.0,0.0,0.0,0.0,0.0,0.0,0.0,0.0,0.0,0.0,0.0,0.0,0.0,0.0,0.0,0.0,0.0,0.0,0.0,0.0,0.0,0.0,0.0,0.0,0.0,0.0,0.0,0.0,0.0,0.0,0.0,0.0,0.0,0.0,0.0,0.0,0.0,0.0,0.0,0.0,0.0,0.0,0.0,0.0,0.0,0.0,0.0,0.0,0.0,0.0,0.0,0.0,0.0,0.0,0.0,0.0,0.0,0.0,0.0,0.0,0.0,0.0,0.0,0.0,0.0,0.0,0.0,0.0,0.0,0.0,0.0,0.0,0.0,0.0,0.0,0.0,0.0,0.0,0.0,0.0,0.0,0.0,0.0,0.0,0.0,0.0,0.0,0.0,0.0,0.0,0.0,0.0,0.0,0.0,0.0,0.0,0.0,0.0,0.0,0.0,0.0,0.0,0.0,0.0,0.0,0.0,0.0,0.0,0.0,0.0,0.0,0.0,0.0,0.0,0.0,0.0,0.0,0.0,0.0,0.0,0.0,0.0,0.0,0.0,0.0,0.0,0.0,0.0,0.0,0.0,0.0,0.0,0.0,0.0,0.0,0.0,0.0,0.0,0.0,0.0,0.0,0.0,0.0,0.0,0.0,0.0,0.0,0.0,0.0,0.0,0.0,0.0,0.0,0.0,0.0,0.0,0.0,0.0,0.0,0.0,0.0,0.0,0.0,0.0,0.0,0.0,0.0,0.0,0.0,0.0,0.0,0.0,0.0,0.0,0.0,0.0,0.0,0.0,0.0,0.0,0.0,0.0,0.0,0.0,0.0,0.0,0.0,0.0,0.0,0.0,0.0,0.0,0.0,0.0,0.0,0.0,0.0,0.0,0.0,0.0,0.0,0.0,0.0,0.0,0.0,0.0,0.0,0.0,0.0,0.0,0.0,0.0,0.0,0.0,0.0,0.0,0.0,0.0,0.0,0.0,0.0,0.0,0.0,0.0,0.0,0.0,0.0,0.0,0.0,0.0,0.0,0.0,0.0,0.0,0.0,0.0,0.0,0.0,0.0,0.0,0.0,0.0,0.0,0.0,0.0,0.0,0.0,0.0,0.0,0.0,0.0,0.0,0.0,0.0,0.0,0.0,0.0,0.0,0.0,0.0,0.0,0.0,0.0,0.0,0.0,0.0,0.0,0.0,0.0,0.0,0.0,0.0,0.0,0.0,0.0,0.0,0.0,0.0,0.0,0.0,0.0,0.0,0.0,0.0,0.0,0.0,0.0,0.0,0.0,0.0,0.0,0.0,0.0,0.0,0.0,0.0,0.0,0.0,0.0,0.0,0.0,0.0,0.0,0.0,0.0,0.0,0.0,0.0,0.0,0.0,0.0,0.0,0.0,0.0,0.0,0.0,0.0,0.0,0.0,0.0,0.0,0.0,0.0,0.0,0.0,0.0,0.0,0.0,0.0,0.0,0.0,0.0,0.0,0.0,0.0,0.0,0.0,0.0,0.0,0.0,0.0,0.0,0.0,0.0,0.0,0.0,0.0,0.0,0.0,0.0,0.0,0.0,0.0,0.0,0.0,0.0,0.0,0.0,0.0,0.0,0.0,0.0,0.0,0.0,0.0,0.0,0.0,0.0,0.0,0.0,0.0,0.0,0.0,0.0,0.0,0.0,0.0,0.0,0.0,0.0,0.0,0.0,0.0,0.0,0.0,0.0,0.0,0.0,0.0,0.0,0.0,0.0,0.0,0.0,0.0,0.0,0.0,0.0,0.0,0.0,0.0,0.0,0.0,0.0,0.0,0.0,0.0,0.0,0.0,0.0,0.0,0.0,0.0,0.0,0.0,0.0,0.0,0.0,0.0,0.0,0.0,0.0,0.0,0.0,0.0,0.0,0.0,0.0,0.0,0.0,0.0,0.0,0.0,0.0,0.0,0.0,0.0,0.0,0.0,0.0,0.0,0.0,0.0,0.0,0.0,0.0,0.0,0.0,0.0,0.0,0.0,0.0,0.0,0.0,0.0,0.0,0.0,0.0,0.0,0.0,0.0,0.0,0.0,0.0,0.0,0.0,0.0,0.0,0.0,0.0,0.0,0.0,0.0,0.0,0.0,0.0,0.0,0.0,0.0,0.0,0.0,0.0,0.0,0.0,0.0,0.0,0.0,0.0,0.0,0.0,0.0,0.0,0.0,0.0,0.0,0.0,0.0,0.0,0.0,0.0,0.0,0.0,0.0,0.0,0.0,0.0,0.0,0.0,0.0,0.0,0.0,0.0,0.0,0.0,0.0,0.0,0.0,0.0,0.0,0.0,0.0,0.0,0.0,3.2884,3.1058,0.0,0.0,0.0,0.0,0.0,0.0,0.0,0.0,0.0,0.0,0.0,0.0,0.0,0.0,0.0,0.0,0.0,0.0,0.0,0.0,0.0,0.0,0.0,0.0,0.0,0.0,0.0,0.0,0.0,0.0,0.0,0.0,0.0,0.0,0.0,0.0,0.0,0.0,3.1157,3.2256,3.3339,3.3645,3.2658,3.0615,0.0,0.0,0.0,0.0,0.0,0.0,0.0,0.0,0.0,0.0,0.0,0.0,0.0,0.0,0.0,0.0,0.0,0.0,0.0,0.0,0.0,0.0,0.0,0.0,0.0,0.0,0.0,0.0,0.0,0.0,0.0,0.0,0.0,0.0,0.0,0.0,0.0,0.0,0.0,0.0,0.0,0.0,0.0,0.0,0.0,0.0,0.0,0.0,0.0,0.0,0.0,0.0,0.0,0.0,0.0,0.0,0.0,0.0,0.0,0.0,0.0,0.0,0.0,0.0,0.0,0.0,0.0,0.0,0.0,0.0,3.5169,3.3462,0.0,0.0,0.0,0.0,0.0,0.0,0.0,0.0,0.0,0.0,0.0,0.0,0.0,0.0,0.0,0.0,0.0,0.0,0.0,0.0,0.0,0.0,0.0,3.1359,3.1915,3.1915,3.2282,3.2501,0.0,0.0,0.0,0.0,0.0,0.0,0.0,3.1428,3.1566,3.1842,3.3495,3.5309,3.7178,3.7203,3.5623,3.2713,3.1418,0.0,0.0,0.0,0.0,0.0,0.0,0.0,0.0,0.0,0.0,0.0,0.0,0.0,0.0,0.0,0.0,0.0,0.0,0.0,0.0,0.0,0.0,0.0,0.0,0.0,0.0,0.0,0.0,0.0,0.0,0.0,0.0,0.0,0.0,0.0,0.0,0.0,0.0,0.0,0.0,0.0,0.0,0.0,0.0,0.0,0.0,0.0,0.0,0.0,0.0,0.0,0.0,0.0,0.0,0.0,0.0,0.0,0.0,0.0,0.0,0.0,0.0,0.0,4.1885,4.1999,4.1624,4.1308,4.102,4.0667,3.8858,3.7549,3.663,3.4933,0.0,0.0,0.0,0.0,0.0,0.0,0.0,0.0,0.0,0.0,0.0,0.0,0.0,0.0,0.0,0.0,0.0,0.0,0.0,0.0,0.0,3.1553,3.2417,3.2417,3.2467,3.2501,3.2501,0.0,0.0,0.0,0.0,0.0,3.2333,3.2333,3.3019,3.4412,3.6827,3.8225,3.8717,3.9362,3.937,3.8779,3.531,3.3774,3.3691,0.0,0.0,0.0,0.0,0.0,0.0,0.0,0.0,0.0,0.0,0.0,0.0,0.0,0.0,0.0,0.0,0.0,0.0,0.0,0.0,0.0,0.0,0.0,0.0,0.0,0.0,0.0,0.0,0.0,0.0,0.0,0.0,0.0,0.0,0.0,0.0,0.0,0.0,0.0,0.0,0.0,3.8959,4.1055,0.0,0.0,0.0,0.0,0.0,0.0,0.0,0.0,0.0,0.0,0.0,0.0,0.0,4.2623,4.2549,4.5442,4.6279,4.5033,4.8231,4.8769,4.6952,4.8144,4.7872,4.6519,4.6367,0.0,3.9668,3.8768,0.0,0.0,0.0,0.0,0.0,0.0,0.0,0.0,0.0,0.0,0.0,0.0,0.0,0.0,0.0,0.0,0.0,0.0,0.0,0.0,0.0,3.3028,3.4245,3.4245,3.5712,3.6091,3.472,3.5062,0.0,0.0,0.0,3.2351,3.1179,3.2042,3.4163,3.7533,4.0062,4.1992,4.3314,4.3182,4.3127,4.3032,4.0461,3.8185,3.6151,3.4652,0.0,0.0,0.0,0.0,0.0,0.0,0.0,0.0,0.0,0.0,0.0,0.0,0.0,0.0,0.0,0.0,0.0,0.0,0.0,0.0,0.0,0.0,0.0,0.0,0.0,0.0,0.0,0.0,0.0,0.0,0.0,0.0,0.0,0.0,0.0,0.0,0.0,0.0,0.0,4.034,4.1573,4.253,4.2107,4.1213,0.0,0.0,0.0,0.0,0.0,0.0,0.0,0.0,0.0,4.4844,4.6395,4.6994,4.6553,4.9136,4.9881,4.8815,5.0439,5.0678,4.9765,5.0422,5.0568,5.0283,4.9907,4.8706,4.6788,4.3531,4.119,3.9564,0.0,0.0,0.0,0.0,3.6507,3.6394,0.0,0.0,0.0,0.0,0.0,0.0,0.0,0.0,0.0,0.0,0.0,0.0,3.277,3.5121,3.6712,3.6712,3.8661,3.9038,3.7055,3.7088,3.5765,3.2603,3.2842,3.2227,3.0457,3.3019,3.6577,4.098,4.3653,4.593,4.7832,4.7238,4.7077,4.718,4.5407,4.2577,3.9051,3.7802,3.5723,3.3245,0.0,0.0,0.0,0.0,0.0,0.0,0.0,0.0,0.0,0.0,0.0,0.0,0.0,0.0,0.0,0.0,0.0,0.0,0.0,0.0,0.0,0.0,0.0,0.0,0.0,0.0,0.0,0.0,0.0,0.0,0.0,0.0,0.0,0.0,0.0,0.0,0.0,4.3314,4.4626,4.4514,4.5268,4.4906,0.0,0.0,0.0,0.0,0.0,0.0,4.7358,4.7471,4.8058,4.9363,5.1058,5.1626,5.1029,5.2712,5.3142,5.2361,5.2361,5.2258,5.2087,5.2275,5.2563,5.2945,5.23,5.2246,5.2227,4.7752,4.4783,4.2968,4.2604,4.1648,4.0595,4.1277,4.1081,4.0723,0.0,0.0,0.0,0.0,0.0,0.0,0.0,0.0,0.0,0.0,0.0,3.4848,3.4848,3.7741,3.9682,3.9682,3.9827,3.9515,3.8634,3.7184,3.5569,3.3798,3.3028,3.2227,3.1352,3.6718,4.1246,4.4746,4.7857,4.9931,5.0952,5.0924,5.1331,5.1941,4.9506,4.6404,4.2894,4.0802,3.8585,3.628,3.4175,0.0,0.0,0.0,0.0,0.0,0.0,0.0,0.0,0.0,0.0,0.0,0.0,0.0,0.0,0.0,0.0,0.0,0.0,0.0,0.0,0.0,0.0,0.0,0.0,0.0,0.0,0.0,0.0,0.0,0.0,0.0,0.0,0.0,0.0,0.0,0.0,0.0,0.0,4.8312,5.0818,0.0,0.0,0.0,0.0,4.7696,4.7725,4.9096,5.209,5.225,5.3531,5.6407,5.6592,5.6617,5.6502,5.6626,5.6279,5.5468,5.5468,5.5126,5.4447,5.5133,5.509,5.4485,5.4383,5.3959,5.3157,5.0707,4.924,4.8353,4.6885,4.5838,4.5005,4.3672,4.4021,4.5094,0.0,0.0,0.0,0.0,0.0,0.0,0.0,0.0,3.1861,3.2137,3.4498,3.6271,3.6585,3.9701,4.189,4.2191,4.3644,4.4094,4.3079,4.0732,3.8545,3.6645,3.4526,3.4352,3.6434,4.0465,4.4457,4.8347,5.0282,5.2,5.3387,5.2901,5.2828,5.3074,5.2184,5.0809,4.889,4.5021,4.2443,4.0802,3.9013,3.613,0.0,0.0,0.0,0.0,0.0,0.0,0.0,0.0,0.0,0.0,0.0,0.0,0.0,0.0,0.0,0.0,0.0,0.0,0.0,0.0,0.0,0.0,0.0,0.0,0.0,0.0,0.0,0.0,0.0,0.0,0.0,0.0,0.0,0.0,0.0,0.0,0.0,5.3289,5.5195,0.0,5.3084,5.3297,5.3237,5.2436,5.3744,5.5241,5.6822,5.6902,5.7608,5.9128,5.9208,5.8939,5.8447,5.7918,5.7259,5.6478,5.5954,5.5564,5.5299,5.5582,5.5834,5.6044,5.5498,5.5397,5.5456,5.3593,5.1574,4.9575,4.9442,4.8928,4.8263,4.8164,4.8185,4.8286,0.0,0.0,0.0,0.0,0.0,0.0,0.0,0.0,3.2662,3.358,3.6067,3.8184,3.9352,4.2328,4.4453,4.5066,4.6576,4.6838,4.5221,4.2549,3.9802,3.7075,3.5403,3.687,4.1863,4.458,4.7875,5.1838,5.2982,5.4155,5.5323,5.4589,5.4384,5.4634,5.4109,5.3742,5.3265,4.9588,4.6784,4.4684,4.2941,4.0153,3.6835,0.0,0.0,0.0,0.0,0.0,0.0,0.0,0.0,0.0,0.0,0.0,0.0,0.0,0.0,0.0,0.0,0.0,0.0,0.0,0.0,0.0,0.0,0.0,0.0,0.0,0.0,0.0,0.0,0.0,0.0,0.0,0.0,0.0,0.0,5.3116,5.6235,5.6804,5.907,5.9727,5.7505,5.7925,5.8231,5.7944,5.9339,6.0404,6.0905,6.0931,6.1003,6.1202,6.1208,6.0847,6.007,5.9561,5.8748,5.7676,5.7128,5.6752,5.6483,5.6483,5.6467,5.6442,5.617,5.5882,5.5537,5.473,5.3081,5.1119,5.1516,5.1383,5.0995,5.1449,5.1326,5.0987,0.0,0.0,0.0,0.0,0.0,0.0,0.0,3.1315,3.2807,3.5468,3.8055,4.0597,4.3088,4.5563,4.7418,4.8287,4.8343,4.7324,4.4926,4.2353,3.9075,3.4996,3.5748,3.9757,4.7168,4.9005,5.1612,5.5212,5.5977,5.6538,5.684,5.6122,5.6205,5.6876,5.5384,5.5082,5.5646,5.4222,5.1477,4.7963,4.5744,4.3827,4.1936,0.0,0.0,0.0,0.0,0.0,0.0,0.0,0.0,0.0,0.0,0.0,0.0,0.0,0.0,0.0,0.0,0.0,0.0,0.0,0.0,0.0,0.0,0.0,0.0,0.0,0.0,0.0,0.0,0.0,0.0,0.0,0.0,0.0,5.166,5.6901,6.0226,5.8913,6.2609,6.4394,6.2221,6.2618,6.3293,6.4075,6.4127,6.4127,6.4127,6.4035,6.3613,6.2805,6.2725,6.2365,6.1557,6.1557,6.0786,5.9239,5.9184,5.8767,5.7997,5.7997,5.7152,5.5702,5.651,5.5519,5.3427,5.4142,5.3977,5.328,5.3203,5.3185,5.3185,5.3185,5.3185,5.3057,0.0,0.0,0.0,0.0,0.0,0.0,3.0541,3.194,3.3228,3.3997,3.8058,4.1298,4.2346,4.5962,4.8789,5.0014,4.9537,4.9007,4.8605,4.3717,3.9807,3.7484,4.0779,4.5069,5.0212,5.2482,5.4981,5.7791,5.771,5.7847,5.8171,5.7968,5.781,5.7684,5.7243,5.688,5.6554,5.6149,5.5014,5.3369,5.115,4.9029,4.6875,0.0,0.0,0.0,0.0,0.0,0.0,0.0,0.0,0.0,0.0,0.0,0.0,0.0,0.0,0.0,0.0,0.0,0.0,0.0,0.0,0.0,0.0,0.0,0.0,0.0,0.0,0.0,0.0,0.0,0.0,0.0,5.4214,5.6625,5.7949,6.1052,6.4108,6.6579,6.7963,6.8276,6.7049,6.7104,6.6591,6.5073,6.4971,6.4971,6.4971,6.2713,6.1575,6.1924,6.1374,6.0951,6.0731,6.0731,6.0511,6.007,5.8896,5.8217,5.7997,5.7997,5.7758,5.7354,5.7574,5.7281,5.6602,5.5647,5.5133,5.4821,5.3665,5.3185,5.3185,5.3185,5.3185,5.2839,0.0,0.0,0.0,0.0,0.0,0.0,3.0206,3.1845,3.3361,3.4158,3.8216,4.1523,4.2881,4.5993,4.8441,4.9562,4.9549,4.8803,4.7272,4.3086,4.1374,4.2933,4.5896,4.9646,5.425,5.605,5.7729,5.934,5.9117,5.9005,5.899,5.899,5.8755,5.8286,5.8286,5.7951,5.7376,5.7376,5.7098,5.6559,5.5242,5.3378,5.1082,4.8544,4.6729,4.5207,4.2713,4.2161,4.2277,3.9901,0.0,0.0,0.0,0.0,0.0,0.0,0.0,0.0,0.0,0.0,0.0,0.0,0.0,0.0,0.0,0.0,0.0,0.0,0.0,0.0,0.0,0.0,0.0,0.0,5.8437,6.1514,6.4238,6.5532,6.7266,7.0237,7.0605,7.0422,6.9963,6.9302,6.8329,6.6916,6.6494,6.6164,6.5815,6.3998,6.2695,6.2126,6.1998,6.1612,6.0915,6.1245,6.1245,6.0896,5.9612,5.8841,5.8492,5.8143,5.7629,5.7024,5.7703,5.7428,5.6455,5.5849,5.539,5.4968,0.0,0.0,0.0,0.0,5.3185,5.2839,0.0,0.0,0.0,0.0,0.0,0.0,2.981,3.1426,3.3359,3.5364,3.8568,4.1597,4.4036,4.595,4.7382,4.8182,4.8779,4.745,4.3511,4.1801,4.3506,4.9325,5.0568,5.3414,5.8338,5.9223,5.981,6.0175,6.0175,5.9931,5.9494,5.9494,5.9231,5.8795,5.8795,5.8547,5.8146,5.8097,5.8092,5.807,5.802,5.6755,5.4591,5.1869,5.0767,5.028,4.7469,4.6136,4.5466,4.3761,0.0,0.0,0.0,0.0,0.0,0.0,0.0,0.0,0.0,0.0,0.0,0.0,0.0,0.0,0.0,0.0,0.0,0.0,0.0,0.0,0.0,0.0,0.0,0.0,6.2346,6.5742,6.9669,6.9614,6.9743,7.1238,7.1421,7.1413,7.1293,7.0018,6.91,6.8917,6.8146,6.7375,6.6659,6.6274,0.0,0.0,0.0,6.3099,6.1612,6.231,6.2273,6.1447,6.0658,5.985,5.9038,5.8327,5.7207,5.5941,5.7373,5.6785,5.484,5.5372,5.506,5.4197,5.3482,5.3185,5.3167,5.3004,5.3038,5.2949,0.0,0.0,0.0,0.0,0.0,0.0,3.0647,3.1943,3.3704,3.6154,3.9522,4.2375,4.4111,4.6534,4.8334,4.9086,4.8067,4.648,4.437,4.3802,4.5668,5.0399,5.2646,5.5491,5.9184,6.0108,6.0584,6.0659,6.0659,6.0424,5.9962,5.9962,5.9709,5.9248,5.9248,5.9212,5.9103,5.8735,5.8549,5.8526,5.8146,5.7725,5.7141,5.5383,5.4693,5.4356,5.1958,5.1784,5.2245,4.9571,4.8969,4.9106,4.7716,4.6045,0.0,0.0,0.0,0.0,0.0,0.0,0.0,0.0,0.0,0.0,0.0,0.0,0.0,0.0,0.0,0.0,0.0,0.0,0.0,6.2456,6.4769,6.721,7.0605,7.0936,7.1211,7.2165,7.2275,7.2018,7.1348,7.1027,7.0312,6.9009,6.8146,6.7614,6.7467,6.4971,6.3631,6.3833,6.2695,6.1924,6.1594,6.1741,6.1429,6.0621,5.9808,0.0,5.8235,5.807,5.7831,5.7538,5.785,5.774,5.7207,5.6069,5.473,5.3427,5.3259,5.3185,5.3038,5.1738,5.2105,5.2784,0.0,0.0,0.0,0.0,0.0,0.0,3.0195,3.1356,3.276,3.4551,3.745,4.0132,4.2178,4.3594,4.4901,4.6133,4.5144,4.4993,4.6325,4.7217,4.964,5.3954,5.6136,5.8194,6.0219,6.0672,6.088,6.08,6.08,6.0678,6.0437,6.0437,6.0208,5.9741,5.9741,5.9628,5.9372,5.9158,5.9047,5.9028,5.8814,5.8549,5.823,5.728,5.6897,5.6794,5.6066,5.6037,5.6143,5.4681,5.4171,5.3956,5.2807,5.1417,4.9694,0.0,0.0,0.0,0.0,0.0,0.0,0.0,0.0,0.0,0.0,0.0,0.0,0.0,0.0,5.4051,5.6877,0.0,6.1741,6.5833,6.7504,6.9137,7.156,7.1908,7.2055,7.2459,7.2496,7.2349,7.1945,7.156,7.0807,6.9596,6.8752,6.8109,6.7705,6.6127,6.5081,6.4714,6.3888,6.3062,6.2218,6.2199,6.1998,6.1594,6.0786,5.9979,5.9189,5.8786,5.8382,5.7997,5.7997,5.7997,5.7868,5.6253,5.4638,5.3185,5.3185,5.3185,5.3093,5.2307,5.2527,5.2913,0.0,0.0,0.0,0.0,0.0,0.0,0.0,3.0519,3.1812,3.3218,3.5348,3.7711,4.0208,4.0515,4.1023,4.2266,4.2286,4.3926,4.7848,5.014,5.3253,5.7503,5.9176,6.032,6.1053,6.1023,6.0944,6.0834,6.0816,6.08,6.08,6.08,6.061,6.0236,6.0236,6.0025,5.9677,5.9559,5.9545,5.9545,5.9424,5.9158,5.8776,5.8307,5.8092,5.8088,5.8749,5.858,5.8101,5.8127,5.781,5.7306,5.6568,5.5976,5.482,5.0832,5.1203,0.0,0.0,0.0,0.0,0.0,0.0,0.0,0.0,5.2362,5.2839,5.5482,5.6418,5.7997,6.2034,6.3447,6.5173,6.8788,6.9908,7.0844,7.2294,7.2496,7.2569,7.2716,7.2606,7.2496,7.2496,7.1927,7.1211,7.0385,6.9596,6.8788,6.7962,6.7779,6.71,6.5815,6.5466,6.4659,6.3294,6.2945,6.2707,6.2567,6.1906,6.1098,6.0144,5.9496,5.8767,5.7997,5.7997,5.7905,5.7648,5.6198,5.473,5.3427,5.3259,5.3185,5.3185,5.3185,5.3185,5.3096,0.0,0.0,0.0,0.0,0.0,0.0,0.0,0.0,3.2232,3.4864,3.6186,3.7812,4.025,4.061,4.041,3.978,4.1841,4.4358,4.7233,5.0449,5.4184,5.8536,5.9548,6.0394,6.124,6.1097,6.0988,6.0981,6.0858,6.08,6.08,6.08,6.0769,6.0714,6.0714,6.069,6.0622,6.0208,6.0025,5.9996,5.9578,5.9354,5.9266,5.8796,5.8354,5.7997,5.8107,5.8079,5.8014,5.8014,5.843,5.8817,5.8096,5.829,5.8141,5.4784,5.4042,5.3321,4.9003,4.821,4.9495,5.3093,5.4528,5.5794,0.0,6.0364,6.1429,6.1771,6.3613,6.5521,6.6769,6.7687,6.8843,7.0706,7.1119,7.1486,7.2367,7.2496,7.2771,7.3468,7.2936,7.2496,7.2496,7.2422,7.2037,7.1248,7.0422,6.9614,6.8807,6.8091,6.7614,6.743,6.6054,6.5228,6.5026,6.3532,6.2456,6.1722,6.163,6.0805,5.9313,5.9239,5.8767,5.7997,5.7997,5.7593,5.6877,5.5959,5.506,5.4197,5.3482,5.3185,5.3185,5.3185,5.3185,5.3096,0.0,0.0,0.0,0.0,0.0,0.0,0.0,0.0,0.0,3.2802,3.3389,3.4648,3.7296,3.8053,3.7823,3.6444,4.0146,4.368,4.6367,5.1219,5.5496,5.8934,6.0306,6.1114,6.1404,6.1335,6.1244,6.116,6.1009,6.0925,6.0915,6.0853,6.08,6.08,6.08,6.08,6.08,6.0578,6.0508,6.0469,5.9996,5.9644,5.9337,5.8874,5.8119,5.7299,5.7299,5.7299,0.0,5.7831,5.8213,5.8616,5.9235,5.8387,5.688,5.5514,5.4474,5.3553,5.2776,5.3225,5.4583,5.7226,5.9226,6.1006,6.2842,6.4145,6.5099,6.5558,6.6843,6.8293,6.9559,7.0073,7.0679,7.1817,7.2,7.2129,7.2459,7.2496,7.2459,7.233,7.1596,7.1284,7.1762,7.2239,7.178,7.0036,7.0477,7.0257,6.8972,6.8586,6.8183,6.7705,6.6586,6.5999,6.5999,6.4365,6.3392,6.3025,6.2071,6.1006,5.9887,5.9404,5.8767,5.7997,5.7997,5.7538,5.6748,5.5923,5.5115,5.4326,5.3518,5.3185,5.3185,5.3185,5.3185,5.3148,0.0,0.0,0.0,0.0,0.0,0.0,0.0,0.0,0.0,0.0,3.1268,3.2278,3.4852,3.5661,3.5622,3.4641,3.8708,4.2539,4.5455,5.0923,5.5375,5.8359,6.0312,6.1305,6.12,6.1398,6.1451,6.1369,6.1116,6.0997,6.0997,6.0869,6.08,6.08,6.08,6.08,6.08,6.0647,6.061,6.0565,6.0103,5.9709,5.9318,5.8632,5.752,5.6307,5.6169,5.6014,5.5794,5.5702,5.6271,5.7097,5.7593,5.6748,5.55,5.506,5.3794,5.3004,5.5042,5.629,5.7611,6.0107,6.2603,6.4695,6.5723,6.6769,6.7724,6.8531,6.9155,7.0,7.1394,7.1651,7.1835,7.2422,7.2496,7.2496,7.2496,7.2312,7.1872,7.1064,6.9871,6.9247,6.9605,7.0991,7.1303,7.0,7.0569,7.0477,6.9302,6.8807,6.8293,6.7705,6.6916,6.6384,6.6164,6.4787,6.398,6.3723,6.2511,6.1392,6.0382,5.9355,5.8547,5.7997,5.7997,5.7666,5.7079,5.6253,5.5464,5.4638,5.3849,5.3387,5.3185,5.3185,5.3185,5.3185,0.0,0.0,0.0,0.0,0.0,0.0,0.0,0.0,0.0,0.0,0.0,0.0,0.0,3.4263,3.4603,3.5385,3.7986,4.1048,4.4517,4.8935,5.2995,5.6523,5.9082,6.0449,6.043,6.1126,6.1501,6.1501,6.1161,6.0997,6.0997,6.0869,6.08,6.08,6.08,6.08,6.0769,6.0305,6.0132,6.0069,5.9611,5.9407,5.9261,5.8015,5.6553,5.5099,5.4649,5.3977,5.2968,5.0657,5.1922,5.4106,5.1811,5.317,5.528,5.3739,5.2142,5.1555,5.473,5.506,5.5647,6.0382,6.3429,6.5687,6.7265,6.8843,7.022,7.1027,7.1201,7.1486,7.2312,7.2459,7.2477,7.2496,7.2496,7.2496,7.2496,7.1835,7.1046,7.022,6.8054,6.6311,6.5576,6.8329,7.0789,7.2275,7.0991,7.011,7.0073,6.8568,6.7724,6.7687,6.6916,6.6127,6.5356,6.4512,6.3686,6.286,6.2805,6.1942,6.0346,5.8767,5.8015,5.7997,5.7997,5.7997,5.7905,5.7097,5.629,5.5464,5.4675,5.3904,5.3185,5.3185,5.3185,5.3185,0.0,0.0,0.0,0.0,0.0,0.0,0.0,0.0,0.0,0.0,0.0,0.0,0.0,0.0,0.0,0.0,3.6485,3.8907,4.1854,4.7221,5.1391,5.3836,5.7577,5.9844,6.039,6.0641,6.1017,6.1504,6.1293,6.1135,6.0997,6.0869,6.08,6.08,6.08,6.0622,6.0324,6.0161,6.0224,6.0354,5.9347,5.925,5.9491,5.7122,5.523,5.3457,0.0,4.9369,4.9021,4.8233,4.8673,4.9701,5.0545,5.0417,4.9797,4.8992,5.0693,5.3199,5.4771,5.7015,5.973,6.318,6.5485,6.7173,6.8256,6.9743,7.0825,7.0569,6.9229,6.8201,6.8476,6.765,6.7265,6.8348,6.9412,7.0679,7.2275,7.0899,6.9816,7.0073,6.7962,6.7026,6.8366,6.8495,6.8715,6.9265,7.0789,7.1229,7.0146,6.9577,6.8788,6.7724,6.743,6.7155,6.6898,6.5558,6.4751,6.4439,6.2254,6.0658,5.9551,5.8492,5.7997,5.7997,5.7997,5.7997,5.7941,5.7134,5.6638,5.6253,5.4913,5.4234,5.4014,5.4014,5.3665,5.3185,0.0,0.0,0.0,0.0,0.0,0.0,0.0,0.0,0.0,0.0,0.0,0.0,0.0,0.0,0.0,0.0,0.0,3.673,4.0047,4.3937,4.7202,4.9679,5.3105,5.5185,5.5712,5.6607,5.7469,5.8256,5.8712,5.9034,5.9205,5.921,5.9222,5.9242,5.9377,5.9435,5.9399,5.8935,5.9027,5.9328,5.748,5.7033,5.7214,5.4475,5.2435,0.0,4.7388,4.5865,4.5296,4.4709,4.5278,4.636,4.7113,4.704,4.6875,4.7975,5.0614,5.3738,5.6121,5.9014,6.2058,6.5,6.7155,6.8605,6.8862,7.0385,7.1431,7.033,6.8862,6.743,6.6274,6.5228,6.4769,6.5521,6.6751,6.8568,7.1266,6.9816,6.877,6.9577,6.754,6.6788,6.8641,6.8128,6.7816,6.8109,7.0036,7.0642,6.9302,6.9229,6.8898,6.8146,6.8128,6.7852,6.7265,6.6256,6.5448,6.4842,6.2126,6.0419,5.9588,5.8804,5.8033,5.7383,5.7812,5.7761,5.7342,5.7257,5.706,5.6716,5.5849,5.5236,5.4806,5.4688,5.4223,5.3628,0.0,0.0,0.0,0.0,0.0,0.0,0.0,0.0,0.0,0.0,0.0,0.0,0.0,0.0,0.0,0.0,0.0,0.0,3.8935,3.9368,4.0975,4.4354,4.6238,4.7235,4.7274,4.9668,5.1312,5.2172,5.3644,5.4793,5.5602,5.5858,5.5967,5.5979,5.6414,5.7003,5.7582,5.6407,5.6385,5.6846,5.408,5.2983,5.2821,5.038,4.8471,4.6874,4.5223,4.3644,4.2066,4.0579,4.2213,4.4507,4.2266,4.3679,4.6911,5.0609,5.2011,5.3509,5.8646,6.0944,6.2634,6.5778,6.8311,6.9834,6.9027,7.0679,7.189,7.0146,6.9651,6.855,6.5356,6.4751,6.4567,6.3998,6.4732,6.6476,6.9651,6.8788,6.8091,6.8807,6.6898,6.5833,6.6659,6.743,6.8164,6.8862,6.9009,6.8733,6.7926,6.7834,6.8146,6.888,6.8862,6.8109,6.6586,6.6476,6.565,6.4071,6.2401,6.1172,6.0382,5.9551,5.8135,5.6356,5.7501,5.7346,5.6375,5.7538,5.7556,5.6885,5.7338,5.6753,5.5668,5.5375,5.4923,5.4467,0.0,0.0,0.0,0.0,0.0,0.0,0.0,0.0,0.0,0.0,0.0,0.0,0.0,0.0,0.0,0.0,0.0,0.0,3.5096,3.7546,3.9741,4.1646,4.4486,4.6333,4.6999,4.7837,4.8545,4.9114,4.9711,5.0046,5.0121,5.0182,5.0104,4.9958,5.0652,5.078,5.0467,5.0727,5.1119,5.1426,5.009,5.0306,5.1151,4.8691,4.7461,4.6801,4.4599,4.3149,4.2323,4.2506,4.4709,4.7445,4.778,4.8903,5.0622,5.3417,5.5845,5.8258,6.1374,6.3966,6.6031,6.7122,6.8311,6.9009,6.8183,6.9412,6.9743,6.6329,6.3686,6.1006,5.7776,5.7189,5.8088,6.0896,6.4071,6.7118,6.9724,6.9743,6.9339,6.8953,6.8366,6.8531,6.9945,7.0275,6.9981,6.8972,7.0569,7.1229,7.044,6.9816,6.9302,6.8917,6.8311,6.7797,6.7393,6.62,6.5099,6.4071,6.2401,6.1172,6.0382,5.9551,5.8598,5.7553,5.7882,5.7826,5.7553,5.7859,5.7886,5.7679,5.7561,5.7292,5.7048,5.732,5.6527,5.5445,0.0,0.0,0.0,0.0,0.0,0.0,0.0,0.0,0.0,0.0,0.0,0.0,0.0,0.0,0.0,0.0,0.0,0.0,0.0,3.5022,3.6329,3.7445,3.9632,4.1041,4.1538,4.2414,4.318,4.3837,4.4713,4.5283,4.5559,4.5734,4.5737,4.5622,4.6253,4.6495,4.6448,4.6539,4.7109,0.0,0.0,4.6966,4.7939,4.6195,4.5535,4.5351,4.3975,4.3883,4.4726,4.6831,4.8269,4.9599,5.1909,5.2864,5.3674,5.6724,5.8715,6.0458,6.3031,6.5541,6.7566,6.8106,6.8825,6.8843,6.6623,6.7081,6.6733,6.2328,5.996,5.7703,5.4473,5.5023,5.684,5.9465,6.3319,6.6824,6.9229,6.9265,6.9137,6.9394,6.9119,6.9669,7.1651,7.1835,7.1468,7.055,7.1082,7.1101,7.0293,6.9834,6.9522,6.9431,6.8641,6.7889,6.7173,6.5925,6.4897,6.4071,6.275,6.152,6.0382,5.9942,5.881,5.7242,5.7757,5.771,5.7263,5.8008,5.8326,5.8338,5.8559,5.8517,5.8334,5.8464,5.7775,5.6762,0.0,0.0,0.0,0.0,0.0,0.0,0.0,0.0,0.0,0.0,0.0,0.0,0.0,0.0,0.0,0.0,0.0,0.0,0.0,0.0,3.2326,3.3204,3.4033,3.4473,3.4473,3.6054,3.7227,3.7931,3.9425,4.0549,4.1298,4.1648,4.1796,4.1763,4.2232,4.2796,4.337,4.2782,4.3406,4.4654,4.3276,4.324,4.4011,0.0,4.324,4.3369,4.3571,4.5076,4.7555,5.1594,5.2124,5.1726,5.5314,5.6239,5.6668,6.0035,6.0996,6.154,6.4155,6.6254,6.7852,6.8568,6.9357,6.8935,6.5118,6.4714,6.3723,5.8712,5.7501,5.6436,5.3445,5.5427,5.796,5.9318,6.2787,6.6072,6.8274,6.8348,6.8568,6.9651,6.9357,6.9981,7.2275,7.2312,7.2275,7.2477,7.1101,7.0,6.9412,6.9192,6.9284,6.9761,6.91,6.8017,6.6512,6.5705,6.4897,6.409,6.3227,6.2016,6.0566,6.0456,5.8997,5.6648,5.7571,5.7416,5.6559,5.7994,5.8634,5.8795,5.9661,5.9808,5.9467,5.924,5.8805,5.8154,0.0,0.0,0.0,0.0,0.0,0.0,0.0,0.0,0.0,0.0,2.7705,2.8841,0.0,0.0,0.0,0.0,0.0,0.0,0.0,0.0,0.0,3.2354,3.2975,3.3291,3.3291,3.4496,3.5061,3.4958,3.5504,3.5876,3.6027,3.6085,3.5968,3.5739,3.6526,3.6809,3.6729,3.7294,3.8098,3.8924,3.8649,3.942,4.0781,4.1332,0.0,0.0,4.4011,4.5186,4.6947,5.243,5.4704,5.5809,5.8886,6.0239,6.0978,6.2296,6.3297,6.4211,6.5444,6.6704,6.7724,6.7852,6.8513,6.8403,6.5723,6.4695,6.2732,5.7152,5.495,5.3463,5.1573,5.3298,5.6381,6.0511,6.3503,6.5687,6.6769,6.91,7.0036,6.8311,6.9174,7.0587,7.233,7.1303,7.1064,7.2404,7.1633,7.1321,7.1853,7.0605,6.9339,6.8146,6.7962,6.7448,6.6512,6.5705,6.4897,6.409,6.3227,6.231,6.1374,6.0694,5.9769,5.8662,5.8208,5.7877,5.771,5.8009,5.8351,5.8755,5.932,5.9709,6.0021,6.0355,5.9962,5.9133,0.0,0.0,0.0,0.0,0.0,0.0,0.0,2.4846,2.5541,2.6068,2.7136,2.8436,3.0028,3.0015,3.0222,0.0,0.0,0.0,0.0,0.0,0.0,0.0,3.0612,3.1489,3.1899,3.3023,3.3733,3.3999,0.0,3.4232,3.4232,3.4232,3.4148,3.4018,3.4424,3.4537,3.4399,3.4816,3.5459,3.6285,3.7162,3.8465,4.0029,0.0,0.0,0.0,4.4268,4.5223,4.6561,5.09,5.3271,5.5358,6.0636,6.2538,6.2796,6.2758,6.3832,6.501,6.5022,6.6618,6.8311,6.8311,6.8293,6.7192,6.308,6.119,5.8676,5.2986,5.1187,5.0417,4.9646,5.1848,5.5078,5.9079,6.2511,6.5246,6.688,6.8807,6.9779,6.9027,6.9614,7.0403,7.1174,7.055,7.0422,7.1193,7.0513,7.0587,7.1817,7.0348,6.8935,6.7751,6.7283,6.6678,6.5888,6.5081,6.4255,6.3429,6.3007,6.2383,6.1557,6.0768,5.996,5.9148,5.8345,5.7641,5.7143,5.7999,5.8271,5.8237,5.9355,6.0055,6.0495,6.0734,6.0531,6.005,0.0,0.0,0.0,0.0,0.0,0.0,0.0,2.4712,2.5592,2.6251,2.7181,2.8408,2.9993,3.0612,3.0941,0.0,0.0,0.0,0.0,0.0,0.0,0.0,0.0,0.0,3.0724,0.0,0.0,3.368,3.368,0.0,0.0,0.0,0.0,0.0,3.3807,3.3807,3.3807,3.3807,3.4376,0.0,0.0,3.8319,0.0,0.0,0.0,0.0,0.0,4.5002,4.5918,4.9399,5.1219,5.3214,6.0028,6.2259,6.2231,6.1825,6.3158,6.4714,6.442,6.6439,6.8678,6.8862,6.8293,6.6292,6.0933,5.8345,5.55,4.9976,4.8563,4.8416,4.8783,5.0967,5.3849,5.7409,6.0254,6.3227,6.6696,6.7577,6.844,6.9926,7.0091,7.0238,7.0569,7.0293,7.0165,7.0348,6.9449,6.9467,7.0734,6.9596,6.8458,6.7467,6.6824,6.6035,6.5063,6.442,6.3668,6.278,6.278,6.2475,6.1814,6.086,6.007,5.9386,5.8419,5.7331,5.6323,5.7899,5.8109,5.7619,5.9303,6.0122,6.0397,6.0681,6.0685,6.0416,0.0,0.0,0.0,0.0,0.0,0.0,0.0,2.4932,2.5574,2.8333,2.818,2.8383,2.9932,2.9833,2.9676,0.0,0.0,0.0,0.0,0.0,0.0,0.0,0.0,0.0,0.0,0.0,0.0,3.3258,3.3258,0.0,0.0,0.0,0.0,0.0,0.0,3.3807,3.3807,3.3807,0.0,0.0,0.0,0.0,0.0,0.0,0.0,0.0,0.0,4.4287,4.4502,4.9662,5.0675,5.0633,5.5454,5.7509,5.8337,5.9223,6.1159,6.333,6.4806,6.6476,6.7981,6.8715,6.8293,6.6586,6.2346,5.9575,5.6492,5.1573,4.937,4.8783,5.0288,5.082,5.2546,5.7244,5.6473,5.7685,6.4567,6.4952,6.5907,6.9651,7.0091,7.066,7.2147,7.0954,7.0403,7.1138,6.9779,6.8972,6.9119,6.899,6.8201,6.6659,6.6531,6.576,6.4218,6.4127,6.3668,6.278,6.278,6.2768,6.2658,6.1098,6.0364,6.0199,5.8676,5.7331,5.6303,5.7549,5.7622,5.7125,5.8818,5.9267,5.912,6.0346,6.03,5.9608,0.0,0.0,0.0,0.0,0.0,0.0,2.4661,2.4694,2.5252,2.7351,2.8129,2.8755,2.9364,3.009,3.0165,2.9279,0.0,0.0,0.0,0.0,0.0,0.0,0.0,0.0,0.0,0.0,3.1801,3.2777,3.2777,0.0,0.0,0.0,0.0,0.0,0.0,3.3807,3.3807,3.3807,0.0,0.0,0.0,0.0,0.0,0.0,0.0,0.0,0.0,0.0,4.3825,4.5963,4.6965,4.7573,4.8901,5.0564,5.265,5.6026,5.9428,6.2218,6.2897,6.6035,6.899,6.8329,6.721,6.5063,6.0474,5.7574,5.4583,5.0196,4.8765,4.8508,4.9169,4.9297,5.0251,5.3188,5.3261,5.4987,6.0823,6.2199,6.4273,6.8843,6.9816,7.0348,7.0991,7.0036,6.9119,6.8458,6.7642,6.7225,6.7457,6.7467,6.7155,6.6512,6.5063,6.398,6.3319,6.2365,6.1942,6.2071,6.1594,6.1612,6.2016,6.0419,5.9661,5.963,5.8492,5.6892,5.5209,5.719,5.7109,5.6008,5.8455,5.9146,5.8949,6.0315,6.0242,5.9588,0.0,0.0,0.0,0.0,0.0,2.2868,2.4575,2.4643,2.5269,2.7418,2.8062,2.8654,2.9551,3.0194,3.0228,2.9416,2.8925,0.0,0.0,0.0,0.0,0.0,0.0,0.0,0.0,0.0,3.1391,3.2281,3.2281,3.2516,0.0,0.0,3.3346,3.3638,0.0,0.0,0.0,0.0,0.0,0.0,0.0,0.0,0.0,0.0,0.0,0.0,0.0,0.0,0.0,0.0,0.0,4.5498,4.5168,4.6067,4.8159,5.2803,5.7189,6.0676,6.141,6.5595,6.9467,6.8329,6.6494,6.3796,5.9373,5.6124,5.2949,4.9095,4.8306,4.8306,4.8306,4.8306,4.8857,5.0527,5.1279,5.3243,5.7827,5.9483,6.1906,6.6549,6.7614,6.8421,6.9633,6.9449,6.8586,6.6971,6.642,6.6137,6.6153,6.5925,6.5778,6.5778,6.3851,6.2695,6.2456,6.1098,6.0676,6.1245,6.0915,6.073,6.0687,5.9921,5.9223,5.8643,5.8194,5.6802,5.5036,5.7137,5.6956,5.5621,5.8346,5.8913,5.8409,5.9875,5.9704,5.8896,0.0,0.0,0.0,0.0,0.0,0.0,2.5237,2.4966,2.5845,2.9583,2.8112,2.7858,3.0852,2.989,2.9314,3.004,2.8686,0.0,0.0,0.0,0.0,0.0,0.0,0.0,0.0,0.0,3.0677,3.1807,3.1807,3.2039,3.2517,3.2983,3.3199,3.3229,0.0,0.0,0.0,0.0,0.0,0.0,0.0,0.0,0.0,0.0,0.0,0.0,0.0,0.0,0.0,0.0,0.0,0.0,0.0,4.5369,4.5553,4.9646,5.4252,5.8547,6.0951,6.5173,6.8917,6.8898,6.6476,6.3246,5.9936,5.6084,5.2289,4.8985,4.8306,4.8306,4.8306,4.8306,4.8857,5.0527,5.082,5.2215,5.6271,5.684,5.8364,6.2377,6.2853,6.4475,6.8531,6.9633,6.9412,6.7797,6.6935,6.6145,6.5356,6.4549,6.4108,6.4108,6.3264,6.242,6.1612,6.0805,6.0401,6.0419,6.1208,6.055,5.8658,5.984,5.93,5.7435,5.7836,5.7312,5.6266,5.7483,5.7297,5.6402,5.8555,5.8391,5.7135,5.8866,5.8454,5.7157,0.0,0.0,0.0,0.0,0.0,0.0,0.0,2.4338,2.5117,2.681,2.774,2.8637,2.9602,3.0194,3.0395,3.0125,2.9194,0.0,0.0,0.0,0.0,0.0,0.0,0.0,0.0,0.0,3.1031,3.1389,3.1389,3.162,3.2022,3.25,3.2887,3.3214,3.3606,3.3807,0.0,0.0,0.0,0.0,0.0,0.0,4.3149,0.0,0.0,0.0,0.0,0.0,0.0,0.0,0.0,0.0,0.0,0.0,0.0,4.625,5.0086,5.4308,5.6161,5.9813,6.2842,6.1722,6.0272,5.8419,5.5721,5.3259,5.0949,4.8746,4.8306,4.8306,4.8306,4.8306,4.8857,5.0527,5.0802,5.2013,5.5482,5.7409,5.9936,6.4035,6.6953,6.8917,6.9651,6.8738,6.7763,6.6924,6.5367,6.4456,6.4482,6.3668,6.3484,6.4071,6.2199,6.1043,6.0786,5.9446,5.9043,5.9593,5.9281,5.8674,5.7808,5.8463,5.7954,5.6637,5.7597,5.7331,5.6283,5.7501,5.7275,5.642,5.8573,5.8712,5.7928,5.9728,5.9319,5.8011,0.0,0.0,0.0,0.0,0.0,0.0,0.0,2.4034,2.4863,2.5879,2.7486,2.8772,2.9347,3.0226,3.0717,3.0531,2.9602,0.0,0.0,0.0,0.0,0.0,0.0,0.0,3.119,3.119,3.119,3.119,3.1481,3.1604,3.1584,3.2476,3.2915,3.2968,3.355,3.3972,0.0,0.0,0.0,0.0,0.0,0.0,4.3515,0.0,0.0,0.0,0.0,0.0,0.0,0.0,0.0,0.0,0.0,0.0,0.0,0.0,4.7076,5.0251,5.2803,5.6657,5.963,5.8327,5.695,5.5427,5.3607,5.1481,4.9572,4.8526,4.8802,4.9058,4.8416,4.882,4.9389,4.9793,5.0912,5.2307,5.3995,5.6768,5.9756,6.2931,6.6554,6.8662,6.832,6.803,6.7324,6.6135,6.49,6.4025,6.3638,6.2805,6.2603,6.3135,6.1355,6.0254,5.996,5.8657,5.8253,5.8749,5.8547,5.7936,5.6972,5.7984,5.7622,5.6266,5.7486,5.7571,0.0,5.7692,5.7553,5.7013,5.837,5.8391,5.7777,5.8943,5.8492,5.7396,0.0,0.0,0.0,0.0,0.0,0.0,0.0,2.4034,2.4982,2.6353,2.7317,2.8432,2.9871,3.0125,3.0429,3.1072,0.0,0.0,0.0,0.0,0.0,0.0,0.0,0.0,3.119,3.119,3.119,3.119,3.1887,3.187,3.1227,3.2772,3.3122,3.2534,3.339,3.4257,0.0,0.0,0.0,0.0,0.0,0.0,0.0,0.0,0.0,0.0,0.0,0.0,0.0,0.0,0.0,0.0,0.0,0.0,0.0,0.0,0.0,0.0,0.0,5.4932,5.823,5.7501,5.5611,5.3775,5.3023,5.049,0.0,4.8453,4.9719,5.0325,4.8803,4.9867,5.0437,4.8824,5.1175,5.3012,5.2357,5.5572,5.8625,6.0194,6.3121,6.5091,6.5331,6.7402,6.7779,6.5485,6.5264,6.4512,6.2872,6.2034,6.1557,6.152,6.0731,5.996,5.9203,5.84,5.7983,5.7973,5.8731,5.8083,5.6214,5.8205,5.8065,5.6266,5.7486,5.7997,5.7997,5.7997,5.7983,5.7976,5.8053,5.7637,5.696,5.7065,5.6541,5.578,0.0,0.0,0.0,0.0,0.0,0.0,0.0,0.0,0.0,0.0,2.7182,2.8874,2.923,3.026,3.0784,0.0,0.0,0.0,0.0,0.0,0.0,0.0,0.0,0.0,3.119,3.119,3.119,3.119,3.136,3.136,3.121,3.1905,3.2319,3.2517,3.309,3.4324,0.0,0.0,0.0,0.0,0.0,0.0,0.0,0.0,0.0,0.0,4.3515,4.3515,0.0,0.0,0.0,0.0,0.0,0.0,0.0,0.0,4.5278,4.6104,4.7058,0.0,5.082,5.0637,5.016,4.9682,0.0,4.8857,4.8673,4.9958,5.0527,5.0756,5.062,5.1723,5.2294,5.1226,5.251,5.3925,5.4664,5.9,6.2636,6.3984,6.6359,6.734,6.5895,6.6544,6.6568,6.5393,6.4732,6.3925,6.2853,6.2034,6.1318,6.0694,5.9905,5.9386,5.9184,5.84,5.7833,5.7557,5.8035,5.7394,5.5798,5.7516,5.7512,5.6266,5.7486,5.7997,5.7997,5.7997,5.7822,5.7583,5.7957,5.7819,5.7472,5.786,5.7434,5.6695,0.0,0.0,0.0,0.0,0.0,0.0,0.0,0.0,0.0,0.0,0.0,2.9128,2.9465,3.0514,0.0,0.0,0.0,0.0,0.0,0.0,0.0,0.0,0.0,3.119,3.119,3.119,3.119,3.119,3.1549,3.1532,3.1227,3.2554,3.3125,3.31,3.453,3.5798,0.0,0.0,0.0,0.0,4.1095,0.0,0.0,0.0,0.0,0.0,4.3369,4.3515,0.0,4.3515,4.3515,4.3588,0.0,0.0,0.0,0.0,4.5278,4.5975,4.6361,4.737,4.8489,4.926,4.8875,4.8508,4.9279,4.8857,4.8783,5.0453,5.0802,5.0906,5.123,5.2196,5.2641,5.1765,5.3031,5.4881,5.7039,5.9778,6.2421,6.467,6.5674,6.6277,6.6472,6.6505,6.6164,6.5375,6.4549,6.3558,6.2328,6.1484,6.0676,5.9887,5.9079,5.8657,5.8657,5.8217,5.7788,5.7405,5.7807,5.7463,5.6462,5.751,5.7641,5.7032,5.7119,5.7262,5.7414,5.6845,5.6607,5.6603,5.6888,5.6881,5.6762,5.7011,5.6799,5.6406,0.0,0.0,0.0,0.0,0.0,0.0,0.0,0.0,0.0,0.0,0.0,0.0,0.0,0.0,0.0,0.0,0.0,0.0,0.0,0.0,0.0,0.0,3.119,3.119,3.119,3.119,3.114,3.1021,3.1769,3.1752,3.1075,3.3453,3.434,3.4085,3.6458,3.7566,0.0,0.0,3.9808,4.1279,4.1279,0.0,0.0,0.0,0.0,0.0,0.0,0.0,0.0,4.3515,4.3515,4.3533,4.3626,0.0,0.0,0.0,0.0,0.0,4.6856,4.7681,4.871,5.038,4.9554,4.8747,5.0479,4.9486,4.8787,5.0848,5.1141,5.1244,5.184,5.2771,5.3051,5.1868,5.3464,5.5996,5.9296,5.9868,6.1036,6.403,6.3988,6.4526,6.6621,6.6505,6.6035,6.5356,6.4439,6.3227,6.1667,6.0841,6.0034,5.9221,5.8419,5.7997,5.7997,5.7997,5.7788,5.7405,5.7807,5.7792,5.7404,5.7822,5.7997,5.7928,5.6779,5.6496,5.6698,5.5562,5.5286,5.5625,5.567,5.5699,5.5712,5.5703,5.5703,5.5703,0.0,0.0,0.0,0.0,0.0,0.0,0.0,0.0,0.0,0.0,0.0,0.0,0.0,0.0,0.0,0.0,0.0,0.0,0.0,0.0,0.0,3.119,3.119,3.119,3.119,3.119,3.0886,3.0277,3.1004,3.0987,3.0294,3.2391,3.4058,3.5371,3.6839,3.7878,3.8579,3.9368,4.0634,4.2121,4.2121,0.0,0.0,0.0,0.0,0.0,0.0,0.0,0.0,4.3515,4.3515,4.3608,4.4305,0.0,0.0,0.0,0.0,0.0,4.6691,4.7681,4.871,5.038,4.9554,4.8825,5.0768,4.9447,4.8854,5.2568,5.2735,5.2791,5.4614,5.6156,5.6348,5.3819,5.5123,5.7608,6.0959,6.2245,6.3208,6.4123,6.5868,6.6488,6.5222,6.5336,6.543,6.5319,6.3888,6.2603,6.1649,6.0841,6.0034,5.9221,5.8419,5.7997,5.7997,5.7997,5.7788,5.7405,5.7807,5.7792,5.7404,5.7822,5.7997,5.7941,5.7073,5.6742,5.673,5.5864,5.5593,5.5681,5.5701,5.5708,5.5696,5.569,5.5703,5.5703,0.0,0.0,0.0,0.0,0.0,0.0,0.0,0.0,0.0,0.0,0.0,0.0,0.0,0.0,0.0,0.0,0.0,0.0,0.0,0.0,3.1633,3.1207,3.1562,3.1616,3.1207,3.0818,3.0632,3.0683,3.0849,3.1054,3.1328,3.3619,3.5457,3.6915,3.8206,3.9016,3.9405,4.0212,4.124,4.2304,0.0,0.0,0.0,0.0,0.0,0.0,0.0,0.0,0.0,0.0,4.3515,4.3552,4.392,0.0,0.0,0.0,0.0,0.0,4.6654,4.7369,4.836,5.1353,5.0857,5.0348,5.3016,5.1584,5.0741,5.441,5.3249,5.2634,5.6046,5.6697,5.7005,5.7909,5.9438,6.088,6.1926,6.3011,6.3917,6.446,6.5702,6.6216,6.5481,6.5343,6.4934,6.4035,6.2842,6.1612,6.0382,5.996,5.9391,5.8584,5.8198,5.7997,5.7997,5.7997,5.7788,5.7405,5.7383,5.7146,5.6772,5.7177,5.7354,5.7303,5.6261,5.6074,5.6374,5.4911,5.4589,5.5066,5.5284,5.5377,5.5399,5.561,5.5703,5.5703,0.0,0.0,0.0,0.0,0.0,0.0,0.0,0.0,0.0,0.0,0.0,0.0,0.0,0.0,0.0,0.0,0.0,0.0,0.0,0.0,3.1972,3.1224,3.1921,3.1955,3.1207,3.0747,3.0685,3.1079,3.1304,3.2103,3.3482,3.5389,3.6934,3.8217,3.9378,3.9992,4.023,4.1038,4.1864,4.258,0.0,0.0,0.0,0.0,0.0,0.0,0.0,0.0,0.0,0.0,0.0,0.0,0.0,0.0,0.0,4.447,4.458,4.4782,4.6379,4.6819,4.7682,5.129,5.1423,5.1589,5.5199,5.3758,5.2692,5.6276,5.4526,5.357,5.7458,5.7176,5.7402,6.0621,6.2348,6.3229,6.3089,6.3934,6.4756,6.52,6.5645,6.5926,6.6,6.5404,6.4402,6.289,6.2053,6.0896,5.9276,5.9184,5.8817,5.8033,5.7997,5.7997,5.7997,5.7997,5.7833,5.7538,5.7041,5.6657,5.6351,5.6448,5.6528,5.6459,5.5334,5.5242,5.5769,5.4059,5.3852,5.4655,5.4979,5.516,5.5282,5.5588,5.5703,5.5703,0.0,0.0,0.0,0.0,0.0,0.0,0.0,0.0,0.0,0.0,0.0,0.0,0.0,0.0,0.0,0.0,0.0,0.0,0.0,0.0,3.1972,3.1224,3.1921,3.1955,3.1207,3.1514,3.1373,3.0751,3.258,3.4641,3.6849,3.703,3.7754,3.8941,3.9615,4.0304,4.1058,4.1882,4.2671,4.3423,4.3423,0.0,0.0,0.0,0.0,0.0,0.0,0.0,0.0,0.0,0.0,0.0,0.0,0.0,4.3644,4.447,4.4176,4.3938,4.5553,4.5993,4.6507,4.8653,4.9722,5.1487,5.621,5.4802,5.3764,5.8182,5.8028,5.7696,5.9569,5.9178,5.8768,5.9369,6.092,6.2824,6.5066,6.6068,6.6615,6.6648,6.6967,6.6862,6.6067,6.4912,6.3796,6.2879,6.2053,6.0896,5.9276,5.9184,5.8817,5.8033,5.7997,5.7997,5.7997,5.7997,5.7983,5.7955,5.7175,5.6789,5.672,5.6018,5.5684,5.5651,5.481,5.4681,5.5025,5.4112,5.4279,5.5061,5.5075,5.5319,5.5662,5.5703,5.5703,5.5703,0.0,0.0,0.0,0.0,0.0,0.0,0.0,0.0,0.0,0.0,0.0,0.0,0.0,0.0,0.0,0.0,0.0,0.0,0.0,3.2699,3.2769,3.2038,3.2717,3.2751,3.2021,3.2437,3.314,3.4058,3.5438,3.648,3.7209,3.7667,3.7869,3.7934,3.9299,4.0065,4.0432,4.1754,4.2488,4.28,4.3313,4.3515,0.0,0.0,0.0,0.0,0.0,0.0,0.0,0.0,4.3515,4.3515,4.3515,4.3515,4.3603,4.411,4.4045,4.4218,4.6069,4.6984,4.8078,5.0869,5.1232,5.1975,5.6136,5.598,5.6047,5.9832,5.922,5.8113,5.8359,6.033,6.1844,6.1617,6.3758,6.5815,6.6936,6.749,6.7738,6.756,6.7504,6.7031,6.5863,6.4828,6.3673,6.2349,6.119,6.0067,5.8937,5.8606,5.8309,5.7997,5.7997,5.7997,5.7997,5.7997,5.7997,5.7997,5.7189,5.6547,5.6033,5.5739,5.5457,5.5195,5.4899,5.5174,5.5744,5.4927,5.496,5.5477,5.5477,5.5566,5.5703,5.5703,5.5703,5.5703,0.0,0.0,0.0,0.0,0.0,0.0,0.0,0.0,0.0,0.0,0.0,0.0,0.0,0.0,0.0,0.0,0.0,0.0,3.2247,3.3106,3.328,3.2536,3.3209,3.3436,3.3105,3.3898,3.4854,3.5934,3.7206,3.774,3.7562,3.8054,3.8116,3.7844,3.9263,3.99,4.001,4.1625,4.2304,4.2378,4.3167,4.3515,0.0,0.0,0.0,0.0,0.0,0.0,0.0,0.0,4.3515,4.3515,4.3515,4.3563,4.3693,4.3924,4.4274,4.4865,4.6247,4.7267,4.8598,5.1499,5.1583,5.205,5.6363,5.7172,5.7984,6.1429,6.1159,6.0006,5.9068,6.1282,6.3142,6.2772,6.4934,6.6819,6.7265,6.7714,6.7822,6.7395,6.7271,6.6759,6.5555,6.452,6.337,6.2012,6.0792,5.9754,5.897,5.8611,5.8439,5.8439,5.8439,5.8354,5.8216,5.7976,5.7755,5.7611,5.6804,5.6124,5.5596,5.506,5.4751,5.4615,5.4615,5.5114,5.5875,5.5336,5.5331,5.5703,5.5703,5.5703,5.5703,5.5703,5.5703,5.5703,0.0,0.0,0.0,0.0,0.0,0.0,0.0,0.0,0.0,0.0,0.0,0.0,0.0,0.0,0.0,0.0,0.0,0.0,3.1825,3.2932,3.328,3.2553,3.3209,3.387,3.439,3.5993,3.6443,3.5648,3.745,3.832,3.832,3.832,3.8554,3.9013,3.9617,3.99,3.9992,4.1607,4.2304,4.2359,4.3149,4.3496,4.3515,0.0,0.0,0.0,0.0,0.0,0.0,0.0,4.3515,4.3515,4.3515,4.3726,4.4016,4.4035,4.4871,4.5814,4.5833,4.645,4.7596,4.963,5.014,5.156,5.7032,5.83,5.9348,6.3039,6.4205,6.407,6.2409,6.212,6.212,6.2101,6.3512,6.4916,6.5782,6.659,6.6801,6.6013,6.6198,6.6049,6.5191,6.3884,6.2766,6.1955,6.1088,6.0258,5.9463,5.9389,5.9389,5.9389,5.9389,5.9158,5.8715,5.7913,5.7258,5.6785,5.5981,5.5596,5.5541,5.394,5.3422,5.3814,5.3814,5.4301,5.5121,5.5121,5.5331,5.5703,5.5703,5.5703,5.5703,5.5703,5.5703,5.5703,0.0,0.0,0.0,0.0,0.0,0.0,0.0,0.0,0.0,0.0,0.0,0.0,0.0,0.0,0.0,0.0,0.0,0.0,3.3178,3.3546,3.364,3.3419,3.4167,3.4662,3.4816,3.7001,3.8572,3.9483,4.0149,3.9928,3.8869,3.8797,3.8582,3.8273,3.9498,3.9684,3.9153,4.0923,4.1576,4.1534,4.2323,4.2983,4.3515,0.0,0.0,0.0,0.0,0.0,0.0,0.0,0.0,0.0,4.3515,4.4147,4.5077,4.5933,4.617,4.661,4.8676,4.8539,4.8511,5.1529,5.228,5.3012,5.5827,5.7415,5.9285,6.274,6.3111,6.2493,6.1377,6.2647,6.3474,6.2293,6.4012,6.5801,6.6628,6.6455,6.6378,6.6705,6.6325,6.5701,6.4838,6.3828,6.291,6.2087,6.0927,6.0152,5.9905,5.9595,5.9389,5.9389,5.9389,5.9037,5.8293,5.8049,5.7564,5.6856,5.605,5.5492,5.5144,5.4386,5.4297,5.4697,5.442,5.4775,5.5512,5.5512,5.5588,5.5703,5.5703,5.5703,5.5703,5.5703,5.5703,5.5703,0.0,0.0,0.0,0.0,0.0,0.0,0.0,0.0,0.0,0.0,0.0,0.0,0.0,0.0,0.0,0.0,0.0,0.0,0.0,3.3524,3.3842,3.4448,3.481,3.5316,3.5991,3.7771,3.9019,3.9662,3.9909,3.9373,3.8146,3.8093,3.8124,3.8271,3.9148,3.9408,3.9261,4.0338,4.0736,4.0726,4.1846,4.2598,4.3057,0.0,0.0,0.0,0.0,0.0,0.0,0.0,0.0,0.0,4.3693,4.4739,4.6081,4.6618,4.7015,4.7861,5.0479,5.0414,5.0577,5.4684,5.4934,5.4645,5.6338,5.8338,6.0762,6.4128,6.4166,6.3339,6.2474,6.3281,6.3878,6.3205,6.4378,6.5667,6.6513,6.6205,6.5955,6.609,6.5974,6.5416,6.4205,6.3608,6.2974,6.2159,6.1032,6.0384,6.0384,6.0118,5.9965,5.9965,5.9623,5.9017,5.8163,5.7667,5.7003,5.6138,5.5517,5.5155,5.5036,5.4615,5.469,5.5107,5.5007,5.5237,5.5703,5.5703,5.5703,5.5703,5.5703,5.5703,5.5703,5.5703,5.5703,5.5703,0.0,0.0,0.0,0.0,0.0,0.0,0.0,0.0,0.0,0.0,0.0,0.0,0.0,0.0,0.0,0.0,0.0,0.0,0.0,0.0,3.3821,3.5335,3.5283,3.5995,3.7676,3.8358,3.8377,3.7713,3.7889,3.7565,3.6772,3.6772,3.7507,3.8817,3.881,3.9229,3.99,3.9834,3.985,4.001,4.1405,4.2066,4.2268,4.3002,0.0,0.0,0.0,0.0,0.0,0.0,0.0,0.0,4.4043,4.5392,4.6868,4.6523,4.7575,4.9312,5.1429,5.1904,5.2981,5.7915,5.753,5.6472,5.8531,6.0666,6.3082,6.6128,6.6167,6.5455,6.4724,6.3897,6.3589,6.4455,6.4609,6.4897,6.5782,6.582,6.5493,6.4686,6.5224,6.5013,6.3358,6.3185,6.2858,6.2043,6.1243,6.08,6.08,6.08,6.0762,6.0685,5.9915,5.9057,5.8105,5.6997,5.5947,5.4949,5.4649,5.4657,5.4918,5.4629,5.4716,5.5115,5.5543,5.5703,5.5684,5.5607,5.5588,5.5568,5.5491,5.5472,5.5472,5.5472,5.5511,5.5588,0.0,0.0,0.0,0.0,0.0,0.0,0.0,0.0,0.0,0.0,0.0,0.0,0.0,0.0,0.0,0.0,0.0,0.0,0.0,0.0,3.3237,3.4576,3.613,3.7731,3.9347,3.8927,3.8927,3.9368,3.8797,3.811,3.7339,3.7339,3.8154,3.9646,3.9746,3.9833,3.9866,3.9345,3.9414,3.9879,3.9588,4.023,4.137,4.1535,4.1625,0.0,0.0,0.0,0.0,0.0,0.0,0.0,4.4474,4.5369,4.658,4.7156,4.825,4.9796,5.2259,5.1952,5.1837,5.5588,5.7126,5.8896,6.3262,6.3628,6.3262,6.3974,6.3993,6.4012,6.4512,6.3897,6.3589,6.4455,6.4609,6.4897,6.5782,6.5301,6.4801,6.4628,6.4166,6.3455,6.2454,6.237,6.1993,6.1127,6.0916,6.08,6.08,6.08,6.0492,5.98,5.9608,5.8781,5.7275,5.7001,5.6103,5.4605,5.4537,5.4204,5.3624,5.4235,5.4716,5.5115,5.5543,5.5703,5.5645,5.5011,5.4761,5.4684,5.3991,5.3741,5.3741,5.3741,5.4164,5.4761,0.0,0.0,0.0,0.0,0.0,0.0,0.0,0.0,0.0,0.0,0.0,0.0,0.0,0.0,0.0,0.0,0.0,0.0,0.0,0.0,3.3014,3.488,3.697,3.8469,3.9313,3.8909,3.8726,3.8759,3.8322,3.7915,3.7492,3.7107,3.7771,3.9334,3.9407,3.9385,3.9279,3.8532,3.8216,3.8212,3.856,3.9203,4.0031,4.0802,4.1095,4.1205,4.2011,0.0,0.0,0.0,0.0,0.0,0.0,0.0,4.6298,4.6565,4.7832,4.9539,5.147,5.226,5.3414,5.7203,5.9435,6.13,6.3551,6.3685,6.3288,6.3288,6.3628,6.3935,6.3974,6.3301,6.2993,6.3839,6.3647,6.3839,6.5089,6.4897,6.4301,6.3493,6.3705,6.3281,6.1627,6.187,6.1735,6.0858,6.08,6.0608,6.0204,6.0185,5.9781,5.8954,5.8511,5.7789,5.6726,5.6099,5.5253,5.4165,5.3966,5.3857,5.3846,5.4294,5.4823,5.5399,5.5599,5.5703,5.5645,5.4818,5.4491,5.4414,5.3549,5.3203,5.3203,5.3203,5.3491,5.3876,0.0,0.0,0.0,0.0,0.0,0.0,0.0,0.0,0.0,0.0,0.0,0.0,0.0,0.0,0.0,0.0,0.0,0.0,0.0,0.0,0.0,3.5491,3.7445,3.8615,3.8909,3.8781,3.8432,3.7915,3.7639,3.7741,3.8144,3.7177,3.7671,3.9353,3.8914,3.8706,3.8634,3.7533,3.6776,3.6395,3.7588,3.823,3.8634,3.9974,4.0545,4.0783,4.1607,4.154,4.1326,4.3089,0.0,0.0,0.0,0.0,4.5638,4.5427,4.6856,4.8735,4.9932,5.2318,5.5549,5.9935,6.1839,6.2666,6.2743,6.3031,6.3327,6.3493,6.3974,6.4109,6.3262,6.2551,6.2358,6.3166,6.2627,6.2685,6.4359,6.4474,6.3801,6.2293,6.332,6.3281,6.1012,6.1447,6.1581,6.0839,6.08,6.0416,5.955,5.9492,5.9069,5.8107,5.7376,5.6706,5.6071,5.5025,5.4161,5.3467,5.299,5.3222,5.4068,5.4203,5.4799,5.5684,5.5395,5.5338,5.5415,5.4453,5.4049,5.3972,5.3106,5.2779,5.2779,5.2779,5.2856,5.2991,0.0,0.0,0.0,0.0,0.0,0.0,0.0,0.0,0.0,0.0,0.0,0.0,0.0,0.0,0.0,0.0,0.0,0.0,0.0,0.0,0.0,3.5544,3.693,3.8319,3.9698,3.9056,3.8982,3.9585,3.819,3.8636,4.0761,3.9265,3.9788,4.1896,3.9806,3.8819,3.856,3.6288,3.5701,3.6248,3.5701,3.6358,3.7676,3.7896,3.8414,3.9129,3.9918,4.0517,4.1067,4.2033,4.2642,0.0,0.0,0.0,4.363,4.4288,4.5751,4.7338,4.8212,5.1414,5.5703,6.0677,6.0954,6.0954,6.457,6.432,6.3512,6.4282,6.3916,6.3243,6.2397,6.2178,6.2358,6.3166,6.2627,6.2685,6.4359,6.3955,6.3128,6.2216,6.2312,6.1993,6.0916,6.0916,6.0935,6.08,6.08,6.0416,5.955,5.9492,5.8781,5.7234,5.706,5.6288,5.4765,5.4586,5.3701,5.2141,5.1394,5.1452,5.2269,5.3029,5.4222,5.5607,5.4164,5.3953,5.453,5.2914,5.225,5.2173,5.1356,5.1039,5.1039,5.1039,5.1471,5.2077,0.0,0.0,0.0,0.0,0.0,0.0,0.0,0.0,0.0,0.0,0.0,0.0,0.0,0.0,0.0,0.0,0.0,0.0,0.0,0.0,0.0,3.513,3.6646,3.7621,3.7881,3.7988,3.8208,3.8557,3.7401,3.8839,4.2679,4.1526,4.1283,4.1797,4.1266,3.9661,3.7316,3.6755,3.5876,3.4908,3.4968,3.5445,3.6156,0.0,0.0,3.812,3.8946,3.9225,3.9508,4.1443,4.1146,4.0227,4.1852,0.0,0.0,0.0,4.4105,4.6259,4.9952,5.1991,5.4511,6.0581,6.0454,5.9819,6.3589,6.3128,6.2147,6.3012,6.3243,6.3185,6.2839,6.2397,6.2358,6.3166,6.2627,6.237,6.3089,6.2858,6.232,6.1473,6.1812,6.1774,6.0877,6.08,6.08,6.08,6.08,6.0223,5.8896,5.8838,5.803,5.6329,5.5818,5.5241,5.4511,5.353,5.2433,5.1221,5.0856,5.1125,5.1904,5.1837,5.2702,5.4299,5.4049,5.3876,5.3664,5.2423,5.1904,5.1808,5.101,5.0712,5.0712,5.0712,5.0914,5.1221,0.0,0.0,0.0,0.0,0.0,0.0,0.0,0.0,0.0,0.0,0.0,0.0,0.0,0.0,0.0,0.0,0.0,0.0,0.0,0.0,0.0,3.5181,3.6245,3.6703,3.6303,3.6905,3.7199,3.7199,3.6813,3.8862,4.316,4.2982,4.2665,4.2259,4.2546,4.0793,3.7606,3.7481,3.6391,3.4787,3.5002,3.507,3.5078,3.5734,3.6468,0.0,0.0,3.7914,3.801,4.0119,3.9414,3.8004,4.0164,4.0546,0.0,0.0,0.0,4.4836,5.0144,5.1269,5.2472,5.8877,5.9031,5.8531,6.1897,6.1704,6.105,6.1928,6.2743,6.3288,6.3288,6.2647,6.2358,6.3166,6.2435,6.1851,6.2082,6.2101,6.1793,6.0896,6.1581,6.1774,6.0877,6.08,6.08,6.08,6.08,6.0069,5.8396,5.83,5.7511,5.5761,5.4914,5.4395,5.4164,5.2472,5.1298,5.0712,5.0481,5.0683,5.125,5.0875,5.126,5.2279,5.3164,5.328,5.2799,5.1952,5.1606,5.1548,5.0933,5.0712,5.0712,5.0712,5.0712,5.0712,0.0,0.0,0.0,0.0,0.0,0.0,0.0,0.0,0.0,0.0,0.0,0.0,3.119,3.2459,3.3305,3.3339,0.0,0.0,0.0,0.0,0.0,3.6175,3.5522,0.0,3.6266,3.634,3.6358,3.6358,3.7088,3.8808,4.1452,4.301,4.4126,4.4736,4.3253,4.2075,4.1022,3.7953,3.6965,3.729,3.5938,3.5229,3.5004,3.5059,3.561,3.6358,3.6413,3.6731,3.7155,3.7297,3.7633,3.7993,3.8161,3.8719,3.9515,0.0,0.0,0.0,4.625,4.7759,4.9548,5.4741,5.5934,5.6722,6.0146,6.0858,6.105,6.1928,6.2743,6.3288,6.3288,6.2647,6.2358,6.3166,6.1935,6.1146,6.1985,6.2101,6.1793,6.0896,6.1581,6.1774,6.0877,6.08,6.08,6.08,6.08,6.0069,5.8396,5.83,5.7511,5.5761,5.4914,5.4107,5.328,5.1606,5.075,5.0693,4.9856,4.949,4.9567,5.0346,5.0308,4.9644,5.0519,5.1298,5.1904,5.1106,5.077,5.077,5.0731,5.0712,5.0712,5.0712,5.0712,5.0712,0.0,0.0,0.0,0.0,0.0,0.0,0.0,0.0,0.0,0.0,0.0,0.0,0.0,3.1908,3.2578,3.3095,3.43,0.0,0.0,0.0,0.0,3.5012,3.5535,3.5477,3.4706,3.5752,3.6028,3.5463,3.5738,3.7462,4.0503,4.2147,4.3403,4.4319,4.501,4.3527,4.0475,3.9652,3.7997,3.5965,3.6291,3.5524,3.4298,3.4981,3.5763,3.639,3.5711,3.625,3.7275,3.7145,3.6795,3.6577,3.7661,3.7834,3.7911,3.9323,4.07,4.2423,4.5297,4.6278,4.7586,5.2125,5.326,5.401,5.6876,5.8781,5.9742,5.8984,6.08,6.2185,6.1069,6.1531,6.2197,6.2474,6.2031,6.155,6.13,6.1262,6.1146,6.0839,6.1069,6.1127,6.0819,6.08,6.08,6.08,5.9292,5.8338,5.83,5.6742,5.5568,5.4953,5.4107,5.2991,5.1606,5.1,5.0423,4.9856,4.9548,4.9106,4.8606,4.9471,4.9702,4.9452,5.0327,5.0856,5.1106,5.0827,5.0712,5.0712,5.0712,5.0712,5.0712,5.0712,5.0712,5.0712,0.0,0.0,0.0,0.0,0.0,0.0,0.0,0.0,0.0,3.1391,0.0,0.0,0.0,0.0,3.2719,3.3504,3.4429,3.4976,3.4976,3.4711,3.4528,3.4528,3.5393,3.5349,3.4215,3.5587,3.5881,3.5004,3.5298,3.6845,3.9588,4.0686,4.2132,4.386,4.4386,4.3578,4.1789,4.1372,3.983,3.7667,3.7456,3.6524,3.5284,3.563,3.5957,3.6188,3.6067,3.6389,3.6897,3.7111,3.6599,3.6052,3.7177,3.714,3.6981,3.843,3.9854,4.1335,4.3036,4.4113,4.5643,4.9308,5.0423,5.1365,5.4203,5.6819,5.8434,5.7607,5.9927,6.1755,6.0589,6.1069,6.1774,6.2062,6.1851,6.1466,6.0877,6.08,6.08,6.08,6.08,6.08,6.08,6.08,6.08,6.08,5.8954,5.7973,5.828,5.6415,5.4953,5.4087,5.3222,5.2106,5.0712,5.0712,5.0269,4.9394,4.9106,4.8529,4.7721,4.8298,4.8702,4.9,4.9748,5.0225,5.0504,5.0634,5.0614,5.0504,5.0653,5.0712,5.0712,5.0712,5.0712,5.0712,0.0,0.0,0.0,0.0,0.0,0.0,0.0,0.0,3.1841,3.1841,0.0,0.0,0.0,0.0,0.0,3.4659,3.5179,3.5477,3.5441,3.5155,3.4954,3.4954,0.0,0.0,3.5004,3.5862,3.5881,3.5004,3.5862,3.7055,3.86,3.8703,4.0468,4.342,4.1262,4.2131,4.5053,4.2859,4.2282,4.2583,3.945,3.8119,3.7901,3.6952,3.6088,3.5621,3.7435,3.7095,3.5997,3.7034,3.7051,3.6629,3.6614,3.6644,3.6865,0.0,0.0,3.9265,0.0,0.0,0.0,4.6086,4.7355,4.8875,5.2279,5.4991,5.708,5.8011,6.0185,6.1966,6.1985,6.1351,6.1069,6.1928,6.1351,6.08,6.08,6.08,6.08,6.08,6.08,6.08,6.08,6.08,6.08,6.08,5.9915,5.9069,5.8338,5.7396,5.5742,5.3241,5.2308,5.1491,5.0712,5.0673,5.0221,4.9356,4.849,4.7644,4.6846,4.6885,4.7336,4.8087,4.8586,4.9279,5.0085,5.0493,5.0432,5.0116,5.0504,5.0673,5.0673,5.0673,5.0683,5.0712,0.0,0.0,0.0,0.0,0.0,0.0,3.2107,3.2387,3.2691,0.0,0.0,0.0,3.3383,3.3845,3.4384,3.4864,3.5049,3.4889,3.4319,3.4179,3.4137,3.4137,3.5293,3.5646,3.5023,3.5862,3.5881,3.5004,3.5243,3.5591,3.605,3.7275,3.8326,3.9239,3.9858,4.0358,4.0694,4.0391,3.9779,3.9103,4.0001,3.8548,3.608,3.8,3.736,3.5584,3.6854,3.7146,3.7014,3.7308,3.7466,3.7438,3.686,3.6684,0.0,0.0,0.0,0.0,3.8354,0.0,0.0,0.0,0.0,0.0,4.8875,5.1029,5.304,5.5126,5.7069,5.8599,5.9242,6.0146,6.0877,6.1108,6.0954,6.08,6.08,6.08,6.08,6.08,6.08,6.08,6.08,6.08,6.08,6.08,5.828,5.7203,5.8242,5.5722,5.3645,5.2288,5.1452,5.0933,5.0712,5.0067,4.9317,4.8452,4.7625,4.6797,4.597,4.6605,4.7019,4.7299,4.8337,4.8783,4.8789,4.954,4.9773,4.9678,4.9787,5.0019,5.026,5.026,5.0442,5.0712,0.0,0.0,0.0,0.0,0.0,3.3609,3.2865,3.3337,3.3771,0.0,0.0,0.0,3.4781,3.5038,3.5301,3.5522,3.5536,3.5188,3.4362,3.4633,3.4523,3.3825,3.5734,3.6413,3.5555,3.6707,3.6725,3.5536,3.5536,3.5536,3.5555,3.5826,3.6519,3.7496,3.7483,3.7608,3.7812,3.7829,3.8249,3.897,3.9941,3.9429,3.8231,3.9914,3.9138,3.732,3.8716,3.8618,3.7919,3.8386,3.8239,3.778,3.7318,3.6728,3.6253,3.6576,0.0,0.0,0.0,0.0,0.0,4.1104,0.0,0.0,4.6317,4.8375,5.0337,5.2895,5.5318,5.7157,5.7665,5.855,5.9319,5.9704,5.9762,5.9992,6.0704,6.08,6.08,6.08,6.08,6.08,6.08,6.08,6.08,6.08,5.83,5.6761,5.6722,5.4491,5.2799,5.1923,5.0779,5.0164,5.0164,4.9298,4.8432,4.7586,4.7115,4.6432,4.5614,4.6124,4.6567,4.6924,4.7362,4.7604,4.7726,4.8281,4.8605,4.881,4.9299,4.9437,4.9404,4.991,5.0249,5.0472,0.0,0.0,3.5414,3.4844,3.4791,3.4614,3.3969,3.4582,3.5173,0.0,3.6017,3.6597,3.6688,3.6541,3.6431,3.6431,3.6431,3.6028,3.5059,3.5734,3.544,3.3862,3.6097,3.6997,3.6174,3.7734,3.7826,3.6303,3.6193,3.6156,3.6119,3.4541,3.5018,3.7125,3.4908,0.0,3.6109,3.5579,3.723,4.0163,3.9608,4.0464,4.2099,4.2088,4.103,3.9802,4.1546,4.0658,3.8756,3.9771,3.9151,3.7913,3.7831,3.6803,3.5729,3.6305,3.6519,0.0,0.0,0.0,0.0,4.1623,4.0758,0.0,4.4132,4.6124,4.7932,5.075,5.3683,5.5887,5.6349,5.6426,5.6722,5.7588,5.7819,5.8492,6.0262,6.0685,6.0723,6.0531,6.0685,6.08,6.08,6.08,6.0762,6.0666,5.9108,5.7049,5.4491,5.3626,5.276,5.1788,5.024,4.9394,4.9394,4.8452,4.7605,4.6904,4.6797,4.6355,4.5594,4.5568,4.5991,4.6723,4.6019,4.6166,4.6869,4.6938,4.724,4.7746,4.8915,4.8922,4.8423,4.9588,5.0023,5.0092,0.0,0.0,3.5774,3.6248,3.6713,3.6934,3.6796,3.7065,3.7556,3.8256,3.8277,3.8487,3.9129,3.8043,3.7272,3.7272,3.7272,3.6615,3.5096,3.5169,3.4821,3.3844,3.555,3.6138,3.5261,3.6872,3.7272,3.6303,3.5591,3.5261,3.5224,3.4266,3.4394,3.5463,3.4986,3.4949,3.5261,3.5125,3.5605,3.6702,3.9399,4.0596,4.0941,4.251,4.1501,3.9477,4.0889,4.0531,3.9451,4.0014,3.9511,3.8573,3.8058,3.7192,3.6297,3.5859,3.5717,3.5769,3.5942,3.6462,3.7115,3.7769,3.8104,0.0,4.0997,4.1247,4.2316,4.6932,4.7855,4.8856,5.2279,5.2914,5.3183,5.4049,5.478,5.6069,5.8454,5.9954,6.03,5.8954,5.9973,6.08,6.08,6.08,6.0512,5.9819,5.8204,5.6145,5.3587,5.3299,5.251,5.0971,4.9933,4.9394,4.9394,4.7894,4.7058,4.6885,4.6182,4.5768,4.5586,4.5322,4.5438,4.5819,4.5472,4.5588,4.6045,4.6106,4.6562,4.7298,4.8181,4.841,4.8334,4.9273,4.9593,4.9653,0.0,3.6502,3.6874,3.728,3.7796,3.8144,3.8144,3.869,3.9246,3.9697,3.984,3.99,3.99,3.9182,3.8539,3.812,3.8102,3.7404,3.5756,3.6028,3.5514,3.3862,3.5404,3.6101,3.5661,3.6868,3.7309,3.6905,3.6064,3.5426,3.5004,3.4582,3.4619,3.5023,3.5445,3.5408,3.5004,3.5004,3.5372,3.6197,3.8918,4.0239,4.0868,4.3131,4.2858,4.1343,4.1639,4.0943,3.9812,3.9472,3.9406,3.9344,3.8474,3.7724,3.6979,3.6104,3.5683,3.5596,3.5981,3.5776,3.5641,3.6481,3.6065,0.0,0.0,3.8334,3.9604,4.3008,4.4374,4.572,4.8298,4.8759,4.9317,5.1029,5.1664,5.2549,5.426,5.7415,5.955,5.955,6.0281,6.08,6.08,6.0416,5.9627,5.8338,5.7464,5.5876,5.3337,5.3203,5.2222,5.0125,4.9202,4.8567,4.8163,4.6714,4.5993,4.5993,4.5382,4.5107,4.5107,4.4931,4.4943,4.5074,4.4745,4.4718,4.4926,4.5189,4.5553,4.5975,4.6801,4.6833,4.6653,4.8299,4.8882,4.9002,3.6752,3.733,3.7914,3.8167,3.8767,3.9304,3.9441,4.0168,4.0691,4.0691,4.0932,4.0861,4.0264,3.9871,3.9428,3.8821,3.875,3.812,3.6633,3.7183,3.649,3.4137,3.5495,3.6156,3.5826,3.6776,3.7272,3.7272,3.645,3.5789,3.5243,3.4931,3.4949,3.5261,3.5807,3.5922,3.5701,3.5555,3.6143,3.732,3.9134,4.0118,4.081,4.3811,4.4177,4.3047,4.2509,4.1365,3.9951,3.9044,3.9316,3.9874,3.9003,3.8185,3.7461,3.6905,3.623,3.5842,3.6704,3.5834,3.5007,3.6365,3.5045,3.3776,0.0,0.0,0.0,3.9457,4.1393,4.3143,4.4209,4.4382,4.5171,4.7548,4.8202,4.8836,5.0029,5.4164,5.7627,5.9165,5.9627,5.9877,6.005,5.9281,5.828,5.7099,5.6849,5.5703,5.3337,5.3203,5.2029,4.9471,4.8481,4.7607,4.6781,4.56,4.4988,4.5007,4.4739,4.4593,4.4612,4.4514,4.4527,4.4567,4.4106,4.394,4.4008,4.4331,4.447,4.4562,4.5535,4.546,4.5083,4.7335,4.8136,4.8234,3.6567,3.7097,3.7978,3.9103,4.036,4.1425,4.2142,4.2141,4.2072,4.2072,4.1501,4.1129,4.1216,3.9803,3.8864,3.8956,3.8975,3.8495,3.7426,3.7618,3.69,3.494,3.5789,3.5605,3.4119,3.5624,3.6431,3.6431,3.5573,3.5481,3.6119,3.4633,3.4724,3.6119,3.5445,3.6307,3.823,3.7514,3.8108,3.9662,4.1485,4.108,3.988,4.4454,4.4481,4.2087,4.2224,4.1365,4.0035,3.9668,3.964,3.9715,3.9605,3.8432,3.729,3.8357,3.7497,3.6457,3.7559,3.7161,3.6462,3.6654,3.5942,3.525,3.5442,0.0,3.6038,3.6942,0.0,3.8065,3.9708,0.0,0.0,4.2374,4.3912,4.5701,4.8067,5.0827,5.2981,5.3953,5.5376,5.6569,5.7368,5.6626,5.6357,5.6964,5.6291,5.5068,5.3299,5.3203,5.2029,4.9471,4.8262,4.7253,4.6383,4.5235,4.4644,4.4663,4.4606,4.4593,4.458,4.4219,4.4261,4.4553,4.3852,4.3726,4.3971,4.374,4.3626,4.379,4.5314,4.5598,4.5353,4.7119,4.7496,4.7386,3.7082,3.8265,0.0,4.0029,4.1264,4.2315,4.2657,4.2868,4.3002,4.3002,4.269,4.2538,4.2728,4.2066,4.1322,4.0584,4.0506,3.9946,3.8635,3.8079,3.7425,3.6596,3.6398,3.5973,3.5275,3.5936,3.6303,3.6303,3.5426,3.5188,3.5518,3.4821,3.5147,3.6303,3.6413,3.7551,3.9368,3.9053,3.9551,4.0694,4.1937,4.1579,4.0761,4.484,4.4857,4.2562,4.1613,4.0741,3.9898,3.8573,3.9765,4.1366,3.8894,3.8546,3.8903,3.8269,3.7224,3.6545,3.7652,3.7309,3.6644,3.6644,3.5666,3.4689,3.4689,3.51,3.5442,3.5276,0.0,0.0,0.0,0.0,0.0,0.0,4.1643,4.2816,4.4913,4.6528,4.8913,5.2741,5.426,5.5145,5.5511,5.4761,5.4395,5.4761,5.4914,5.4049,5.1875,5.2664,5.1718,4.8454,4.7857,4.685,4.5318,4.4611,4.4247,4.4247,4.405,4.3962,4.3962,4.3791,4.3788,4.3946,4.3631,4.358,4.3693,4.3565,4.3515,4.357,4.4232,4.4666,4.513,4.7008,4.7591,4.7563,3.8239,0.0,0.0,4.0721,4.195,4.292,4.292,4.3469,4.3871,4.3871,4.3688,4.3613,4.3781,4.3318,4.2625,4.1703,4.1621,4.1057,3.9714,3.914,3.8562,3.7882,3.7267,3.6776,3.6386,3.6084,3.6064,3.6303,3.5426,3.5133,3.5353,3.5353,3.5807,3.6652,3.7235,3.8521,4.023,4.0451,4.1277,4.2506,4.3296,4.3406,4.3265,4.5036,4.4903,4.3576,4.2044,4.1091,4.0311,3.8742,4.0235,4.2271,3.9436,3.9355,4.0133,3.9031,3.7996,3.743,3.8501,3.8053,3.725,3.7179,3.5971,3.4744,3.4525,3.5005,3.5385,3.4968,3.5853,0.0,0.0,0.0,3.7661,3.9515,0.0,4.0689,4.2181,4.3297,4.574,5.0548,5.2491,5.3453,5.3453,5.3087,5.2837,5.2837,5.3332,5.2764,5.0798,5.1875,5.1117,4.8037,4.7509,4.648,4.4785,4.4158,4.3865,4.3865,4.3631,4.3515,4.3515,4.3515,4.3515,4.3515,4.3515,4.3515,4.3515,4.3515,4.3515,4.3533,4.3736,4.4323,4.5203,4.6677,4.7222,4.7352,4.0203,4.0257,0.0,4.0979,4.2417,4.3462,4.3462,4.4247,4.4867,4.4865,4.4198,4.3778,4.3965,4.2317,4.1324,4.1669,4.1703,4.1347,4.051,4.1156,4.0559,3.8294,3.8464,3.7995,3.6619,3.5578,3.5445,3.6303,3.5426,3.5426,3.6266,3.6266,3.6703,3.7456,3.7492,3.8817,4.1113,4.1901,4.3589,4.581,4.6617,4.7388,4.7772,4.4965,4.4367,4.4942,4.424,4.3006,4.169,4.1363,4.1356,4.1571,4.2236,4.127,4.0191,4.1647,4.078,3.9651,4.0789,4.0031,3.8887,3.8691,3.7572,3.6325,3.5619,3.5486,3.5712,3.6462,3.6654,3.6962,3.7796,3.7969,3.7988,0.0,3.8796,0.0,0.0,4.2066,4.3816,4.5633,4.8788,5.0827,5.0827,5.151,5.1942,5.1942,5.161,5.1213,5.0731,5.0812,5.0244,4.881,4.7301,4.6109,4.5205,4.4064,4.3513,4.3513,4.3515,4.3515,4.3515,4.3515,4.3515,4.3515,4.3515,4.3515,4.3515,4.3515,4.3515,4.3588,4.436,4.5149,4.5865,4.5938,4.5957,4.6177,0.0,0.0,4.1512,4.117,4.2433,4.3515,4.3515,4.376,4.4214,4.4831,4.4661,4.5151,4.692,4.6087,4.547,4.5646,4.4858,4.4001,4.3136,4.2799,4.2056,4.0763,4.1591,4.0869,3.8239,3.8272,3.7909,3.7088,3.6266,3.6009,3.6303,3.6303,3.645,3.6758,3.7808,3.935,4.1224,4.3094,4.4966,4.6654,4.6416,4.6471,4.6654,4.6173,4.5957,4.573,4.4422,4.3375,4.2378,4.106,4.17,4.282,4.1428,4.0962,4.0944,4.1252,4.0174,3.9137,4.0256,4.0176,3.9886,4.0311,3.8758,3.7186,3.7445,3.6998,3.6483,3.6217,3.7024,3.7698,3.7442,3.7404,0.0,0.0,0.0,3.8146,0.0,3.9308,4.0158,4.2,4.4729,4.6682,4.7268,4.8086,4.8596,4.8596,4.8961,4.8644,4.7394,4.8682,4.8403,4.6095,4.6329,4.5727,4.4085,4.3693,4.3515,4.3515,4.3515,4.3515,4.3515,4.3515,4.3515,4.3515,4.3515,4.3515,4.3515,4.3515,4.3515,4.3533,4.3791,4.4066,4.4507,4.6122,4.704,4.7572,4.2186,4.2378,4.247,4.168,4.2616,4.3698,4.4268,4.4638,4.5377,4.6837,4.6773,4.7343,4.9263,4.8282,4.7543,4.7652,4.6334,4.5316,4.4886,4.3645,4.2805,4.2525,4.28,4.1913,3.972,3.9922,3.9662,3.8891,3.7714,3.7441,3.7991,3.7129,3.674,3.6776,3.79,3.9252,4.0836,4.3374,4.531,4.6636,4.6104,4.6232,4.6746,4.6691,4.6649,4.6412,4.5103,4.4182,4.3382,4.1886,4.2432,4.3485,4.1887,4.1596,4.1781,4.1354,4.0355,3.9582,4.0253,4.0315,4.0258,4.0668,3.9347,3.8058,3.8528,3.8163,3.7677,3.7459,3.8452,3.9027,3.7878,3.8134,3.8377,0.0,0.0,0.0,0.0,3.7832,3.8532,3.9789,4.2514,4.4509,4.5075,4.622,4.6635,4.6028,4.634,4.6158,4.5182,4.6915,4.7057,4.5089,4.5845,4.5536,4.3938,4.3626,4.3515,4.3515,4.3515,4.3515,4.3515,4.3515,4.3515,4.3515,4.3515,4.3515,4.3515,4.3515,4.3515,4.3515,4.3515,4.3863,4.4525,4.6104,4.7351,4.8306,4.3887,4.3589,4.3386,4.2616,4.3075,4.4085,4.57,4.6793,4.8229,5.0506,5.0231,5.01,5.0875,4.8956,4.7653,4.7748,4.6295,4.5441,4.5705,4.3891,4.2997,4.3423,4.2303,4.1476,4.1006,4.0618,4.0794,4.1574,3.9748,3.9662,4.1128,3.8704,3.7544,3.7566,3.7885,3.8702,4.0037,4.2869,4.4755,4.5902,4.5865,4.6783,4.8012,4.6489,4.6434,4.7058,4.625,4.548,4.469,4.3828,4.357,4.3551,4.3497,4.3124,4.2596,4.2,4.1402,4.0903,4.0903,4.0521,4.0058,3.9909,3.9374,3.8879,3.894,3.8894,3.9091,3.9941,4.0688,4.0697,3.9034,3.994,4.0091,0.0,0.0,0.0,3.592,3.7509,3.8803,3.8888,4.1956,4.4085,4.4162,4.572,4.6028,4.4374,4.3914,4.3855,4.4194,4.5528,4.6093,4.5663,4.5686,4.5369,4.4636,4.3808,4.344,4.3515,4.3515,4.3515,4.3515,4.3515,4.3515,4.3515,4.3515,4.3515,4.3515,4.3515,4.3515,4.3515,4.3551,4.4525,4.5957,4.5993,4.6985,4.8306,4.4601,4.4874,4.5223,4.5002,4.4654,4.4947,4.6544,4.8062,4.9045,4.9099,5.0502,5.1548,5.1764,5.1858,5.1405,5.0083,4.9233,4.801,4.6327,4.5795,4.5182,4.4321,4.5022,4.4518,4.2656,4.4032,4.4549,4.4081,4.2265,4.1698,4.2298,3.9636,3.8312,3.8214,3.9221,3.9547,3.9537,4.3292,4.5273,4.5847,4.5259,4.5608,4.6471,4.6067,4.6764,4.7902,4.7076,4.6654,4.6269,4.4874,4.4397,4.4287,4.3681,4.3124,4.2655,4.2519,4.1707,4.0903,4.0903,4.0521,4.023,4.0734,3.9704,3.8738,3.9307,3.8874,3.8444,3.8676,3.9336,3.975,3.9297,3.8903,3.8414,3.7726,0.0,3.5323,3.4722,3.5803,3.7223,3.8717,3.9895,4.1066,4.2316,4.3431,4.3893,4.3431,4.2729,4.2506,4.2947,4.392,4.4176,4.3594,4.3212,4.3255,4.3808,4.2604,4.2511,4.3515,4.3515,4.3515,4.3515,4.3515,4.3515,4.3515,4.3515,4.3515,4.3515,4.3515,4.3515,4.357,4.4158,4.5388,4.6856,4.7462,4.7957,4.8306,4.5462,4.559,4.6012,4.6361,4.6948,4.7663,4.858,4.9811,5.0884,5.1511,5.2467,5.3254,5.3599,5.383,5.3426,5.2025,5.0338,4.895,4.8014,4.6316,4.5542,4.6015,4.5807,4.5045,4.3704,4.5109,4.5939,4.6088,4.3702,4.3143,4.4293,4.0774,3.8658,3.7893,3.9508,3.9883,3.9601,4.3916,4.6094,4.6611,4.5606,4.592,0.0,4.6177,4.6893,4.8251,4.7791,4.7388,4.6856,4.5241,4.4691,4.4562,4.3754,4.3124,4.2711,4.2711,4.1853,4.0903,4.0903,4.0521,4.0197,4.0612,3.9938,3.9388,4.0117,3.9881,3.9507,3.9507,4.0141,4.0336,3.9202,3.8709,3.8043,3.6777,3.6017,3.5331,3.4646,3.6136,3.7646,3.8562,4.0205,4.1564,4.2299,4.2124,4.2277,4.3047,4.2297,4.1758,4.1637,4.3539,4.3699,4.1631,4.3108,4.3411,4.2337,4.1927,4.2027,4.2643,4.2643,4.293,4.3515,4.3515,4.3515,4.3515,4.3515,4.3515,4.3515,4.3515,4.3515,4.3625,4.4764,4.5975,4.7241,4.8434,4.8857,4.8802,4.6377,4.614,4.6507,4.7424,4.9369,5.0949,5.1371,5.2105,5.3298,5.5188,5.5097,5.506,5.5559,5.5265,5.4611,5.3537,5.0887,4.9484,4.9952,4.646,4.5411,4.7793,4.574,4.4569,4.4621,4.5313,4.6389,4.7832,4.4665,4.4268,4.6384,4.1807,3.898,3.7795,3.9499,4.0313,4.0657,4.4472,4.6673,4.7519,4.6487,4.6893,4.8012,4.6709,4.7076,4.8306,4.8306,4.7846,4.7021,4.5517,4.4929,4.4727,4.3901,4.3251,4.2789,4.2789,4.1958,4.1018,4.1018,4.0552,4.0096,4.0096,4.0096,4.0282,4.0916,4.1068,4.1068,4.1068,4.1559,4.1342,3.9124,3.8876,3.8139,3.5472,3.5746,3.5954,3.4986,3.7396,3.9057,3.8475,4.1412,0.0,4.3272,4.1777,4.1516,4.3143,4.247,4.1569,4.0641,4.3631,4.3736,4.0219,4.3659,4.4157,4.1249,4.1519,4.1764,4.1917,4.1627,4.2199,4.3515,4.3515,4.3515,4.3515,4.3515,4.3515,4.3515,4.3515,4.3608,4.3974,4.5461,4.6562,4.7424,4.8893,4.9574,4.9647,4.7204,4.7406,4.8361,4.9903,5.0508,5.1683,5.4344,5.5445,5.5629,5.473,5.6216,5.6914,5.5721,5.6676,5.6557,5.4393,5.3679,5.2381,5.0072,4.8661,4.7901,4.7911,4.6891,4.6367,4.635,4.7552,4.8628,4.9557,4.6342,4.5472,4.6715,4.1877,4.0102,4.0989,4.1065,4.2416,4.4619,4.4487,4.5504,4.7187,4.6966,4.7058,4.7351,4.7737,4.8049,4.8306,4.8306,4.8214,4.7957,4.7003,4.6232,4.5553,4.4745,4.3977,4.3375,4.3375,4.2542,4.1643,4.1643,4.0891,4.0096,4.0096,4.0096,4.013,4.0265,4.0299,4.0299,4.0299,4.04,4.0358,3.9915,3.8495,3.6944,3.5557,3.5888,3.5752,3.4229,3.7512,3.9698,3.8603,4.0406,4.2364,4.3953,4.3201,4.3047,4.4028,4.3335,4.2366,4.1227,4.269,4.2668,4.0724,4.0946,4.1882,4.3413,4.1115,4.1339,4.4116,4.2341,4.2199,4.3515,4.3515,4.3515,4.3515,4.3515,4.3515,4.3515,4.3515,4.4268,4.5571,4.6526,4.7369,4.8141,4.8416,4.9407,5.0472,5.0047,4.9196,4.8881,4.9658,5.1055,5.2582,5.4124,5.6473,5.7483,5.5868,5.6657,5.7079,5.6308,5.7281,5.7354,5.5794,5.4876,5.3604,5.1775,5.0545,4.9781,4.9562,4.8868,4.8423,4.8303,4.8548,4.9259,5.0408,4.6625,4.5498,4.6807,4.2663,4.0662,4.0538,4.1504,4.3194,4.5395,4.6207,4.6869,4.7478,4.8125,4.8141,4.7755,4.8159,4.8306,4.8306,4.8306,4.8306,4.8196,4.7369,4.6562,4.5828,4.5443,4.447,4.3588,4.3993,4.3248,4.2203,4.1895,4.1173,4.0449,4.0154,4.0096,4.0096,4.0096,4.0096,4.0096,4.0096,4.0096,3.9917,3.9368,3.8699,3.7884,3.6823,3.6807,3.6648,3.5826,3.7524,3.8832,3.8802,4.039,4.2143,4.3876,4.4106,4.4182,4.4288,4.3932,4.2708,4.04,4.2269,4.2476,4.0446,4.1211,4.2089,4.295,4.1518,4.1552,4.3026,4.1994,4.2199,4.3515,4.3515,4.3515,4.3515,4.3515,4.3515,4.3515,4.3515,4.4452,4.5938,4.6342,4.7223,4.8416,4.9279,4.9848,5.0105,5.3124,5.1491,5.0191,5.0525,5.2313,5.383,5.4179,5.6744,5.8285,5.7207,5.7207,5.7244,5.7079,5.7611,5.7611,5.6638,5.5537,5.4304,5.2888,5.1914,5.1233,5.0864,5.0457,5.0151,4.9983,4.9226,4.9481,5.0819,4.6969,4.5622,4.6562,4.3772,4.1686,4.0342,4.2491,4.4151,4.5451,4.7875,4.859,4.8172,4.9194,4.9206,4.8563,4.8379,4.8306,4.8306,4.8306,4.8306,4.8214,4.7571,4.6709,4.5902,4.5902,4.48,4.3608,4.4268,4.3615,4.2596,4.2121,4.1556,4.0967,4.0417,4.0262,4.0254,4.0121,4.0096,4.0096,4.0096,4.0096,3.9848,3.9009,3.9034,3.8914,3.8025,3.7698,3.7409,3.7019,3.7566,3.8228,3.8792,4.0541,4.2195,4.3412,4.4376,4.4681,4.4096,4.4201,4.3049,4.0129,4.2269,4.2465,4.0078,4.1968,4.2794,4.2272,4.192,4.19,4.2168,4.1724,4.2199,4.3515,4.3515,4.3515,4.3515,4.3515,4.3515,4.3497,4.3681,4.4599,4.592,4.6085,4.704,4.8489,4.9994,5.0141,4.9647,5.5165,5.454,5.4335,5.5805,5.5691,5.5868,5.7336,5.7262,5.7244,5.7813,5.8529,5.8712,5.7978,5.7941,5.7373,5.5849,5.6235,5.5017,5.1365,5.2353,5.2173,5.0112,5.0643,5.0996,5.0977,5.0074,5.0019,5.0882,4.8477,4.6754,4.5726,4.5031,4.4236,4.3457,4.5609,4.6459,4.6389,4.8153,4.9102,4.943,4.9556,4.9555,4.939,4.86,4.8306,4.8306,4.8306,4.8306,4.8306,4.8214,4.7168,4.5902,4.5902,4.48,4.3497,4.3589,4.3178,4.2692,4.2635,4.2183,4.1578,4.0972,4.0827,4.0703,4.0204,4.0096,4.0096,4.0096,4.0096,4.0062,3.996,3.9208,3.8503,3.8219,3.7935,3.7178,3.5479,3.7808,3.9264,3.8141,4.0409,4.2193,4.2576,4.3675,4.4041,4.3278,4.3893,4.3682,4.2277,4.2803,4.2198,4.007,4.166,4.2735,4.3088,4.1644,4.2086,4.4394,4.2418,4.2199,4.3515,4.3515,4.3515,4.3515,4.3515,4.3515,4.357,4.4287,4.5112,4.5975,4.6691,4.7516,4.8416,4.9352,4.9665,4.9812,5.8055,5.6707,5.5523,5.569,5.6046,5.6363,5.6528,5.7923,5.8914,5.8749,5.8584,5.8364,5.8033,5.7997,5.774,5.7097,5.7336,5.6438,5.3908,5.4323,5.4064,5.2666,5.2444,5.2589,5.3083,5.1289,5.0763,5.1547,4.813,4.6701,4.7109,4.514,4.449,4.4978,4.6119,4.685,4.7266,4.8715,4.9121,4.8857,4.939,4.9298,4.8783,4.8434,4.8306,4.8306,4.8306,4.8306,4.8306,4.8306,4.7553,4.6617,4.6617,4.5535,4.4213,4.4213,4.3741,4.3124,4.2788,4.2519,4.2183,4.1599,4.1446,4.138,4.1173,4.0844,4.0577,4.0577,4.0336,4.0096,4.0096,4.0024,3.9715,3.9024,3.8844,3.8275,3.6872,3.7536,3.8313,3.8758,3.9837,4.103,4.2255,4.3345,4.3931,4.3762,4.4576,4.4205,4.2189,4.2508,4.2713,4.264,4.1385,4.2026,4.4777,4.2443,4.2166,4.3975,4.3117,4.2988,4.3515,4.3515,4.3515,4.3515,4.3515,4.3515,4.3552,4.4378,4.5168,4.5975,4.6782,4.759,4.8416,4.928,4.9922,5.0343,6.0633,5.9119,5.7622,5.705,5.7836,5.8006,5.6378,5.875,6.0173,5.8528,5.8345,5.8345,5.8345,5.8143,5.7813,5.7336,5.7721,5.7116,5.5023,5.5556,5.5482,5.4454,5.3867,5.383,5.4399,5.227,5.1316,5.1646,4.8649,4.7367,4.762,4.5485,4.5,4.5936,4.6655,4.7157,4.7619,4.901,4.9095,4.8379,4.9262,4.9077,4.8306,4.8306,4.8306,4.8306,4.8306,4.8306,4.8306,4.8306,4.7755,4.7058,4.6819,4.5975,4.4966,4.4488,4.4103,4.3721,4.3105,4.2939,4.2789,4.2203,4.2062,4.2021,4.1853,4.1468,4.1178,4.1178,4.0726,4.0392,4.0587,4.0774,4.0697,4.0083,3.9793,3.9344,3.8539,3.7936,3.809,3.9498,3.9659,4.0267,4.1829,4.2844,4.343,4.346,4.4461,4.4172,4.211,4.2183,4.2546,4.3089,4.0708,4.1155,4.4718,4.2448,4.2028,4.3515,4.3515,4.3515,4.3515,4.3515,4.3515,4.3497,4.3736,4.3846,4.392,4.4727,4.5535,4.6305,4.6874,4.759,4.8416,4.928,4.9978,5.0417,6.2603,6.2089,6.1545,6.1526,6.2199,6.1524,5.7932,5.977,6.0314,5.6709,5.7958,5.9184,5.9184,5.8492,5.7354,5.578,5.7079,5.6638,5.3445,5.5464,5.6069,5.4473,5.4399,5.4399,5.4399,5.2803,5.1591,5.082,5.0747,4.9251,4.6415,4.6378,4.6376,4.6448,4.7721,4.7847,4.7223,4.8875,4.9095,4.8379,4.9262,4.9077,4.8306,4.8306,4.8306,4.8306,4.8306,4.8306,4.8306,4.8306,4.7755,4.6947,4.6177,4.5902,4.5571,4.3992,4.4066,4.4507,4.3718,4.3479,4.3375,4.2808,4.2692,4.2519,4.1937,4.1793,4.1789,4.1789,4.1313,4.1064,4.1664,4.1291,4.1011,4.133,4.0726,4.013,3.991,3.9362,3.9288,4.0168,4.0109,4.0323,4.114,4.1999,4.2308,4.1782,4.3024,4.3427,4.255,4.2064,4.1276,4.009,3.9563,4.0195,4.2027,4.1218,4.1698,4.3515,4.3515,4.3515,4.3515,4.3515,4.3515,4.3551,4.4342,4.469,4.4764,4.5553,4.6361,4.7094,4.7094,4.759,4.8416,4.928,4.961,4.9849,5.7258,5.9897,6.1636,5.9102,6.0503,6.1404,5.9693,6.0662,6.1005,5.9288,5.9614,5.9813,5.9258,5.8492,5.7776,5.7281,5.6947,5.6436,5.5706,5.5602,5.5478,5.5229,5.4441,5.3714,5.3119,5.2084,5.1121,5.0324,5.0324,4.9562,4.8103,4.8101,4.7949,4.7721,4.8124,4.8159,4.7957,4.8489,4.8545,4.8324,4.86,4.8545,4.8306,4.8306,4.8306,4.8306,4.8306,4.8306,4.8306,4.8306,4.8141,4.7792,4.6966,4.5975,4.4984,4.447,4.4103,4.3828,4.357,4.3515,4.3444,4.3286,4.325,4.3196,4.2996,4.2694,4.2302,4.1895,4.1643,4.1578,4.175,4.1643,4.1308,4.0686,4.0979,4.101,4.022,4.0106,4.018,4.047,4.0496,4.0559,4.0779,4.2166,4.3039,4.3067,4.4075,4.4304,4.3435,4.3034,4.3042,4.353,4.1769,4.1785,4.3809,4.2128,4.2025,4.3515,4.3515,4.3515,4.3515,4.3515,4.3791,4.4342,4.4599,4.5021,4.559,4.6397,4.6856,4.7149,4.77,4.8086,4.8416,4.928,4.9959,5.049,5.7793,6.0332,6.2071,5.9778,6.0848,6.163,6.0384,6.1237,6.1501,5.9923,6.0115,6.0107,5.9276,5.8492,5.7997,5.7997,5.7312,5.6987,5.723,5.6559,5.623,5.6496,5.5194,5.4229,5.3672,5.2582,5.162,5.0824,5.0509,4.9954,4.9158,4.9157,4.8846,4.8306,4.8306,4.8306,4.8306,4.8306,4.8306,4.8306,4.8306,4.8306,4.8306,4.8306,4.8306,4.8306,4.8306,4.8306,4.8306,4.8306,4.8104,4.781,4.7608,4.6434,4.5149,4.5149,4.4782,4.4342,4.403,4.3718,4.3515,4.3515,4.3515,4.3515,4.3515,4.3232,4.2884,4.2523,4.2284,4.2203,4.2386,4.2266,4.2072,4.1923,4.2188,4.2309,4.1941,4.1312,4.1028,4.1375,4.1011,4.0793,4.106,4.2324,4.3076,4.3024,4.3583,4.3793,4.3434,4.3149,4.3165,4.3539,4.174,4.1783,4.3976,4.2316,4.2162,4.3515,4.3809,4.3791,4.3515,4.3809,4.4213,4.4709,4.5021,4.5608,4.6416,4.7204,4.7553,4.759,4.8104,4.8306,4.8416,4.928,5.0105,5.0839,6.2236,6.2518,6.2732,6.2463,6.2622,6.2144,6.0225,6.155,6.1818,5.9078,5.971,6.007,5.9203,5.8455,5.7997,5.7997,5.7932,5.7914,5.7978,5.7932,5.7895,5.7923,5.6408,5.5511,5.5401,5.391,5.2787,5.2068,5.1279,5.0472,4.9684,4.9629,4.9132,4.8306,4.8306,4.8306,4.8306,4.8306,4.8306,4.8306,4.8306,4.8306,4.8306,4.8306,4.8306,4.8306,4.8306,4.8306,4.8306,4.8306,4.7791,4.7314,4.8067,4.7278,4.6067,4.5993,4.5938,4.5718,4.4929,4.4158,4.357,4.3497,4.3515,4.3515,4.3515,4.3515,4.3515,4.3515,4.3087,4.2902,4.341,4.3142,4.3229,4.4436,4.403,4.3808,4.4487,4.2778,4.1758,4.2619,4.1599,4.1103,4.1853,4.2504,4.2656,4.2176,4.2136,4.2423,4.3022,4.2818,4.2181,4.1017,4.0203,4.0774,4.2828,4.2036,4.2279,4.3589,4.4342,4.4342,4.3698,4.4452,4.4801,4.4911,4.5663,4.6452,4.7241,4.7975,4.8306,4.8324,4.8379,4.8398,4.8508,4.9445,5.0233,5.1004,5.6686,5.9775,6.1912,5.9091,6.0927,6.2426,6.134,6.2108,6.2114,6.0217,6.0215,5.9869,5.8437,5.8107,5.7997,5.7997,5.7174,5.7014,5.7928,5.7137,5.6755,5.706,5.5829,5.4551,5.327,5.2863,5.2746,5.2931,5.2105,5.1298,5.0508,4.9904,4.9132,4.8306,4.8306,4.8306,4.8306,4.8306,4.8306,4.8306,4.8306,4.8306,4.8306,4.8306,4.8306,4.8306,4.8306,4.8306,4.8306,4.8306,4.8177,4.8048,4.8251,4.8049,4.7609,4.6984,4.6379,4.5718,4.4929,4.4562,4.4268,4.3662,4.3515,4.3515,4.3515,4.3515,4.3515,4.3515,4.3392,4.3357,4.348,4.3905,4.4144,4.3829,4.414,4.4134,4.336,4.2588,4.2044,4.1898,4.1907,4.2012,4.2196,4.2884,4.364,4.435,4.3849,4.4114,4.5478,4.4916,4.4039,4.2897,4.2659,4.2795,4.3338,4.3118,4.3491,4.4415,4.4617,4.4929,4.5333,4.5535,4.5957,4.6544,4.6727,4.7259,4.8031,4.8233,4.8306,4.8379,4.9022,4.9279,4.9482,5.0914,5.1536,5.183,5.8452,6.0656,6.2053,5.9678,6.0917,6.2108,6.1667,6.1961,6.1942,6.1062,6.0639,5.9942,5.8694,5.8217,5.7997,5.7997,5.7398,5.7294,5.7964,5.7379,5.7128,5.7336,5.6369,5.5223,5.3946,5.3559,5.331,5.3185,5.2766,5.2142,5.1334,5.0527,4.9701,4.8875,4.8489,4.8306,4.8306,4.8306,4.8306,4.8306,4.8306,4.8306,4.8306,4.8306,4.8306,4.8306,4.8306,4.8306,4.8306,4.8306,4.8306,4.8306,4.8306,4.8306,4.8214,4.7773,4.7076,4.6269,4.548,4.4984,4.4525,4.3699,4.3515,4.3515,4.3515,4.3515,4.3515,4.3515,4.3515,4.3515,4.3515,4.4158,4.4562,4.4121,4.424,4.4128,4.346,4.256,4.2014,4.2151,4.2237,4.2433,4.28,4.3239,4.3764,4.4385,4.4172,4.4469,4.5569,4.5345,4.4856,4.4065,4.4048,4.3864,4.3515,4.3864,4.4268,4.4727,4.5443,4.5828,4.5902,4.6287,4.6691,4.7094,4.7094,4.7792,4.8857,4.8471,4.8746,4.9462,4.9574,4.9831,5.0288,5.1536,5.1995,5.2105,6.278,6.278,6.2511,6.1575,6.152,6.152,6.1263,6.1337,6.1374,6.1245,6.0639,5.9924,5.9116,5.8419,5.7997,5.7997,5.7997,5.7997,5.7997,5.7997,5.7997,5.7997,5.7226,5.6492,5.5794,5.4858,5.4014,5.3185,5.3185,5.2803,5.1977,5.1187,5.0362,4.9555,4.8691,4.8306,4.8306,4.8306,4.8306,4.8306,4.8306,4.8306,4.8306,4.8306,4.8306,4.8306,4.8306,4.8306,4.8306,4.8306,4.8306,4.8306,4.8306,4.8306,4.8306,4.8306,4.781,4.7076,4.6159,4.5223,4.436,4.3663,4.3515,4.3515,4.3515,4.3515,4.3515,4.3515,4.3515,4.3551,4.3644,4.425,4.4726,4.4778,4.4327,4.3971,4.3901,4.2675,4.2017,4.2728,4.2606,4.2745,4.3441,4.3608,4.3718,4.3863,4.413,4.457,4.5222,4.5406,4.5349,4.5076,4.4929,4.4544,4.3882,4.4544,4.4929,4.5076,4.6452,4.6801,4.6287,4.6966,4.7278,4.7278,4.7406,4.8288,4.9555,4.893,4.9517,5.0747,5.0198,5.038,5.1077,5.1885,5.2179,5.227,6.278,6.278,6.2346,6.086,6.1153,6.1135,5.9795,6.0162,6.0346,5.9667,5.9459,5.9074,5.8272,5.807,5.7997,5.7997,5.7997,5.7997,5.7997,5.7997,5.7997,5.7997,5.7226,5.6748,5.662,5.517,5.4014,5.3185,5.3185,5.2803,5.1977,5.1187,5.0362,4.9555,4.8691,4.8306,4.8306,4.8306,4.8306,4.8306,4.8306,4.8306,4.8306,4.8306,4.8306,4.8306,4.8306,4.8306,4.8306,4.8306,4.8306,4.8306,4.8306,4.8306,4.8306,4.8306,4.8214,4.7792,4.6305,4.4819,4.3644,4.3533,4.3515,4.3515,4.3515,4.3515,4.3515,4.3515,4.3515,4.3699,4.4397,4.4635,4.4795,4.5071,4.4498,4.3871,4.3461,4.2946,4.2653,4.2783,4.3104,4.3368,4.3496,4.4103,4.48,4.548,4.557,4.6231,4.7664,4.715,4.6783,4.6727,4.6085,4.5645,4.5535,4.5645,4.6049,4.6727,4.6984,4.7388,4.7939,4.8067,4.8122,4.8159,4.8893,4.9372,4.9647,5.0196,5.0582,5.0857,5.1408,5.1683,5.1903,5.2729,5.3023,5.3041,6.2236,6.2144,6.1649,6.0034,6.007,6.007,5.9294,5.9515,5.9606,5.9239,5.9184,5.8896,5.8088,5.7997,5.7997,5.7997,5.7997,5.7997,5.7997,5.7997,5.7997,5.7997,5.7648,5.7042,5.6161,5.5005,5.4014,5.3185,5.3185,5.3023,5.2637,5.1811,5.1022,5.0196,4.937,4.8746,4.8306,4.8306,4.8306,4.8306,4.8306,4.8306,4.8306,4.8306,4.8306,4.8306,4.8306,4.8306,4.8306,4.8306,4.8306,4.8306,4.8306,4.8306,4.8306,4.8306,4.77,4.6856,4.6104,4.4727,4.3515,4.3515,4.3515,4.3515,4.3515,4.3515,4.3515,4.3515,4.3515,4.3736,4.4562,4.4691,4.489,4.5485,4.4703,4.3923,4.3703,4.3162,4.2802,4.2802,4.3215,4.3663,4.4103,4.4085,4.4562,4.581,4.5902,4.6416,4.759,4.77,4.7736,4.7736,4.6544,4.5902,4.5902,4.6342,4.6727,4.7113,4.7535,4.7938,4.8306,4.8306,4.8563,4.9022,4.9445,5.0088,5.0855,5.0399,5.0726,5.1445,5.104,5.1343,5.209,5.2472,5.2853,5.3185,6.1686,6.1447,6.0878,5.9441,5.9184,5.9129,5.8946,5.8933,5.8933,5.8933,5.8933,5.8694,5.807,5.7997,5.7997,5.7997,5.7997,5.7997,5.7997,5.7997,5.7997,5.7997,5.7813,5.6969,5.5354,5.4711,5.4014,5.3185,5.3185,5.3185,5.3167,5.238,5.1573,5.0765,5.0141,4.9279,4.8324,4.8526,4.8489,4.8306,4.8306,4.8306,4.8306,4.8306,4.8306,4.8306,4.8306,4.8306,4.8306,4.8306,4.8306,4.8306,4.8306,4.8306,4.8306,4.8306,4.7297,4.614,4.5957,4.5002,4.401,4.3828,4.392,4.401,4.3809,4.3773,4.3773,4.3773,4.3773,4.4085,4.5076,4.5095,4.5222,4.5898,4.4879,4.3992,4.3992,4.3304,4.2921,4.3219,4.3555,4.4103,4.4911,4.4599,4.4856,4.6085,4.6342,4.6728,4.7351,4.7957,4.8306,4.8306,4.7095,4.6452,4.6452,4.7076,4.7369,4.7388,4.8012,4.8416,4.86,4.86,4.9058,4.9904,5.0088,5.076,5.1676,5.0838,5.1144,5.1993,5.0834,5.1099,5.2089,5.1928,5.2312,5.2937,6.1465,6.1006,6.0236,5.9349,5.9184,5.8946,5.8198,5.8088,5.8088,5.8088,5.8088,5.807,5.7997,5.7997,5.7997,5.7997,5.7997,5.7997,5.7997,5.7997,5.7997,5.7997,5.7299,5.6143,5.4528,5.4436,5.4014,5.3185,5.3185,5.3185,5.3167,5.238,5.1573,5.0802,5.0747,4.9811,4.8361,4.915,4.904,4.8306,4.8306,4.8306,4.8306,4.8306,4.8306,4.8306,4.8306,4.8306,4.8306,4.8306,4.8306,4.8306,4.8306,4.8306,4.8306,4.8306,4.7681,4.6856,4.6104,4.581,4.5535,4.48,4.5168,4.5535,4.4782,4.4617,4.4617,4.4617,4.4617,4.5076,4.6636,4.6324,4.5935,4.6294,4.5037,4.3992,4.4001,4.3301,4.324,4.4429,4.4598,4.4929,4.5736,4.6415,4.6874,4.7003,4.77,4.8159,4.8214,4.8269,4.8306,4.8306,4.8196,4.8122,4.8122,4.8196,4.8214,4.8214,4.8269,4.8728,4.95,4.95,4.9939,5.0747,5.1499,5.1499,5.109,5.2397,5.2615,5.2071,5.1969,5.2011,5.2024,5.1393,5.1593,5.2183,6.0254,6.0272,5.9997,5.8676,5.8455,5.8345,5.8052,5.7997,5.7997,5.7997,5.7997,5.7997,5.7997,5.7997,5.7997,5.7997,5.7997,5.7997,5.7997,5.7997,5.7997,5.7997,5.7703,5.6785,5.517,5.5133,5.4509,5.3185,5.3185,5.3185,5.3185,5.2894,5.2307,5.1518,5.1022,5.0178,4.9077,4.8875,4.86,4.8306,4.8306,4.8306,4.8306,4.8306,4.8306,4.8306,4.8306,4.8306,4.8306,4.8306,4.8306,4.8306,4.8306,4.8306,4.8306,4.8306,4.8067,4.7663,4.6856,4.6287,4.5828,4.5516,4.5663,4.581,4.5516,4.5443,4.5443,4.5443,4.5443,4.5792,4.6892,4.6452,4.6268,4.7407,4.6226,4.5341,4.5856,4.523,4.4902,4.5387,4.5443,4.5773,4.6562,4.6471,4.6783,4.7755,4.7663,4.7755,4.8269,4.8306,4.8545,4.9077,4.9095,4.8838,4.8324,4.8838,4.9095,4.9095,4.9609,4.9777,4.9658,4.9658,5.0094,5.0878,5.1187,5.1434,5.1656,5.182,5.1444,5.0752,5.0352,5.0417,5.0752,5.05,5.0876,5.154,5.9368,5.9446,5.93,5.818,5.7997,5.7997,5.7997,5.7997,5.7997,5.7997,5.7997,5.7997,5.7997,5.7997,5.7997,5.7997,5.7997,5.7997,5.7997,5.7997,5.7776,5.7262,5.7244,5.6492,5.4876,5.484,5.4308,5.3185,5.3185,5.3185,5.3185,5.3185,5.2766,5.1977,5.1683,5.0967,4.9941,4.9334,4.8948,4.8673,4.8416,4.8306,4.8306,4.8306,4.8306,4.8306,4.8306,4.8306,4.8306,4.8306,4.8306,4.8306,4.8306,4.8306,4.8306,4.8306,4.8306,4.8196,4.7626,4.7076,4.6599,4.6342,4.6471,4.6599,4.6342,4.6287,4.6287,4.6287,4.6287,4.6526,4.7333,4.704,4.6929,4.7792,4.7003,4.6379,4.6672,4.625,4.5993,4.625,4.6287,4.6599,4.7388,4.6985,4.7113,4.8233,4.7791,4.7718,4.8269,4.8563,4.8967,4.9574,4.9849,4.9682,4.9095,4.9682,4.986,4.964,5.0428,5.0444,4.9769,4.9996,5.0386,5.0958,5.0958,5.1142,5.1426,5.1189,5.0662,4.9947,4.9492,4.9593,4.9993,5.0021,5.0511,5.1235,5.9038,5.8547,5.7997,5.7997,5.7997,5.7997,5.7997,5.7997,5.7997,5.7997,5.7997,5.7997,5.7997,5.7997,5.7997,5.7997,5.7997,5.7997,5.7997,5.7997,5.7281,5.5666,5.5614,5.4858,5.324,5.3203,5.3203,5.3185,5.3185,5.3185,5.3185,5.3185,5.2766,5.2032,5.2839,5.2307,5.082,5.0802,5.0325,4.9519,4.8655,4.8306,4.8306,4.8306,4.8306,4.8306,4.8306,4.8306,4.8306,4.8306,4.8306,4.8306,4.8306,4.8306,4.8306,4.8306,4.8306,4.8306,4.8306,4.8306,4.8122,4.7314,4.77,4.8104,4.7278,4.7113,4.7113,4.7113,4.7113,4.7351,4.8159,4.8306,4.8049,4.7241,4.7113,4.6819,4.603,4.592,4.6214,4.7003,4.7113,4.7424,4.8233,4.8306,4.8306,4.8306,4.8324,4.8324,4.8324,4.9132,4.961,4.9629,5.038,5.082,5.082,5.082,5.0441,4.9726,5.0459,5.0478,4.9928,5.0599,5.0982,5.1086,5.1086,5.0662,5.0061,5.0796,5.0662,5.0004,5.0004,5.0004,4.9994,5.009,5.0577,5.1303,5.8419,5.8621,5.8676,5.8107,5.7997,5.7997,5.7997,5.7997,5.7997,5.7997,5.7997,5.7997,5.7997,5.7997,5.7997,5.7997,5.7997,5.7997,5.7997,5.7997,5.7281,5.5666,5.6143,5.5959,5.4913,5.4326,5.3775,5.3185,5.3185,5.3185,5.3185,5.3185,5.3057,5.2839,5.2509,5.2087,5.1555,5.0435,4.9831,4.9519,4.8655,4.8306,4.8306,4.8306,4.8306,4.8306,4.8306,4.8306,4.8306,4.8306,4.8306,4.8306,4.8306,4.8306,4.8306,4.8306,4.8306,4.8306,4.8306,4.8306,4.8251,4.8012,4.8122,4.8251,4.8012,4.7938,4.7938,4.7938,4.7938,4.8012,4.8269,4.8306,4.8233,4.7994,4.7938,4.7846,4.7627,4.759,4.7682,4.7901,4.7938,4.8049,4.8288,4.8306,4.8306,4.8306,4.8857,4.9225,4.9225,4.9976,5.0692,5.1261,5.1518,5.1903,5.2491,5.1922,5.1527,5.1323,5.1595,5.1371,5.0724,5.0418,5.0299,5.0324,5.0324,5.0213,5.0033,5.0241,4.9936,4.9367,4.9879,5.0083,5.0155,5.0687,5.1021,5.1296,5.8107,5.84,5.8584,5.8088,5.7997,5.7997,5.7997,5.7997,5.7997,5.7997,5.7997,5.7997,5.7997,5.7997,5.7997,5.7997,5.7997,5.7997,5.7997,5.7997,5.7409,5.6124,5.6235,5.5794,5.4675,5.4179,5.3702,5.3185,5.3185,5.3185,5.3185,5.3185,5.3185,5.3167,5.2692,5.2472,5.2399,5.1096,5.0381,4.9994,4.9132,4.8581,4.8306,4.8306,4.8306,4.8306,4.8306,4.8306,4.8306,4.8306,4.8306,4.8306,4.8306,4.8306,4.8306,4.8306,4.8306,4.8306,4.8306,4.8306,4.8306,4.8306,4.8306,4.8306,4.8306,4.8563,4.8802,4.8802,4.9077,4.9297,4.9297,4.904,4.8802,4.8802,4.8526,4.8306,4.8306,4.8306,4.8306,4.8306,4.8306,4.8306,4.8306,4.8306,4.8434,4.8783,4.9591,5.0068,5.0068,5.0839,5.1499,5.1977,5.2307,5.2711,5.3185,5.2729,5.2184,5.1647,5.1943,5.1469,5.0258,5.009,4.985,4.9593,4.9593,4.9593,4.9593,4.9593,4.953,4.9475,4.9915,5.027,5.0625,5.1369,5.1657,5.1758,5.7997,5.7997,5.7997,5.7997,5.7997,5.7997,5.7997,5.7997,5.7997,5.7997,5.7997,5.7997,5.7997,5.7997,5.7997,5.7997,5.7997,5.7997,5.7997,5.7997,5.7648,5.684,5.6033,5.4876,5.3332,5.3243,5.3185,5.3185,5.3185,5.3185,5.3185,5.3185,5.3185,5.3185,5.3185,5.3185,5.3148,5.2344,5.1536,5.0729,4.9848,4.9022,4.8306,4.8306,4.8306,4.8306,4.8306,4.8306,4.8306,4.8306,4.8306,4.8306,4.8306,4.8306,4.8306,4.8306,4.8306,4.8306,4.8306,4.8361,4.8416,4.8416,4.8471,4.8508,4.8434,4.9022,4.9629,4.9702,5.0288,5.0802,5.0802,5.0196,4.9721,4.9721,4.8967,4.8453,4.8526,4.8398,4.8343,4.8416,4.8416,4.8416,4.8416,4.8489,4.8857,4.9665,5.0453,5.0912,5.0912,5.1665,5.2105,5.2105,5.2821,5.3185,5.3185,5.3185,5.2509,5.1189,5.1808,5.1042,4.9107,4.9722,4.9634,4.9001,4.9069,4.9103,4.9103,4.9171,4.9593,5.0202,5.0253,5.071,5.1403,5.2131,5.2418,5.252,5.7997,5.7997,5.7997,5.7997,5.7997,5.7997,5.7997,5.7997,5.7997,5.7997,5.7997,5.7997,5.7997,5.7997,5.7997,5.7997,5.7997,5.7997,5.7997,5.7997,5.7648,5.684,5.6033,5.5133,5.4161,5.3537,5.3185,5.3185,5.3185,5.3185,5.3185,5.3185,5.3185,5.3185,5.3185,5.3185,5.3148,5.2344,5.1536,5.0729,4.9922,4.9058,4.8306,4.8306,4.8306,4.8306,4.8306,4.8306,4.8306,4.8306,4.8306,4.8306,4.8306,4.8306,4.8306,4.8306,4.8306,4.8306,4.8306,4.8802,4.9335,4.9335,4.9793,5.0086,4.9463,4.9463,4.9776,5.0398,5.0674,5.0802,5.0802,5.0655,5.0545,5.0545,4.9848,4.9555,5.0178,4.9132,4.8545,4.9243,4.9335,4.9317,4.9242,4.9866,5.0343,5.0527,5.1279,5.1738,5.1738,5.2509,5.2949,5.2949,5.3115,5.3185,5.3185,5.3185,5.2747,5.188,5.2024,5.1274,4.9809,4.9919,4.9634,4.9035,4.961,4.9847,4.9898,5.049,5.0828,5.1031,5.1606,5.1928,5.2164,5.2959,5.3247,5.3264,5.7997,5.7997,5.7997,5.7997,5.7997,5.7997,5.7997,5.7997,5.7997,5.7997,5.7997,5.7997,5.7997,5.7997,5.7997,5.7997,5.7997,5.7997,5.7997,5.7997,5.7648,5.684,5.6033,5.5207,5.4418,5.361,5.3185,5.3185,5.3185,5.3185,5.3185,5.3185,5.3185,5.3185,5.3185,5.3185,5.3148,5.2344,5.1536,5.0729,4.9922,4.9077,4.8306,4.8306,4.8306,4.8306,4.8306,4.8306,4.8306,4.8306,4.8306,4.8306,4.8306,4.8306,4.8306,4.8306,4.86,4.8912,4.8875,4.9499,5.016,5.016,5.049,5.0692,5.027,5.0453,5.0877,5.1279,5.1683,5.194,5.194,5.1316,5.093,5.1316,5.0381,4.9886,5.0692,4.9701,4.9224,5.0068,4.9831,4.9739,5.0086,5.0875,5.1371,5.1371,5.2123,5.2564,5.2564,5.3353,5.3775,5.3775,5.4142,5.4161,5.3794,5.4161,5.3784,5.2654,5.2275,5.174,5.107,5.0702,5.0574,5.063,5.0604,5.0629,5.0659,5.1048,5.142,5.1775,5.2147,5.2536,5.2926,5.3348,5.3501,5.3501,5.7997,5.7997,5.7997,5.7997,5.7997,5.7997,5.7997,5.7997,5.7997,5.7997,5.7997,5.7997,5.7997,5.7997,5.7997,5.7997,5.7997,5.7997,5.7997,5.7997,5.7703,5.7042,5.6088,5.528,5.462,5.3683,5.3185,5.3185,5.3185,5.3185,5.3185,5.3185,5.3133,5.3004,5.3004,5.2931,5.2766,5.2087,5.1334,5.0545,4.9867,4.9077,4.8306,4.8306,4.8306,4.8306,4.8306,4.8345,4.8402,4.8402,4.8402,4.8402,4.8402,4.8345,4.8343,4.8489,4.9022,4.9629,4.9701,5.0343,5.1004,5.1004,5.1114,5.1206,5.1206,5.161,5.2032,5.2179,5.2747,5.3185,5.3185,5.2123,5.1426,5.2087,5.0987,5.0308,5.1096,5.0398,5.0086,5.0912,5.0437,5.0325,5.1132,5.1811,5.2197,5.2197,5.2949,5.3427,5.3427,5.4179,5.4601,5.4601,5.5244,5.5262,5.4601,5.5262,5.4966,5.3693,5.3018,5.2635,5.2502,5.1951,5.2014,5.255,5.1859,5.1584,5.1579,5.1571,5.1961,5.252,5.252,5.2909,5.3501,5.3501,5.3501,5.3501,5.7997,5.7997,5.7997,5.7997,5.7997,5.7997,5.7997,5.7997,5.7997,5.7997,5.7997,5.7997,5.7997,5.7997,5.7997,5.7997,5.7997,5.7997,5.7997,5.7997,5.7941,5.7831,5.64,5.5559,5.5427,5.3977,5.3185,5.3185,5.3185,5.3185,5.3185,5.3185,5.2839,5.216,5.216,5.1775,5.1132,5.1004,5.049,4.9757,4.9647,4.9077,4.8306,4.8306,4.8306,4.8306,4.8306,4.8532,4.883,4.883,4.883,4.883,4.883,4.8586,4.8453,4.9187,4.9519,4.9757,5.0435,5.1224,5.183,5.183,5.2362,5.2873,5.2873,5.2417,5.2197,5.2894,5.3112,5.3185,5.3185,5.3023,5.2913,5.3023,5.227,5.1958,5.2766,5.1591,5.0949,5.1738,5.1738,5.1977,5.2803,5.2986,5.3041,5.3041,5.3794,5.4234,5.4234,5.4987,5.5427,5.5427,5.5559,5.5559,5.5427,5.5559,5.5497,5.528,5.517,5.4502,5.3353,5.3892,5.3844,5.3358,5.3235,5.3177,5.318,5.3172,5.3264,5.3348,5.3348,5.3399,5.3501,5.3501,5.3501,5.3501,5.7997,5.7997,5.8074,5.8351,5.8375,5.8463,5.8755,5.8549,5.8375,5.8375,5.8146,5.7997,5.7997,5.7997,5.7997,5.7997,5.7997,5.7997,5.7997,5.7997,5.7795,5.7354,5.6427,5.562,5.4953,5.4013,5.3422,5.3185,5.3185,5.3185,5.3185,5.3185,5.2766,5.1995,5.1995,5.1555,5.0765,5.0306,4.9903,4.9555,4.9058,4.8636,4.8306,4.8306,4.8306,4.8306,4.8306,4.855,4.8863,4.8639,4.8709,4.8863,4.864,4.8439,4.8471,4.9353,4.9922,5.0435,5.1242,5.2068,5.2674,5.2674,5.2949,5.3185,5.3185,5.2931,5.2766,5.3133,5.3185,5.3185,5.3185,5.2839,5.2674,5.3133,5.2527,5.227,5.3096,5.2197,5.1591,5.1958,5.2399,5.2821,5.3167,5.3185,5.339,5.3849,5.4197,5.4601,5.5042,5.5831,5.6271,5.6271,5.6712,5.6712,5.6271,5.6712,5.6712,5.6271,5.673,5.6387,5.5335,5.5218,5.5257,5.5347,5.4458,5.4326,5.4659,5.3842,5.375,5.4074,5.3668,5.3501,5.3501,5.3501,5.3501,5.3501]}]]